﻿<?xml version="1.0" encoding="utf-8"?><gpx creator="Garmin Desktop App" version="1.1" xsi:schemaLocation="http://www.topografix.com/GPX/1/1 http://www.topografix.com/GPX/1/1/gpx.xsd http://www.garmin.com/xmlschemas/WaypointExtension/v1 http://www8.garmin.com/xmlschemas/WaypointExtensionv1.xsd http://www.garmin.com/xmlschemas/TrackPointExtension/v1 http://www.garmin.com/xmlschemas/TrackPointExtensionv1.xsd http://www.garmin.com/xmlschemas/GpxExtensions/v3 http://www8.garmin.com/xmlschemas/GpxExtensionsv3.xsd http://www.garmin.com/xmlschemas/ActivityExtension/v1 http://www8.garmin.com/xmlschemas/ActivityExtensionv1.xsd http://www.garmin.com/xmlschemas/AdventuresExtensions/v1 http://www8.garmin.com/xmlschemas/AdventuresExtensionv1.xsd http://www.garmin.com/xmlschemas/PressureExtension/v1 http://www.garmin.com/xmlschemas/PressureExtensionv1.xsd http://www.garmin.com/xmlschemas/TripExtensions/v1 http://www.garmin.com/xmlschemas/TripExtensionsv1.xsd http://www.garmin.com/xmlschemas/TripMetaDataExtensions/v1 http://www.garmin.com/xmlschemas/TripMetaDataExtensionsv1.xsd http://www.garmin.com/xmlschemas/ViaPointTransportationModeExtensions/v1 http://www.garmin.com/xmlschemas/ViaPointTransportationModeExtensionsv1.xsd http://www.garmin.com/xmlschemas/CreationTimeExtension/v1 http://www.garmin.com/xmlschemas/CreationTimeExtensionsv1.xsd http://www.garmin.com/xmlschemas/AccelerationExtension/v1 http://www.garmin.com/xmlschemas/AccelerationExtensionv1.xsd http://www.garmin.com/xmlschemas/PowerExtension/v1 http://www.garmin.com/xmlschemas/PowerExtensionv1.xsd http://www.garmin.com/xmlschemas/VideoExtension/v1 http://www.garmin.com/xmlschemas/VideoExtensionv1.xsd" xmlns="http://www.topografix.com/GPX/1/1" xmlns:xsi="http://www.w3.org/2001/XMLSchema-instance" xmlns:wptx1="http://www.garmin.com/xmlschemas/WaypointExtension/v1" xmlns:gpxtrx="http://www.garmin.com/xmlschemas/GpxExtensions/v3" xmlns:gpxtpx="http://www.garmin.com/xmlschemas/TrackPointExtension/v1" xmlns:gpxx="http://www.garmin.com/xmlschemas/GpxExtensions/v3" xmlns:trp="http://www.garmin.com/xmlschemas/TripExtensions/v1" xmlns:adv="http://www.garmin.com/xmlschemas/AdventuresExtensions/v1" xmlns:prs="http://www.garmin.com/xmlschemas/PressureExtension/v1" xmlns:tmd="http://www.garmin.com/xmlschemas/TripMetaDataExtensions/v1" xmlns:vptm="http://www.garmin.com/xmlschemas/ViaPointTransportationModeExtensions/v1" xmlns:ctx="http://www.garmin.com/xmlschemas/CreationTimeExtension/v1" xmlns:gpxacc="http://www.garmin.com/xmlschemas/AccelerationExtension/v1" xmlns:gpxpx="http://www.garmin.com/xmlschemas/PowerExtension/v1" xmlns:vidx1="http://www.garmin.com/xmlschemas/VideoExtension/v1">

  <metadata>
    <link href="http://www.garmin.com">
      <text>Garmin International</text>
    </link>
    <time>2019-04-08T13:31:53Z</time>
    <bounds maxlat="44.147908128798008" maxlon="9.729981506243348" minlat="44.115608967840672" minlon="9.683376867324114" />
  </metadata>

  <trk>
    <name>sentiero-santuari2019-04-07</name>
    <extensions>
      <gpxx:TrackExtension>
        <gpxx:DisplayColor>Yellow</gpxx:DisplayColor>
      </gpxx:TrackExtension>
      <gpxtrkx:TrackStatsExtension xmlns:gpxtrkx="http://www.garmin.com/xmlschemas/TrackStatsExtension/v1">
        <gpxtrkx:Distance>14901</gpxtrkx:Distance>
        <gpxtrkx:TotalElapsedTime>21363</gpxtrkx:TotalElapsedTime>
        <gpxtrkx:MovingTime>15173</gpxtrkx:MovingTime>
        <gpxtrkx:StoppedTime>6177</gpxtrkx:StoppedTime>
        <gpxtrkx:MovingSpeed>1</gpxtrkx:MovingSpeed>
        <gpxtrkx:MaxSpeed>2</gpxtrkx:MaxSpeed>
        <gpxtrkx:MaxElevation>610</gpxtrkx:MaxElevation>
        <gpxtrkx:MinElevation>-6</gpxtrkx:MinElevation>
        <gpxtrkx:Ascent>569</gpxtrkx:Ascent>
        <gpxtrkx:Descent>976</gpxtrkx:Descent>
        <gpxtrkx:AvgAscentRate>0</gpxtrkx:AvgAscentRate>
        <gpxtrkx:MaxAscentRate>0</gpxtrkx:MaxAscentRate>
        <gpxtrkx:AvgDescentRate>0</gpxtrkx:AvgDescentRate>
        <gpxtrkx:MaxDescentRate>-0</gpxtrkx:MaxDescentRate>
      </gpxtrkx:TrackStatsExtension>
    </extensions>
    <trkseg>
      <trkpt lat="44.116177428513765" lon="9.729830045253038">
        <ele>403.63999999999999</ele>
        <time>2019-04-07T08:50:23Z</time>
      </trkpt>
      <trkpt lat="44.116178937256336" lon="9.729831051081419">
        <ele>403.63999999999999</ele>
        <time>2019-04-07T08:50:24Z</time>
      </trkpt>
      <trkpt lat="44.116221601143479" lon="9.729828620329499">
        <ele>404.54000000000002</ele>
        <time>2019-04-07T08:50:39Z</time>
      </trkpt>
      <trkpt lat="44.116242304444313" lon="9.729834655299783">
        <ele>404.41000000000003</ele>
        <time>2019-04-07T08:50:41Z</time>
      </trkpt>
      <trkpt lat="44.116255883127451" lon="9.72986776381731">
        <ele>404.38999999999999</ele>
        <time>2019-04-07T08:50:43Z</time>
      </trkpt>
      <trkpt lat="44.116253033280373" lon="9.729908918961883">
        <ele>404.39999999999998</ele>
        <time>2019-04-07T08:50:46Z</time>
      </trkpt>
      <trkpt lat="44.116221265867352" lon="9.729923084378243">
        <ele>401.37</ele>
        <time>2019-04-07T08:50:51Z</time>
      </trkpt>
      <trkpt lat="44.116211542859674" lon="9.729920737445355">
        <ele>404.88999999999999</ele>
        <time>2019-04-07T08:50:52Z</time>
      </trkpt>
      <trkpt lat="44.11620014347136" lon="9.729791320860386">
        <ele>405.36000000000001</ele>
        <time>2019-04-07T08:51:01Z</time>
      </trkpt>
      <trkpt lat="44.116218667477369" lon="9.729827446863055">
        <ele>405.10000000000002</ele>
        <time>2019-04-07T08:51:05Z</time>
      </trkpt>
      <trkpt lat="44.116269461810589" lon="9.729828452691436">
        <ele>405.04000000000002</ele>
        <time>2019-04-07T08:51:16Z</time>
      </trkpt>
      <trkpt lat="44.116224786266685" lon="9.729824010282755">
        <ele>404.04000000000002</ele>
        <time>2019-04-07T08:51:21Z</time>
      </trkpt>
      <trkpt lat="44.116199975833297" lon="9.729805151000619">
        <ele>404.05000000000001</ele>
        <time>2019-04-07T08:51:23Z</time>
      </trkpt>
      <trkpt lat="44.116132417693734" lon="9.729785788804293">
        <ele>404.56</ele>
        <time>2019-04-07T08:51:28Z</time>
      </trkpt>
      <trkpt lat="44.116089083254337" lon="9.729763073846698">
        <ele>404.75</ele>
        <time>2019-04-07T08:51:33Z</time>
      </trkpt>
      <trkpt lat="44.116062931716442" lon="9.729777490720153">
        <ele>405</ele>
        <time>2019-04-07T08:51:36Z</time>
      </trkpt>
      <trkpt lat="44.116027811542153" lon="9.72982618957758">
        <ele>404.43000000000001</ele>
        <time>2019-04-07T08:51:48Z</time>
      </trkpt>
      <trkpt lat="44.116029068827629" lon="9.729811018332839">
        <ele>404.19</ele>
        <time>2019-04-07T08:51:58Z</time>
      </trkpt>
      <trkpt lat="44.116033930331469" lon="9.729823675006628">
        <ele>403.54000000000002</ele>
        <time>2019-04-07T08:52:15Z</time>
      </trkpt>
      <trkpt lat="44.116035522893071" lon="9.72982375882566">
        <ele>403.56</ele>
        <time>2019-04-07T08:52:18Z</time>
      </trkpt>
      <trkpt lat="44.116060668602586" lon="9.729801965877414">
        <ele>403.19999999999999</ele>
        <time>2019-04-07T08:52:21Z</time>
      </trkpt>
      <trkpt lat="44.116164688020945" lon="9.729727618396282">
        <ele>403.13999999999999</ele>
        <time>2019-04-07T08:52:33Z</time>
      </trkpt>
      <trkpt lat="44.116131495684385" lon="9.729741448536515">
        <ele>402.91000000000003</ele>
        <time>2019-04-07T08:52:36Z</time>
      </trkpt>
      <trkpt lat="44.116055807098746" lon="9.729799618944526">
        <ele>402.76999999999998</ele>
        <time>2019-04-07T08:52:45Z</time>
      </trkpt>
      <trkpt lat="44.115931503474712" lon="9.729955019429326">
        <ele>400.32999999999998</ele>
        <time>2019-04-07T08:53:00Z</time>
      </trkpt>
      <trkpt lat="44.115956900641322" lon="9.729956025257707">
        <ele>400.00999999999999</ele>
        <time>2019-04-07T08:53:03Z</time>
      </trkpt>
      <trkpt lat="44.115981878712773" lon="9.729929873719811">
        <ele>400.10000000000002</ele>
        <time>2019-04-07T08:53:06Z</time>
      </trkpt>
      <trkpt lat="44.116009622812271" lon="9.729891065508127">
        <ele>400.32999999999998</ele>
        <time>2019-04-07T08:53:09Z</time>
      </trkpt>
      <trkpt lat="44.116027811542153" lon="9.729868685826659">
        <ele>400.63</ele>
        <time>2019-04-07T08:53:11Z</time>
      </trkpt>
      <trkpt lat="44.116050945594907" lon="9.729799954220653">
        <ele>401.06</ele>
        <time>2019-04-07T08:53:23Z</time>
      </trkpt>
      <trkpt lat="44.116055304184556" lon="9.729799367487431">
        <ele>400.5</ele>
        <time>2019-04-07T08:53:36Z</time>
      </trkpt>
      <trkpt lat="44.116042060777545" lon="9.729811437427998">
        <ele>399.87</ele>
        <time>2019-04-07T08:53:48Z</time>
      </trkpt>
      <trkpt lat="44.11604817956686" lon="9.729799199849367">
        <ele>399.77999999999997</ele>
        <time>2019-04-07T08:53:50Z</time>
      </trkpt>
      <trkpt lat="44.116072906181216" lon="9.729747818782926">
        <ele>400.17000000000002</ele>
        <time>2019-04-07T08:53:58Z</time>
      </trkpt>
      <trkpt lat="44.116038121283054" lon="9.729844378307462">
        <ele>399.12</ele>
        <time>2019-04-07T08:54:08Z</time>
      </trkpt>
      <trkpt lat="44.116026638075709" lon="9.729862818494439">
        <ele>399.13999999999999</ele>
        <time>2019-04-07T08:54:11Z</time>
      </trkpt>
      <trkpt lat="44.116002582013607" lon="9.729905314743519">
        <ele>398.37</ele>
        <time>2019-04-07T08:54:23Z</time>
      </trkpt>
      <trkpt lat="44.11599637940526" lon="9.729904225096107">
        <ele>398.36000000000001</ele>
        <time>2019-04-07T08:54:24Z</time>
      </trkpt>
      <trkpt lat="44.115966120734811" lon="9.729905230924487">
        <ele>398.05000000000001</ele>
        <time>2019-04-07T08:54:27Z</time>
      </trkpt>
      <trkpt lat="44.115934688597918" lon="9.72991369664669">
        <ele>397.72000000000003</ele>
        <time>2019-04-07T08:54:30Z</time>
      </trkpt>
      <trkpt lat="44.115881714969873" lon="9.729973962530494">
        <ele>397.31999999999999</ele>
        <time>2019-04-07T08:54:40Z</time>
      </trkpt>
      <trkpt lat="44.115878362208605" lon="9.729981506243348">
        <ele>396.77999999999997</ele>
        <time>2019-04-07T08:54:52Z</time>
      </trkpt>
      <trkpt lat="44.115874841809273" lon="9.729979997500777">
        <ele>396.13</ele>
        <time>2019-04-07T08:55:07Z</time>
      </trkpt>
      <trkpt lat="44.115864615887403" lon="9.729957114905119">
        <ele>396.02999999999997</ele>
        <time>2019-04-07T08:55:09Z</time>
      </trkpt>
      <trkpt lat="44.115817593410611" lon="9.729854185134172">
        <ele>395.95999999999998</ele>
        <time>2019-04-07T08:55:20Z</time>
      </trkpt>
      <trkpt lat="44.115808038040996" lon="9.72980322316289">
        <ele>395.54000000000002</ele>
        <time>2019-04-07T08:55:32Z</time>
      </trkpt>
      <trkpt lat="44.11578674800694" lon="9.729766510426998">
        <ele>395.22000000000003</ele>
        <time>2019-04-07T08:55:37Z</time>
      </trkpt>
      <trkpt lat="44.115749951452017" lon="9.72963466309011">
        <ele>394.95999999999998</ele>
        <time>2019-04-07T08:55:45Z</time>
      </trkpt>
      <trkpt lat="44.115733187645674" lon="9.729548916220665">
        <ele>394.83999999999997</ele>
        <time>2019-04-07T08:55:50Z</time>
      </trkpt>
      <trkpt lat="44.115729415789247" lon="9.729519998654723">
        <ele>394.91000000000003</ele>
        <time>2019-04-07T08:55:52Z</time>
      </trkpt>
      <trkpt lat="44.115717681124806" lon="9.729346493259072">
        <ele>393.63</ele>
        <time>2019-04-07T08:56:02Z</time>
      </trkpt>
      <trkpt lat="44.115676023066044" lon="9.729270972311497">
        <ele>393.16000000000003</ele>
        <time>2019-04-07T08:56:10Z</time>
      </trkpt>
      <trkpt lat="44.115615086629987" lon="9.729256220161915">
        <ele>392.66000000000003</ele>
        <time>2019-04-07T08:56:24Z</time>
      </trkpt>
      <trkpt lat="44.115613661706448" lon="9.729250688105822">
        <ele>392.16000000000003</ele>
        <time>2019-04-07T08:56:39Z</time>
      </trkpt>
      <trkpt lat="44.115622630342841" lon="9.729251777753234">
        <ele>391.69</ele>
        <time>2019-04-07T08:56:55Z</time>
      </trkpt>
      <trkpt lat="44.115609470754862" lon="9.729240629822016">
        <ele>391.72000000000003</ele>
        <time>2019-04-07T08:57:06Z</time>
      </trkpt>
      <trkpt lat="44.115608967840672" lon="9.729241468012333">
        <ele>390.95999999999998</ele>
        <time>2019-04-07T08:57:24Z</time>
      </trkpt>
      <trkpt lat="44.115616176277399" lon="9.729242138564587">
        <ele>390.32999999999998</ele>
        <time>2019-04-07T08:57:35Z</time>
      </trkpt>
      <trkpt lat="44.115609806030989" lon="9.729211460798979">
        <ele>389.70999999999998</ele>
        <time>2019-04-07T08:57:48Z</time>
      </trkpt>
      <trkpt lat="44.115629084408283" lon="9.729135185480118">
        <ele>389.06999999999999</ele>
        <time>2019-04-07T08:57:59Z</time>
      </trkpt>
      <trkpt lat="44.115646183490753" lon="9.729063520208001">
        <ele>388.5</ele>
        <time>2019-04-07T08:58:13Z</time>
      </trkpt>
      <trkpt lat="44.115645680576563" lon="9.729022784158588">
        <ele>388.14999999999998</ele>
        <time>2019-04-07T08:58:23Z</time>
      </trkpt>
      <trkpt lat="44.115691194310784" lon="9.728830168023706">
        <ele>388.77999999999997</ele>
        <time>2019-04-07T08:58:38Z</time>
      </trkpt>
      <trkpt lat="44.115727320313454" lon="9.728705529123545">
        <ele>388.49000000000001</ele>
        <time>2019-04-07T08:58:48Z</time>
      </trkpt>
      <trkpt lat="44.115748107433319" lon="9.728654567152262">
        <ele>388.13999999999999</ele>
        <time>2019-04-07T08:59:00Z</time>
      </trkpt>
      <trkpt lat="44.115747604519129" lon="9.728648280724883">
        <ele>388.11000000000001</ele>
        <time>2019-04-07T08:59:15Z</time>
      </trkpt>
      <trkpt lat="44.115745509043336" lon="9.728645011782646">
        <ele>387.38999999999999</ele>
        <time>2019-04-07T08:59:27Z</time>
      </trkpt>
      <trkpt lat="44.11574718542397" lon="9.728614585474134">
        <ele>386.41000000000003</ele>
        <time>2019-04-07T08:59:46Z</time>
      </trkpt>
      <trkpt lat="44.115773756057024" lon="9.728509979322553">
        <ele>385.93000000000001</ele>
        <time>2019-04-07T09:00:00Z</time>
      </trkpt>
      <trkpt lat="44.115807702764869" lon="9.728382490575314">
        <ele>385.33999999999997</ele>
        <time>2019-04-07T09:00:14Z</time>
      </trkpt>
      <trkpt lat="44.115810384973884" lon="9.728376204147935">
        <ele>385.39999999999998</ele>
        <time>2019-04-07T09:00:15Z</time>
      </trkpt>
      <trkpt lat="44.115836955606937" lon="9.728286517783999">
        <ele>384.63999999999999</ele>
        <time>2019-04-07T09:00:26Z</time>
      </trkpt>
      <trkpt lat="44.115861346945167" lon="9.728181911632419">
        <ele>383.72000000000003</ele>
        <time>2019-04-07T09:00:40Z</time>
      </trkpt>
      <trkpt lat="44.115895545110106" lon="9.728061882779002">
        <ele>382.94999999999999</ele>
        <time>2019-04-07T09:00:52Z</time>
      </trkpt>
      <trkpt lat="44.115895880386233" lon="9.727929281070828">
        <ele>381.88999999999999</ele>
        <time>2019-04-07T09:01:04Z</time>
      </trkpt>
      <trkpt lat="44.115899484604597" lon="9.727875469252467">
        <ele>382.23000000000002</ele>
        <time>2019-04-07T09:01:15Z</time>
      </trkpt>
      <trkpt lat="44.115964779630303" lon="9.727888880297542">
        <ele>384.92000000000002</ele>
        <time>2019-04-07T09:01:28Z</time>
      </trkpt>
      <trkpt lat="44.115971485152841" lon="9.727863315492868">
        <ele>385.31999999999999</ele>
        <time>2019-04-07T09:01:30Z</time>
      </trkpt>
      <trkpt lat="44.115986488759518" lon="9.727763067930937">
        <ele>384.97000000000003</ele>
        <time>2019-04-07T09:01:37Z</time>
      </trkpt>
      <trkpt lat="44.116021608933806" lon="9.727758876979351">
        <ele>385.12</ele>
        <time>2019-04-07T09:01:41Z</time>
      </trkpt>
      <trkpt lat="44.116036109626293" lon="9.72774219699204">
        <ele>385.27999999999997</ele>
        <time>2019-04-07T09:01:43Z</time>
      </trkpt>
      <trkpt lat="44.116068296134472" lon="9.727627113461494">
        <ele>385.72000000000003</ele>
        <time>2019-04-07T09:01:52Z</time>
      </trkpt>
      <trkpt lat="44.11611950956285" lon="9.727422092109919">
        <ele>386.32999999999998</ele>
        <time>2019-04-07T09:02:08Z</time>
      </trkpt>
      <trkpt lat="44.116142224520445" lon="9.727363921701908">
        <ele>387.13999999999999</ele>
        <time>2019-04-07T09:02:18Z</time>
      </trkpt>
      <trkpt lat="44.11615027114749" lon="9.727325364947319">
        <ele>387.35000000000002</ele>
        <time>2019-04-07T09:02:22Z</time>
      </trkpt>
      <trkpt lat="44.116164268925786" lon="9.727291502058506">
        <ele>387.47000000000003</ele>
        <time>2019-04-07T09:02:25Z</time>
      </trkpt>
      <trkpt lat="44.116175416857004" lon="9.727251771837473">
        <ele>387.55000000000001</ele>
        <time>2019-04-07T09:02:28Z</time>
      </trkpt>
      <trkpt lat="44.116211794316769" lon="9.727043900638819">
        <ele>387.18000000000001</ele>
        <time>2019-04-07T09:02:41Z</time>
      </trkpt>
      <trkpt lat="44.116219254210591" lon="9.727010373026133">
        <ele>387.06999999999999</ele>
        <time>2019-04-07T09:02:43Z</time>
      </trkpt>
      <trkpt lat="44.11621430888772" lon="9.726924793794751">
        <ele>387.22000000000003</ele>
        <time>2019-04-07T09:02:48Z</time>
      </trkpt>
      <trkpt lat="44.116275832056999" lon="9.726815829053521">
        <ele>387.17000000000002</ele>
        <time>2019-04-07T09:03:01Z</time>
      </trkpt>
      <trkpt lat="44.116300642490387" lon="9.72680795006454">
        <ele>386.72000000000003</ele>
        <time>2019-04-07T09:03:15Z</time>
      </trkpt>
      <trkpt lat="44.116329811513424" lon="9.726770734414458">
        <ele>386.25999999999999</ele>
        <time>2019-04-07T09:03:27Z</time>
      </trkpt>
      <trkpt lat="44.116341294720769" lon="9.726758413016796">
        <ele>386.04000000000002</ele>
        <time>2019-04-07T09:03:30Z</time>
      </trkpt>
      <trkpt lat="44.116426706314087" lon="9.726662104949355">
        <ele>385.23000000000002</ele>
        <time>2019-04-07T09:03:44Z</time>
      </trkpt>
      <trkpt lat="44.1164571326226" lon="9.726579124107957">
        <ele>384.63</ele>
        <time>2019-04-07T09:03:57Z</time>
      </trkpt>
      <trkpt lat="44.116485128179193" lon="9.726485498249531">
        <ele>384.29000000000002</ele>
        <time>2019-04-07T09:04:08Z</time>
      </trkpt>
      <trkpt lat="44.116527708247304" lon="9.726370330899954">
        <ele>384.19</ele>
        <time>2019-04-07T09:04:22Z</time>
      </trkpt>
      <trkpt lat="44.11657297052443" lon="9.726291876286268">
        <ele>383.79000000000002</ele>
        <time>2019-04-07T09:04:34Z</time>
      </trkpt>
      <trkpt lat="44.116600379347801" lon="9.726254073902965">
        <ele>383.70999999999998</ele>
        <time>2019-04-07T09:04:44Z</time>
      </trkpt>
      <trkpt lat="44.116638600826263" lon="9.726200178265572">
        <ele>383.81</ele>
        <time>2019-04-07T09:04:57Z</time>
      </trkpt>
      <trkpt lat="44.116645390167832" lon="9.726184252649546">
        <ele>383.39999999999998</ele>
        <time>2019-04-07T09:05:12Z</time>
      </trkpt>
      <trkpt lat="44.116684533655643" lon="9.726140834391117">
        <ele>382.92000000000002</ele>
        <time>2019-04-07T09:05:26Z</time>
      </trkpt>
      <trkpt lat="44.116716552525759" lon="9.726152652874589">
        <ele>384.39999999999998</ele>
        <time>2019-04-07T09:05:32Z</time>
      </trkpt>
      <trkpt lat="44.116735327988863" lon="9.7261365596205">
        <ele>385.14999999999998</ele>
        <time>2019-04-07T09:05:34Z</time>
      </trkpt>
      <trkpt lat="44.116760892793536" lon="9.726108815521002">
        <ele>385.18000000000001</ele>
        <time>2019-04-07T09:05:37Z</time>
      </trkpt>
      <trkpt lat="44.116901541128755" lon="9.726037150248885">
        <ele>384.93000000000001</ele>
        <time>2019-04-07T09:05:52Z</time>
      </trkpt>
      <trkpt lat="44.117049565538764" lon="9.72599976696074">
        <ele>384.94</ele>
        <time>2019-04-07T09:06:07Z</time>
      </trkpt>
      <trkpt lat="44.1171910520643" lon="9.725981578230858">
        <ele>385.38999999999999</ele>
        <time>2019-04-07T09:06:21Z</time>
      </trkpt>
      <trkpt lat="44.117300184443593" lon="9.72597143612802">
        <ele>385.26999999999998</ele>
        <time>2019-04-07T09:06:36Z</time>
      </trkpt>
      <trkpt lat="44.117327509447932" lon="9.725969675928354">
        <ele>384.79000000000002</ele>
        <time>2019-04-07T09:06:50Z</time>
      </trkpt>
      <trkpt lat="44.117370760068297" lon="9.725957857444882">
        <ele>384.29000000000002</ele>
        <time>2019-04-07T09:07:05Z</time>
      </trkpt>
      <trkpt lat="44.11738651804626" lon="9.725951738655567">
        <ele>383.72000000000003</ele>
        <time>2019-04-07T09:07:17Z</time>
      </trkpt>
      <trkpt lat="44.117400348186493" lon="9.725940926000476">
        <ele>383.17000000000002</ele>
        <time>2019-04-07T09:07:24Z</time>
      </trkpt>
      <trkpt lat="44.117445694282651" lon="9.725922401994467">
        <ele>382.29000000000002</ele>
        <time>2019-04-07T09:07:29Z</time>
      </trkpt>
      <trkpt lat="44.117477545514703" lon="9.725916618481278">
        <ele>381.99000000000001</ele>
        <time>2019-04-07T09:07:33Z</time>
      </trkpt>
      <trkpt lat="44.11758977919817" lon="9.725902788341045">
        <ele>380.89999999999998</ele>
        <time>2019-04-07T09:07:45Z</time>
      </trkpt>
      <trkpt lat="44.117655996233225" lon="9.725889628753066">
        <ele>381.35000000000002</ele>
        <time>2019-04-07T09:07:58Z</time>
      </trkpt>
      <trkpt lat="44.117713999003172" lon="9.725877223536372">
        <ele>381.18000000000001</ele>
        <time>2019-04-07T09:08:10Z</time>
      </trkpt>
      <trkpt lat="44.11774174310267" lon="9.725859956815839">
        <ele>380.50999999999999</ele>
        <time>2019-04-07T09:08:24Z</time>
      </trkpt>
      <trkpt lat="44.117798488587141" lon="9.725844534114003">
        <ele>380.38</ele>
        <time>2019-04-07T09:08:36Z</time>
      </trkpt>
      <trkpt lat="44.117808546870947" lon="9.725843193009496">
        <ele>380.22000000000003</ele>
        <time>2019-04-07T09:08:39Z</time>
      </trkpt>
      <trkpt lat="44.117839895188808" lon="9.725866410881281">
        <ele>380.98000000000002</ele>
        <time>2019-04-07T09:08:45Z</time>
      </trkpt>
      <trkpt lat="44.11792354658246" lon="9.725861381739378">
        <ele>381.94</ele>
        <time>2019-04-07T09:08:56Z</time>
      </trkpt>
      <trkpt lat="44.11796067841351" lon="9.72585316747427">
        <ele>382.27999999999997</ele>
        <time>2019-04-07T09:09:07Z</time>
      </trkpt>
      <trkpt lat="44.11798900924623" lon="9.725861717015505">
        <ele>381.64999999999998</ele>
        <time>2019-04-07T09:09:12Z</time>
      </trkpt>
      <trkpt lat="44.118047598749399" lon="9.725862974300981">
        <ele>381.44999999999999</ele>
        <time>2019-04-07T09:09:24Z</time>
      </trkpt>
      <trkpt lat="44.118058662861586" lon="9.725869512185454">
        <ele>381.01999999999998</ele>
        <time>2019-04-07T09:09:35Z</time>
      </trkpt>
      <trkpt lat="44.118116246536374" lon="9.725881079211831">
        <ele>382.44999999999999</ele>
        <time>2019-04-07T09:09:42Z</time>
      </trkpt>
      <trkpt lat="44.118139296770096" lon="9.725880911573768">
        <ele>381.5</ele>
        <time>2019-04-07T09:09:55Z</time>
      </trkpt>
      <trkpt lat="44.118142984807491" lon="9.725884515792131">
        <ele>381.35000000000002</ele>
        <time>2019-04-07T09:09:58Z</time>
      </trkpt>
      <trkpt lat="44.118210542947054" lon="9.725854257121682">
        <ele>381.14999999999998</ele>
        <time>2019-04-07T09:10:05Z</time>
      </trkpt>
      <trkpt lat="44.11829830147326" lon="9.725798098370433">
        <ele>380.50999999999999</ele>
        <time>2019-04-07T09:10:14Z</time>
      </trkpt>
      <trkpt lat="44.118377761915326" lon="9.725773287937045">
        <ele>380.60000000000002</ele>
        <time>2019-04-07T09:10:26Z</time>
      </trkpt>
      <trkpt lat="44.118379689753056" lon="9.725768258795142">
        <ele>380.25</ele>
        <time>2019-04-07T09:10:27Z</time>
      </trkpt>
      <trkpt lat="44.118545399978757" lon="9.72569290548563">
        <ele>378.12</ele>
        <time>2019-04-07T09:10:41Z</time>
      </trkpt>
      <trkpt lat="44.118693759664893" lon="9.725669519975781">
        <ele>379.48000000000002</ele>
        <time>2019-04-07T09:10:54Z</time>
      </trkpt>
      <trkpt lat="44.118897020816803" lon="9.725554017350078">
        <ele>379.92000000000002</ele>
        <time>2019-04-07T09:11:11Z</time>
      </trkpt>
      <trkpt lat="44.118923004716635" lon="9.725529290735722">
        <ele>379.56</ele>
        <time>2019-04-07T09:11:23Z</time>
      </trkpt>
      <trkpt lat="44.118933314457536" lon="9.725512443110347">
        <ele>379.14999999999998</ele>
        <time>2019-04-07T09:11:41Z</time>
      </trkpt>
      <trkpt lat="44.118933985009789" lon="9.725510179996491">
        <ele>378.88999999999999</ele>
        <time>2019-04-07T09:11:49Z</time>
      </trkpt>
      <trkpt lat="44.119006991386414" lon="9.725503223016858">
        <ele>379.00999999999999</ele>
        <time>2019-04-07T09:11:56Z</time>
      </trkpt>
      <trkpt lat="44.119244199246168" lon="9.725471874698997">
        <ele>379.69</ele>
        <time>2019-04-07T09:12:15Z</time>
      </trkpt>
      <trkpt lat="44.119249060750008" lon="9.725471287965775">
        <ele>380.07999999999998</ele>
        <time>2019-04-07T09:12:16Z</time>
      </trkpt>
      <trkpt lat="44.119339752942324" lon="9.725434156134725">
        <ele>380.10000000000002</ele>
        <time>2019-04-07T09:12:23Z</time>
      </trkpt>
      <trkpt lat="44.119555670768023" lon="9.725423846393824">
        <ele>379.74000000000001</ele>
        <time>2019-04-07T09:12:41Z</time>
      </trkpt>
      <trkpt lat="44.119556760415435" lon="9.725430803373456">
        <ele>379.87</ele>
        <time>2019-04-07T09:12:43Z</time>
      </trkpt>
      <trkpt lat="44.119658516719937" lon="9.725444130599499">
        <ele>379.69999999999999</ele>
        <time>2019-04-07T09:12:54Z</time>
      </trkpt>
      <trkpt lat="44.119687601923943" lon="9.725450249388814">
        <ele>379.45999999999998</ele>
        <time>2019-04-07T09:12:57Z</time>
      </trkpt>
      <trkpt lat="44.119880637153983" lon="9.725527865812182">
        <ele>378.75</ele>
        <time>2019-04-07T09:13:11Z</time>
      </trkpt>
      <trkpt lat="44.119893545284867" lon="9.725532978773117">
        <ele>378.75999999999999</ele>
        <time>2019-04-07T09:13:12Z</time>
      </trkpt>
      <trkpt lat="44.11991810426116" lon="9.725484699010849">
        <ele>378.94</ele>
        <time>2019-04-07T09:13:16Z</time>
      </trkpt>
      <trkpt lat="44.119908800348639" lon="9.725405070930719">
        <ele>378.80000000000001</ele>
        <time>2019-04-07T09:13:20Z</time>
      </trkpt>
      <trkpt lat="44.119893126189709" lon="9.725199546664953">
        <ele>378.63999999999999</ele>
        <time>2019-04-07T09:13:32Z</time>
      </trkpt>
      <trkpt lat="44.119909638538957" lon="9.725177502259612">
        <ele>378.31999999999999</ele>
        <time>2019-04-07T09:13:55Z</time>
      </trkpt>
      <trkpt lat="44.119909051805735" lon="9.725178088992834">
        <ele>377.64999999999998</ele>
        <time>2019-04-07T09:14:19Z</time>
      </trkpt>
      <trkpt lat="44.119892539456487" lon="9.725179011002183">
        <ele>377.16000000000003</ele>
        <time>2019-04-07T09:14:46Z</time>
      </trkpt>
      <trkpt lat="44.119897484779358" lon="9.725180435925722">
        <ele>376.88</ele>
        <time>2019-04-07T09:15:04Z</time>
      </trkpt>
      <trkpt lat="44.119902094826102" lon="9.72518227994442">
        <ele>376.56999999999999</ele>
        <time>2019-04-07T09:15:24Z</time>
      </trkpt>
      <trkpt lat="44.119901424273849" lon="9.725168282166123">
        <ele>376.39999999999998</ele>
        <time>2019-04-07T09:15:36Z</time>
      </trkpt>
      <trkpt lat="44.119899244979024" lon="9.725170880556107">
        <ele>376.16000000000003</ele>
        <time>2019-04-07T09:15:49Z</time>
      </trkpt>
      <trkpt lat="44.119895389303565" lon="9.725164175033569">
        <ele>375.97000000000003</ele>
        <time>2019-04-07T09:16:08Z</time>
      </trkpt>
      <trkpt lat="44.119893293827772" lon="9.725132826715708">
        <ele>375.86000000000001</ele>
        <time>2019-04-07T09:16:19Z</time>
      </trkpt>
      <trkpt lat="44.119891449809074" lon="9.725115727633238">
        <ele>375.55000000000001</ele>
        <time>2019-04-07T09:16:40Z</time>
      </trkpt>
      <trkpt lat="44.119907459244132" lon="9.72504498437047">
        <ele>375.06</ele>
        <time>2019-04-07T09:16:59Z</time>
      </trkpt>
      <trkpt lat="44.119983818382025" lon="9.724753461778164">
        <ele>375.86000000000001</ele>
        <time>2019-04-07T09:17:18Z</time>
      </trkpt>
      <trkpt lat="44.119978118687868" lon="9.724626643583179">
        <ele>374.88999999999999</ele>
        <time>2019-04-07T09:17:26Z</time>
      </trkpt>
      <trkpt lat="44.119961857795715" lon="9.724552715197206">
        <ele>373.89999999999998</ele>
        <time>2019-04-07T09:17:30Z</time>
      </trkpt>
      <trkpt lat="44.120002342388034" lon="9.724388178437948">
        <ele>374.11000000000001</ele>
        <time>2019-04-07T09:17:41Z</time>
      </trkpt>
      <trkpt lat="44.119979878887534" lon="9.724142337217927">
        <ele>373.95999999999998</ele>
        <time>2019-04-07T09:17:57Z</time>
      </trkpt>
      <trkpt lat="44.11997577175498" lon="9.724080394953489">
        <ele>373.67000000000002</ele>
        <time>2019-04-07T09:18:08Z</time>
      </trkpt>
      <trkpt lat="44.119971916079521" lon="9.724045442417264">
        <ele>373.54000000000002</ele>
        <time>2019-04-07T09:18:10Z</time>
      </trkpt>
      <trkpt lat="44.119980549439788" lon="9.723899429664016">
        <ele>373.27999999999997</ele>
        <time>2019-04-07T09:18:18Z</time>
      </trkpt>
      <trkpt lat="44.119985662400723" lon="9.723794404417276">
        <ele>373.07999999999998</ele>
        <time>2019-04-07T09:18:24Z</time>
      </trkpt>
      <trkpt lat="44.120031092315912" lon="9.7234857827425">
        <ele>374.94</ele>
        <time>2019-04-07T09:18:42Z</time>
      </trkpt>
      <trkpt lat="44.120066463947296" lon="9.72337338142097">
        <ele>376.48000000000002</ele>
        <time>2019-04-07T09:18:52Z</time>
      </trkpt>
      <trkpt lat="44.120100243017077" lon="9.723203228786588">
        <ele>378.63999999999999</ele>
        <time>2019-04-07T09:19:06Z</time>
      </trkpt>
      <trkpt lat="44.12011650390923" lon="9.723045397549868">
        <ele>379.77999999999997</ele>
        <time>2019-04-07T09:19:18Z</time>
      </trkpt>
      <trkpt lat="44.120119856670499" lon="9.722950765863061">
        <ele>381.17000000000002</ele>
        <time>2019-04-07T09:19:30Z</time>
      </trkpt>
      <trkpt lat="44.120124382898211" lon="9.7229297272861">
        <ele>380.77999999999997</ele>
        <time>2019-04-07T09:19:44Z</time>
      </trkpt>
      <trkpt lat="44.120124969631433" lon="9.72283492796123">
        <ele>380.20999999999998</ele>
        <time>2019-04-07T09:19:50Z</time>
      </trkpt>
      <trkpt lat="44.120163861662149" lon="9.722547177225351">
        <ele>380.29000000000002</ele>
        <time>2019-04-07T09:20:06Z</time>
      </trkpt>
      <trkpt lat="44.120235275477171" lon="9.722321620211005">
        <ele>380.16000000000003</ele>
        <time>2019-04-07T09:20:20Z</time>
      </trkpt>
      <trkpt lat="44.120433004572988" lon="9.722173847258091">
        <ele>380.74000000000001</ele>
        <time>2019-04-07T09:20:38Z</time>
      </trkpt>
      <trkpt lat="44.120464269071817" lon="9.722156664356589">
        <ele>380.94</ele>
        <time>2019-04-07T09:20:45Z</time>
      </trkpt>
      <trkpt lat="44.120508525520563" lon="9.722145348787308">
        <ele>380.79000000000002</ele>
        <time>2019-04-07T09:20:49Z</time>
      </trkpt>
      <trkpt lat="44.120677337050438" lon="9.722119532525539">
        <ele>380.95999999999998</ele>
        <time>2019-04-07T09:21:05Z</time>
      </trkpt>
      <trkpt lat="44.120824774727225" lon="9.722128501161933">
        <ele>381.54000000000002</ele>
        <time>2019-04-07T09:21:19Z</time>
      </trkpt>
      <trkpt lat="44.120963327586651" lon="9.722154149785638">
        <ele>381.64999999999998</ele>
        <time>2019-04-07T09:21:29Z</time>
      </trkpt>
      <trkpt lat="44.121040860190988" lon="9.722154904156923">
        <ele>381.45999999999998</ele>
        <time>2019-04-07T09:21:39Z</time>
      </trkpt>
      <trkpt lat="44.121042368933558" lon="9.722123639658094">
        <ele>380.94</ele>
        <time>2019-04-07T09:21:42Z</time>
      </trkpt>
      <trkpt lat="44.121043458580971" lon="9.722098158672452">
        <ele>380.37</ele>
        <time>2019-04-07T09:21:44Z</time>
      </trkpt>
      <trkpt lat="44.121067682281137" lon="9.722021380439401">
        <ele>378.97000000000003</ele>
        <time>2019-04-07T09:21:52Z</time>
      </trkpt>
      <trkpt lat="44.121099282056093" lon="9.722027834504843">
        <ele>378.38</ele>
        <time>2019-04-07T09:21:55Z</time>
      </trkpt>
      <trkpt lat="44.121138425543904" lon="9.722040323540568">
        <ele>378.26999999999998</ele>
        <time>2019-04-07T09:21:59Z</time>
      </trkpt>
      <trkpt lat="44.121155943721533" lon="9.72210100851953">
        <ele>378.48000000000002</ele>
        <time>2019-04-07T09:22:04Z</time>
      </trkpt>
      <trkpt lat="44.121166924014688" lon="9.722228329628706">
        <ele>381</ele>
        <time>2019-04-07T09:22:16Z</time>
      </trkpt>
      <trkpt lat="44.12121495231986" lon="9.722253726795316">
        <ele>382.35000000000002</ele>
        <time>2019-04-07T09:22:24Z</time>
      </trkpt>
      <trkpt lat="44.121334562078118" lon="9.722280967980623">
        <ele>382.81999999999999</ele>
        <time>2019-04-07T09:22:37Z</time>
      </trkpt>
      <trkpt lat="44.121331460773945" lon="9.722384316846728">
        <ele>385.24000000000001</ele>
        <time>2019-04-07T09:22:49Z</time>
      </trkpt>
      <trkpt lat="44.121385188773274" lon="9.722411809489131">
        <ele>387.26999999999998</ele>
        <time>2019-04-07T09:22:58Z</time>
      </trkpt>
      <trkpt lat="44.121411927044392" lon="9.722411138936877">
        <ele>387.45999999999998</ele>
        <time>2019-04-07T09:23:01Z</time>
      </trkpt>
      <trkpt lat="44.121470768004656" lon="9.722412815317512">
        <ele>387.77999999999997</ele>
        <time>2019-04-07T09:23:07Z</time>
      </trkpt>
      <trkpt lat="44.121504463255405" lon="9.722421281039715">
        <ele>388.22000000000003</ele>
        <time>2019-04-07T09:23:11Z</time>
      </trkpt>
      <trkpt lat="44.121553916484118" lon="9.722438380122185">
        <ele>388.08999999999997</ele>
        <time>2019-04-07T09:23:17Z</time>
      </trkpt>
      <trkpt lat="44.121662294492126" lon="9.72247526049614">
        <ele>387.60000000000002</ele>
        <time>2019-04-07T09:23:29Z</time>
      </trkpt>
      <trkpt lat="44.121673358604312" lon="9.722474841400981">
        <ele>388.31</ele>
        <time>2019-04-07T09:23:30Z</time>
      </trkpt>
      <trkpt lat="44.121729684993625" lon="9.722463022917509">
        <ele>388.25999999999999</ele>
        <time>2019-04-07T09:23:42Z</time>
      </trkpt>
      <trkpt lat="44.12173337303102" lon="9.722454808652401">
        <ele>388.07999999999998</ele>
        <time>2019-04-07T09:23:43Z</time>
      </trkpt>
      <trkpt lat="44.121780982241035" lon="9.72243620082736">
        <ele>387.29000000000002</ele>
        <time>2019-04-07T09:23:49Z</time>
      </trkpt>
      <trkpt lat="44.121897993609309" lon="9.722490767017007">
        <ele>386.98000000000002</ele>
        <time>2019-04-07T09:24:01Z</time>
      </trkpt>
      <trkpt lat="44.122022883966565" lon="9.722584644332528">
        <ele>386.73000000000002</ele>
        <time>2019-04-07T09:24:13Z</time>
      </trkpt>
      <trkpt lat="44.122141404077411" lon="9.722684137523174">
        <ele>386.36000000000001</ele>
        <time>2019-04-07T09:24:24Z</time>
      </trkpt>
      <trkpt lat="44.122191611677408" lon="9.722732165828347">
        <ele>386.22000000000003</ele>
        <time>2019-04-07T09:24:30Z</time>
      </trkpt>
      <trkpt lat="44.122309293597937" lon="9.722844064235687">
        <ele>385.23000000000002</ele>
        <time>2019-04-07T09:24:43Z</time>
      </trkpt>
      <trkpt lat="44.122320273891091" lon="9.722857978194952">
        <ele>385.22000000000003</ele>
        <time>2019-04-07T09:24:44Z</time>
      </trkpt>
      <trkpt lat="44.122436614707112" lon="9.722922435030341">
        <ele>384.67000000000002</ele>
        <time>2019-04-07T09:24:56Z</time>
      </trkpt>
      <trkpt lat="44.122451869770885" lon="9.722920171916485">
        <ele>384.63</ele>
        <time>2019-04-07T09:24:57Z</time>
      </trkpt>
      <trkpt lat="44.122477350756526" lon="9.722923021763563">
        <ele>384.62</ele>
        <time>2019-04-07T09:24:59Z</time>
      </trkpt>
      <trkpt lat="44.122609198093414" lon="9.722985383123159">
        <ele>384.50999999999999</ele>
        <time>2019-04-07T09:25:10Z</time>
      </trkpt>
      <trkpt lat="44.122700309380889" lon="9.7230489179492">
        <ele>384.30000000000001</ele>
        <time>2019-04-07T09:25:22Z</time>
      </trkpt>
      <trkpt lat="44.122855206951499" lon="9.723048415035009">
        <ele>384.20999999999998</ele>
        <time>2019-04-07T09:25:35Z</time>
      </trkpt>
      <trkpt lat="44.122865181416273" lon="9.723050761967897">
        <ele>383.98000000000002</ele>
        <time>2019-04-07T09:25:36Z</time>
      </trkpt>
      <trkpt lat="44.122987054288387" lon="9.723119074478746">
        <ele>383.75999999999999</ele>
        <time>2019-04-07T09:25:50Z</time>
      </trkpt>
      <trkpt lat="44.123115884140134" lon="9.723177244886756">
        <ele>383.56</ele>
        <time>2019-04-07T09:26:02Z</time>
      </trkpt>
      <trkpt lat="44.123182352632284" lon="9.72318621352315">
        <ele>383.29000000000002</ele>
        <time>2019-04-07T09:26:06Z</time>
      </trkpt>
      <trkpt lat="44.123303135856986" lon="9.72324681468308">
        <ele>383.30000000000001</ele>
        <time>2019-04-07T09:26:16Z</time>
      </trkpt>
      <trkpt lat="44.123408915475011" lon="9.723328622058034">
        <ele>383.18000000000001</ele>
        <time>2019-04-07T09:26:26Z</time>
      </trkpt>
      <trkpt lat="44.123434145003557" lon="9.723345553502441">
        <ele>383.17000000000002</ele>
        <time>2019-04-07T09:26:28Z</time>
      </trkpt>
      <trkpt lat="44.123461721464992" lon="9.723405567929149">
        <ele>383.20999999999998</ele>
        <time>2019-04-07T09:26:33Z</time>
      </trkpt>
      <trkpt lat="44.12349977530539" lon="9.723443537950516">
        <ele>383.23000000000002</ele>
        <time>2019-04-07T09:26:36Z</time>
      </trkpt>
      <trkpt lat="44.123614523559809" lon="9.723729277029634">
        <ele>382.98000000000002</ele>
        <time>2019-04-07T09:26:53Z</time>
      </trkpt>
      <trkpt lat="44.123677555471659" lon="9.723840756341815">
        <ele>383.13999999999999</ele>
        <time>2019-04-07T09:27:01Z</time>
      </trkpt>
      <trkpt lat="44.123710161074996" lon="9.723880318924785">
        <ele>383.12</ele>
        <time>2019-04-07T09:27:04Z</time>
      </trkpt>
      <trkpt lat="44.123750058934093" lon="9.723939411342144">
        <ele>383.24000000000001</ele>
        <time>2019-04-07T09:27:08Z</time>
      </trkpt>
      <trkpt lat="44.123823652043939" lon="9.724059524014592">
        <ele>383.55000000000001</ele>
        <time>2019-04-07T09:27:18Z</time>
      </trkpt>
      <trkpt lat="44.123914260417223" lon="9.724019542336464">
        <ele>383.70999999999998</ele>
        <time>2019-04-07T09:27:28Z</time>
      </trkpt>
      <trkpt lat="44.123957427218556" lon="9.723797589540482">
        <ele>383.87</ele>
        <time>2019-04-07T09:27:42Z</time>
      </trkpt>
      <trkpt lat="44.124033199623227" lon="9.723657444119453">
        <ele>383.88</ele>
        <time>2019-04-07T09:27:54Z</time>
      </trkpt>
      <trkpt lat="44.124128585681319" lon="9.723652247339487">
        <ele>383.68000000000001</ele>
        <time>2019-04-07T09:28:05Z</time>
      </trkpt>
      <trkpt lat="44.124154318124056" lon="9.723664317280054">
        <ele>383.50999999999999</ele>
        <time>2019-04-07T09:28:08Z</time>
      </trkpt>
      <trkpt lat="44.124278454110026" lon="9.723685691133142">
        <ele>383.69999999999999</ele>
        <time>2019-04-07T09:28:18Z</time>
      </trkpt>
      <trkpt lat="44.124424047768116" lon="9.723532889038324">
        <ele>383.88</ele>
        <time>2019-04-07T09:28:34Z</time>
      </trkpt>
      <trkpt lat="44.124455312266946" lon="9.723510593175888">
        <ele>383.89999999999998</ele>
        <time>2019-04-07T09:28:37Z</time>
      </trkpt>
      <trkpt lat="44.12457081489265" lon="9.723546300083399">
        <ele>383.85000000000002</ele>
        <time>2019-04-07T09:28:48Z</time>
      </trkpt>
      <trkpt lat="44.124675337225199" lon="9.723539343103766">
        <ele>382.22000000000003</ele>
        <time>2019-04-07T09:29:02Z</time>
      </trkpt>
      <trkpt lat="44.124624123796821" lon="9.723473293706775">
        <ele>380.12</ele>
        <time>2019-04-07T09:29:14Z</time>
      </trkpt>
      <trkpt lat="44.124571233987808" lon="9.72343691624701">
        <ele>377.29000000000002</ele>
        <time>2019-04-07T09:29:24Z</time>
      </trkpt>
      <trkpt lat="44.12454491481185" lon="9.723431970924139">
        <ele>376.66000000000003</ele>
        <time>2019-04-07T09:29:27Z</time>
      </trkpt>
      <trkpt lat="44.124468304216862" lon="9.723371537402272">
        <ele>374.63999999999999</ele>
        <time>2019-04-07T09:29:37Z</time>
      </trkpt>
      <trkpt lat="44.124429076910019" lon="9.723332477733493">
        <ele>375.75</ele>
        <time>2019-04-07T09:29:45Z</time>
      </trkpt>
      <trkpt lat="44.124371409416199" lon="9.723320240154862">
        <ele>377.80000000000001</ele>
        <time>2019-04-07T09:29:56Z</time>
      </trkpt>
      <trkpt lat="44.124329667538404" lon="9.723329627886415">
        <ele>378.11000000000001</ele>
        <time>2019-04-07T09:30:01Z</time>
      </trkpt>
      <trkpt lat="44.124234197661281" lon="9.723244635388255">
        <ele>378.5</ele>
        <time>2019-04-07T09:30:13Z</time>
      </trkpt>
      <trkpt lat="44.124163286760449" lon="9.723126282915473">
        <ele>381.73000000000002</ele>
        <time>2019-04-07T09:30:24Z</time>
      </trkpt>
      <trkpt lat="44.124113079160452" lon="9.723048750311136">
        <ele>383.13999999999999</ele>
        <time>2019-04-07T09:30:32Z</time>
      </trkpt>
      <trkpt lat="44.124046359211206" lon="9.722921680659056">
        <ele>382.63</ele>
        <time>2019-04-07T09:30:44Z</time>
      </trkpt>
      <trkpt lat="44.124023476615548" lon="9.722886811941862">
        <ele>382.00999999999999</ele>
        <time>2019-04-07T09:30:47Z</time>
      </trkpt>
      <trkpt lat="44.123967653140426" lon="9.722766280174255">
        <ele>380.32999999999998</ele>
        <time>2019-04-07T09:30:56Z</time>
      </trkpt>
      <trkpt lat="44.123949548229575" lon="9.722626889124513">
        <ele>380.37</ele>
        <time>2019-04-07T09:31:06Z</time>
      </trkpt>
      <trkpt lat="44.123925575986505" lon="9.722576765343547">
        <ele>380.20999999999998</ele>
        <time>2019-04-07T09:31:09Z</time>
      </trkpt>
      <trkpt lat="44.123864220455289" lon="9.722448186948896">
        <ele>380.16000000000003</ele>
        <time>2019-04-07T09:31:17Z</time>
      </trkpt>
      <trkpt lat="44.123767912387848" lon="9.722255654633045">
        <ele>379.04000000000002</ele>
        <time>2019-04-07T09:31:31Z</time>
      </trkpt>
      <trkpt lat="44.123707143589854" lon="9.722138978540897">
        <ele>379.88999999999999</ele>
        <time>2019-04-07T09:31:41Z</time>
      </trkpt>
      <trkpt lat="44.123676717281342" lon="9.722027666866779">
        <ele>379.18000000000001</ele>
        <time>2019-04-07T09:31:50Z</time>
      </trkpt>
      <trkpt lat="44.123614272102714" lon="9.721895903348923">
        <ele>378.45999999999998</ele>
        <time>2019-04-07T09:32:01Z</time>
      </trkpt>
      <trkpt lat="44.123548390343785" lon="9.721869919449091">
        <ele>378.63999999999999</ele>
        <time>2019-04-07T09:32:06Z</time>
      </trkpt>
      <trkpt lat="44.123493153601885" lon="9.721843181177974">
        <ele>378.94999999999999</ele>
        <time>2019-04-07T09:32:10Z</time>
      </trkpt>
      <trkpt lat="44.12335267290473" lon="9.721634974703193">
        <ele>379.29000000000002</ele>
        <time>2019-04-07T09:32:27Z</time>
      </trkpt>
      <trkpt lat="44.123313026502728" lon="9.721517208963633">
        <ele>378.99000000000001</ele>
        <time>2019-04-07T09:32:35Z</time>
      </trkpt>
      <trkpt lat="44.123259633779526" lon="9.721286203712225">
        <ele>379.44999999999999</ele>
        <time>2019-04-07T09:32:50Z</time>
      </trkpt>
      <trkpt lat="44.12324613891542" lon="9.721216717734933">
        <ele>379.99000000000001</ele>
        <time>2019-04-07T09:33:02Z</time>
      </trkpt>
      <trkpt lat="44.123246222734451" lon="9.721198612824082">
        <ele>379.50999999999999</ele>
        <time>2019-04-07T09:33:17Z</time>
      </trkpt>
      <trkpt lat="44.123233566060662" lon="9.721031812950969">
        <ele>379.23000000000002</ele>
        <time>2019-04-07T09:33:30Z</time>
      </trkpt>
      <trkpt lat="44.123233566060662" lon="9.720848752185702">
        <ele>377.79000000000002</ele>
        <time>2019-04-07T09:33:42Z</time>
      </trkpt>
      <trkpt lat="44.123268183320761" lon="9.72063316963613">
        <ele>378.38999999999999</ele>
        <time>2019-04-07T09:33:56Z</time>
      </trkpt>
      <trkpt lat="44.123287377879024" lon="9.720437116920948">
        <ele>377.97000000000003</ele>
        <time>2019-04-07T09:34:08Z</time>
      </trkpt>
      <trkpt lat="44.123261980712414" lon="9.720248691737652">
        <ele>376.92000000000002</ele>
        <time>2019-04-07T09:34:20Z</time>
      </trkpt>
      <trkpt lat="44.123249910771847" lon="9.720081724226475">
        <ele>376.25999999999999</ele>
        <time>2019-04-07T09:34:30Z</time>
      </trkpt>
      <trkpt lat="44.123214287683368" lon="9.719896735623479">
        <ele>375.18000000000001</ele>
        <time>2019-04-07T09:34:41Z</time>
      </trkpt>
      <trkpt lat="44.123173383995891" lon="9.719685344025493">
        <ele>375.02999999999997</ele>
        <time>2019-04-07T09:34:53Z</time>
      </trkpt>
      <trkpt lat="44.12315234541893" lon="9.719600519165397">
        <ele>375.19</ele>
        <time>2019-04-07T09:35:00Z</time>
      </trkpt>
      <trkpt lat="44.123145388439298" lon="9.719556514173746">
        <ele>375.10000000000002</ele>
        <time>2019-04-07T09:35:03Z</time>
      </trkpt>
      <trkpt lat="44.123119069263339" lon="9.719442687928677">
        <ele>375.22000000000003</ele>
        <time>2019-04-07T09:35:10Z</time>
      </trkpt>
      <trkpt lat="44.12307171151042" lon="9.719280498102307">
        <ele>374.95999999999998</ele>
        <time>2019-04-07T09:35:21Z</time>
      </trkpt>
      <trkpt lat="44.123043967410922" lon="9.71915066242218">
        <ele>374.88999999999999</ele>
        <time>2019-04-07T09:35:32Z</time>
      </trkpt>
      <trkpt lat="44.123000465333462" lon="9.719035243615508">
        <ele>375.29000000000002</ele>
        <time>2019-04-07T09:35:41Z</time>
      </trkpt>
      <trkpt lat="44.122969452291727" lon="9.718929212540388">
        <ele>374.85000000000002</ele>
        <time>2019-04-07T09:35:48Z</time>
      </trkpt>
      <trkpt lat="44.122973559424281" lon="9.718814296647906">
        <ele>373.81999999999999</ele>
        <time>2019-04-07T09:35:59Z</time>
      </trkpt>
      <trkpt lat="44.122956627979875" lon="9.718781774863601">
        <ele>372.56999999999999</ele>
        <time>2019-04-07T09:36:03Z</time>
      </trkpt>
      <trkpt lat="44.122968949377537" lon="9.718737853690982">
        <ele>371.13</ele>
        <time>2019-04-07T09:36:07Z</time>
      </trkpt>
      <trkpt lat="44.123023767024279" lon="9.718672391027212">
        <ele>370.36000000000001</ele>
        <time>2019-04-07T09:36:13Z</time>
      </trkpt>
      <trkpt lat="44.123100796714425" lon="9.718508524820209">
        <ele>370.31</ele>
        <time>2019-04-07T09:36:24Z</time>
      </trkpt>
      <trkpt lat="44.123218143358827" lon="9.718356728553772">
        <ele>370.76999999999998</ele>
        <time>2019-04-07T09:36:38Z</time>
      </trkpt>
      <trkpt lat="44.123286288231611" lon="9.718282800167799">
        <ele>370.75</ele>
        <time>2019-04-07T09:36:45Z</time>
      </trkpt>
      <trkpt lat="44.123334065079689" lon="9.718190934509039">
        <ele>370.22000000000003</ele>
        <time>2019-04-07T09:36:52Z</time>
      </trkpt>
      <trkpt lat="44.123375220224261" lon="9.718044670298696">
        <ele>369.95999999999998</ele>
        <time>2019-04-07T09:37:01Z</time>
      </trkpt>
      <trkpt lat="44.123451998457313" lon="9.717958755791187">
        <ele>370.14999999999998</ele>
        <time>2019-04-07T09:37:10Z</time>
      </trkpt>
      <trkpt lat="44.123519724234939" lon="9.717937801033258">
        <ele>369.81</ele>
        <time>2019-04-07T09:37:16Z</time>
      </trkpt>
      <trkpt lat="44.123563393950462" lon="9.717912822961807">
        <ele>370.45999999999998</ele>
        <time>2019-04-07T09:37:21Z</time>
      </trkpt>
      <trkpt lat="44.123649559915066" lon="9.717833278700709">
        <ele>370.56999999999999</ele>
        <time>2019-04-07T09:37:31Z</time>
      </trkpt>
      <trkpt lat="44.123665820807219" lon="9.717785501852632">
        <ele>369.81999999999999</ele>
        <time>2019-04-07T09:37:34Z</time>
      </trkpt>
      <trkpt lat="44.123699432238936" lon="9.717731438577175">
        <ele>370.38999999999999</ele>
        <time>2019-04-07T09:37:39Z</time>
      </trkpt>
      <trkpt lat="44.123717285692692" lon="9.717670753598213">
        <ele>371.13</ele>
        <time>2019-04-07T09:37:43Z</time>
      </trkpt>
      <trkpt lat="44.123723991215229" lon="9.717622557654977">
        <ele>370.97000000000003</ele>
        <time>2019-04-07T09:37:46Z</time>
      </trkpt>
      <trkpt lat="44.123757099732757" lon="9.717478975653648">
        <ele>368.22000000000003</ele>
        <time>2019-04-07T09:37:59Z</time>
      </trkpt>
      <trkpt lat="44.123793225735426" lon="9.717349726706743">
        <ele>367.31999999999999</ele>
        <time>2019-04-07T09:38:08Z</time>
      </trkpt>
      <trkpt lat="44.123823819682002" lon="9.717269176617265">
        <ele>367.64999999999998</ele>
        <time>2019-04-07T09:38:14Z</time>
      </trkpt>
      <trkpt lat="44.123858101665974" lon="9.717209916561842">
        <ele>368.02999999999997</ele>
        <time>2019-04-07T09:38:21Z</time>
      </trkpt>
      <trkpt lat="44.123866651207209" lon="9.717184267938137">
        <ele>368.02999999999997</ele>
        <time>2019-04-07T09:38:23Z</time>
      </trkpt>
      <trkpt lat="44.123900597915053" lon="9.717130120843649">
        <ele>368.10000000000002</ele>
        <time>2019-04-07T09:38:28Z</time>
      </trkpt>
      <trkpt lat="44.123909063637257" lon="9.717107657343149">
        <ele>367.93000000000001</ele>
        <time>2019-04-07T09:38:30Z</time>
      </trkpt>
      <trkpt lat="44.123937310650945" lon="9.717020485550165">
        <ele>367.89999999999998</ele>
        <time>2019-04-07T09:38:37Z</time>
      </trkpt>
      <trkpt lat="44.123962456360459" lon="9.716913616284728">
        <ele>367.31999999999999</ele>
        <time>2019-04-07T09:38:44Z</time>
      </trkpt>
      <trkpt lat="44.123998833820224" lon="9.716842453926802">
        <ele>366.86000000000001</ele>
        <time>2019-04-07T09:38:49Z</time>
      </trkpt>
      <trkpt lat="44.124064296483994" lon="9.716710690408945">
        <ele>366.00999999999999</ele>
        <time>2019-04-07T09:39:03Z</time>
      </trkpt>
      <trkpt lat="44.124050214886665" lon="9.716669702902436">
        <ele>363.22000000000003</ele>
        <time>2019-04-07T09:39:15Z</time>
      </trkpt>
      <trkpt lat="44.124048119410872" lon="9.716642461717129">
        <ele>361.99000000000001</ele>
        <time>2019-04-07T09:39:24Z</time>
      </trkpt>
      <trkpt lat="44.124050382524729" lon="9.716640533879399">
        <ele>361.70999999999998</ele>
        <time>2019-04-07T09:39:25Z</time>
      </trkpt>
      <trkpt lat="44.12407242693007" lon="9.716601558029652">
        <ele>360.01999999999998</ele>
        <time>2019-04-07T09:39:33Z</time>
      </trkpt>
      <trkpt lat="44.124141158536077" lon="9.716521929949522">
        <ele>360.20999999999998</ele>
        <time>2019-04-07T09:39:43Z</time>
      </trkpt>
      <trkpt lat="44.124166890978813" lon="9.71645780839026">
        <ele>358.80000000000001</ele>
        <time>2019-04-07T09:39:51Z</time>
      </trkpt>
      <trkpt lat="44.124179212376475" lon="9.716418161988258">
        <ele>358.04000000000002</ele>
        <time>2019-04-07T09:39:54Z</time>
      </trkpt>
      <trkpt lat="44.124270156025887" lon="9.716304168105125">
        <ele>358.27999999999997</ele>
        <time>2019-04-07T09:40:07Z</time>
      </trkpt>
      <trkpt lat="44.124303935095668" lon="9.71615974791348">
        <ele>357.36000000000001</ele>
        <time>2019-04-07T09:40:17Z</time>
      </trkpt>
      <trkpt lat="44.124333439394832" lon="9.716017758473754">
        <ele>356.63</ele>
        <time>2019-04-07T09:40:29Z</time>
      </trkpt>
      <trkpt lat="44.124311897903681" lon="9.715910889208317">
        <ele>353.87</ele>
        <time>2019-04-07T09:40:39Z</time>
      </trkpt>
      <trkpt lat="44.124281639233232" lon="9.715732773765922">
        <ele>351.33999999999997</ele>
        <time>2019-04-07T09:40:54Z</time>
      </trkpt>
      <trkpt lat="44.124269904568791" lon="9.715705867856741">
        <ele>350.73000000000002</ele>
        <time>2019-04-07T09:41:04Z</time>
      </trkpt>
      <trkpt lat="44.124281806871295" lon="9.715698575600982">
        <ele>350.99000000000001</ele>
        <time>2019-04-07T09:41:24Z</time>
      </trkpt>
      <trkpt lat="44.124277196824551" lon="9.715700168162584">
        <ele>350.97000000000003</ele>
        <time>2019-04-07T09:41:31Z</time>
      </trkpt>
      <trkpt lat="44.124275101348758" lon="9.715711232274771">
        <ele>349.61000000000001</ele>
        <time>2019-04-07T09:41:43Z</time>
      </trkpt>
      <trkpt lat="44.124276777729392" lon="9.715713746845722">
        <ele>349.06</ele>
        <time>2019-04-07T09:42:07Z</time>
      </trkpt>
      <trkpt lat="44.124269988387823" lon="9.715713076293469">
        <ele>350.38</ele>
        <time>2019-04-07T09:42:17Z</time>
      </trkpt>
      <trkpt lat="44.124280381947756" lon="9.715720452368259">
        <ele>350.25</ele>
        <time>2019-04-07T09:42:34Z</time>
      </trkpt>
      <trkpt lat="44.124281387776136" lon="9.715720284730196">
        <ele>350.13</ele>
        <time>2019-04-07T09:42:49Z</time>
      </trkpt>
      <trkpt lat="44.124278202652931" lon="9.715697569772601">
        <ele>349.97000000000003</ele>
        <time>2019-04-07T09:43:07Z</time>
      </trkpt>
      <trkpt lat="44.12429865449667" lon="9.715689942240715">
        <ele>350.60000000000002</ele>
        <time>2019-04-07T09:43:21Z</time>
      </trkpt>
      <trkpt lat="44.12438222207129" lon="9.715664042159915">
        <ele>353.48000000000002</ele>
        <time>2019-04-07T09:43:33Z</time>
      </trkpt>
      <trkpt lat="44.124397141858935" lon="9.71566622145474">
        <ele>353.94999999999999</ele>
        <time>2019-04-07T09:43:35Z</time>
      </trkpt>
      <trkpt lat="44.124460928142071" lon="9.715674435719848">
        <ele>355.74000000000001</ele>
        <time>2019-04-07T09:43:44Z</time>
      </trkpt>
      <trkpt lat="44.124543908983469" lon="9.715739814564586">
        <ele>358.44999999999999</ele>
        <time>2019-04-07T09:43:56Z</time>
      </trkpt>
      <trkpt lat="44.124556900933385" lon="9.715756913647056">
        <ele>359.02999999999997</ele>
        <time>2019-04-07T09:43:58Z</time>
      </trkpt>
      <trkpt lat="44.124596882611513" lon="9.715799242258072">
        <ele>360.18000000000001</ele>
        <time>2019-04-07T09:44:04Z</time>
      </trkpt>
      <trkpt lat="44.124667877331376" lon="9.715866800397635">
        <ele>362.33999999999997</ele>
        <time>2019-04-07T09:44:16Z</time>
      </trkpt>
      <trkpt lat="44.124725041911006" lon="9.715943746268749">
        <ele>364.13999999999999</ele>
        <time>2019-04-07T09:44:27Z</time>
      </trkpt>
      <trkpt lat="44.124785056337714" lon="9.716038797050715">
        <ele>367.18000000000001</ele>
        <time>2019-04-07T09:44:40Z</time>
      </trkpt>
      <trkpt lat="44.124861247837543" lon="9.716112557798624">
        <ele>369.02999999999997</ele>
        <time>2019-04-07T09:44:53Z</time>
      </trkpt>
      <trkpt lat="44.124917071312666" lon="9.716207440942526">
        <ele>370.68000000000001</ele>
        <time>2019-04-07T09:45:09Z</time>
      </trkpt>
      <trkpt lat="44.12492411211133" lon="9.716221271082759">
        <ele>371.57999999999998</ele>
        <time>2019-04-07T09:45:11Z</time>
      </trkpt>
      <trkpt lat="44.124967698007822" lon="9.716319423168898">
        <ele>372.74000000000001</ele>
        <time>2019-04-07T09:45:25Z</time>
      </trkpt>
      <trkpt lat="44.124991502612829" lon="9.716355549171567">
        <ele>374.66000000000003</ele>
        <time>2019-04-07T09:45:30Z</time>
      </trkpt>
      <trkpt lat="44.125048499554396" lon="9.716444900259376">
        <ele>375.64999999999998</ele>
        <time>2019-04-07T09:45:42Z</time>
      </trkpt>
      <trkpt lat="44.125060569494963" lon="9.716453282162547">
        <ele>375.58999999999997</ele>
        <time>2019-04-07T09:45:58Z</time>
      </trkpt>
      <trkpt lat="44.125089151784778" lon="9.716535173356533">
        <ele>377</ele>
        <time>2019-04-07T09:46:09Z</time>
      </trkpt>
      <trkpt lat="44.125124020501971" lon="9.716585045680404">
        <ele>378.31999999999999</ele>
        <time>2019-04-07T09:46:15Z</time>
      </trkpt>
      <trkpt lat="44.125202810391784" lon="9.716688729822636">
        <ele>379.98000000000002</ele>
        <time>2019-04-07T09:46:26Z</time>
      </trkpt>
      <trkpt lat="44.125250000506639" lon="9.716796185821295">
        <ele>381.64999999999998</ele>
        <time>2019-04-07T09:46:37Z</time>
      </trkpt>
      <trkpt lat="44.125293251127005" lon="9.716844297945499">
        <ele>382.57999999999998</ele>
        <time>2019-04-07T09:46:51Z</time>
      </trkpt>
      <trkpt lat="44.125289395451546" lon="9.716841280460358">
        <ele>382.38</ele>
        <time>2019-04-07T09:47:08Z</time>
      </trkpt>
      <trkpt lat="44.125298364087939" lon="9.71685896627605">
        <ele>382.69</ele>
        <time>2019-04-07T09:47:36Z</time>
      </trkpt>
      <trkpt lat="44.125332981348038" lon="9.716988634318113">
        <ele>384.85000000000002</ele>
        <time>2019-04-07T09:47:49Z</time>
      </trkpt>
      <trkpt lat="44.125367933884263" lon="9.717125175520778">
        <ele>387.36000000000001</ele>
        <time>2019-04-07T09:48:03Z</time>
      </trkpt>
      <trkpt lat="44.125427948310971" lon="9.717234224081039">
        <ele>388.55000000000001</ele>
        <time>2019-04-07T09:48:13Z</time>
      </trkpt>
      <trkpt lat="44.125482765957713" lon="9.717365819960833">
        <ele>391.10000000000002</ele>
        <time>2019-04-07T09:48:26Z</time>
      </trkpt>
      <trkpt lat="44.125547641888261" lon="9.717491045594215">
        <ele>393.5</ele>
        <time>2019-04-07T09:48:39Z</time>
      </trkpt>
      <trkpt lat="44.125628527253866" lon="9.717620965093374">
        <ele>395.95999999999998</ele>
        <time>2019-04-07T09:48:54Z</time>
      </trkpt>
      <trkpt lat="44.125650487840176" lon="9.717763205990195">
        <ele>398.36000000000001</ele>
        <time>2019-04-07T09:49:08Z</time>
      </trkpt>
      <trkpt lat="44.125650320202112" lon="9.717818358913064">
        <ele>400.75999999999999</ele>
        <time>2019-04-07T09:49:23Z</time>
      </trkpt>
      <trkpt lat="44.125604722648859" lon="9.71784551627934">
        <ele>403.73000000000002</ele>
        <time>2019-04-07T09:49:37Z</time>
      </trkpt>
      <trkpt lat="44.125613439828157" lon="9.717957498505712">
        <ele>406.32999999999998</ele>
        <time>2019-04-07T09:49:54Z</time>
      </trkpt>
      <trkpt lat="44.125661719590425" lon="9.718006448820233">
        <ele>407.48000000000002</ele>
        <time>2019-04-07T09:50:07Z</time>
      </trkpt>
      <trkpt lat="44.125683344900608" lon="9.71801801584661">
        <ele>407.68000000000001</ele>
        <time>2019-04-07T09:50:24Z</time>
      </trkpt>
      <trkpt lat="44.125660629943013" lon="9.718002174049616">
        <ele>407.02999999999997</ele>
        <time>2019-04-07T09:50:49Z</time>
      </trkpt>
      <trkpt lat="44.125678483396769" lon="9.718000246211886">
        <ele>408.25</ele>
        <time>2019-04-07T09:51:07Z</time>
      </trkpt>
      <trkpt lat="44.12572399713099" lon="9.718099152669311">
        <ele>410.26999999999998</ele>
        <time>2019-04-07T09:51:21Z</time>
      </trkpt>
      <trkpt lat="44.125745538622141" lon="9.718203423544765">
        <ele>413.38999999999999</ele>
        <time>2019-04-07T09:51:38Z</time>
      </trkpt>
      <trkpt lat="44.125785939395428" lon="9.718325966969132">
        <ele>416.49000000000001</ele>
        <time>2019-04-07T09:51:54Z</time>
      </trkpt>
      <trkpt lat="44.125816617161036" lon="9.718417664989829">
        <ele>418.79000000000002</ele>
        <time>2019-04-07T09:52:09Z</time>
      </trkpt>
      <trkpt lat="44.125858945772052" lon="9.718499891459942">
        <ele>421.10000000000002</ele>
        <time>2019-04-07T09:52:25Z</time>
      </trkpt>
      <trkpt lat="44.125875206664205" lon="9.718578513711691">
        <ele>422.44999999999999</ele>
        <time>2019-04-07T09:52:44Z</time>
      </trkpt>
      <trkpt lat="44.125883672386408" lon="9.718687394633889">
        <ele>425.70999999999998</ele>
        <time>2019-04-07T09:52:59Z</time>
      </trkpt>
      <trkpt lat="44.125945027917624" lon="9.718815889209509">
        <ele>428.20999999999998</ele>
        <time>2019-04-07T09:53:15Z</time>
      </trkpt>
      <trkpt lat="44.126025913283229" lon="9.718897948041558">
        <ele>430.83999999999997</ele>
        <time>2019-04-07T09:53:33Z</time>
      </trkpt>
      <trkpt lat="44.126070672646165" lon="9.719013618305326">
        <ele>434.06999999999999</ele>
        <time>2019-04-07T09:53:48Z</time>
      </trkpt>
      <trkpt lat="44.126127334311604" lon="9.719080422073603">
        <ele>437.02999999999997</ele>
        <time>2019-04-07T09:54:02Z</time>
      </trkpt>
      <trkpt lat="44.126123813912272" lon="9.719116212800145">
        <ele>438.77999999999997</ele>
        <time>2019-04-07T09:54:16Z</time>
      </trkpt>
      <trkpt lat="44.126085424795747" lon="9.719218052923679">
        <ele>441.08999999999997</ele>
        <time>2019-04-07T09:54:31Z</time>
      </trkpt>
      <trkpt lat="44.126120209693909" lon="9.719264656305313">
        <ele>444.41000000000003</ele>
        <time>2019-04-07T09:54:45Z</time>
      </trkpt>
      <trkpt lat="44.126088777557015" lon="9.719289466738701">
        <ele>446.38999999999999</ele>
        <time>2019-04-07T09:55:00Z</time>
      </trkpt>
      <trkpt lat="44.126087855547667" lon="9.719361970201135">
        <ele>449.11000000000001</ele>
        <time>2019-04-07T09:55:14Z</time>
      </trkpt>
      <trkpt lat="44.126121634617448" lon="9.719413099810481">
        <ele>452.26999999999998</ele>
        <time>2019-04-07T09:55:28Z</time>
      </trkpt>
      <trkpt lat="44.126130351796746" lon="9.719450483098626">
        <ele>455.5</ele>
        <time>2019-04-07T09:55:42Z</time>
      </trkpt>
      <trkpt lat="44.126168908551335" lon="9.719509994611144">
        <ele>457.70999999999998</ele>
        <time>2019-04-07T09:55:56Z</time>
      </trkpt>
      <trkpt lat="44.12619648501277" lon="9.719572607427836">
        <ele>460.00999999999999</ele>
        <time>2019-04-07T09:56:11Z</time>
      </trkpt>
      <trkpt lat="44.126206543296576" lon="9.719652319326997">
        <ele>462.24000000000001</ele>
        <time>2019-04-07T09:56:25Z</time>
      </trkpt>
      <trkpt lat="44.126226240769029" lon="9.719737563282251">
        <ele>465</ele>
        <time>2019-04-07T09:56:40Z</time>
      </trkpt>
      <trkpt lat="44.126199502497911" lon="9.719797996804118">
        <ele>465.99000000000001</ele>
        <time>2019-04-07T09:56:56Z</time>
      </trkpt>
      <trkpt lat="44.126197155565023" lon="9.719813838601112">
        <ele>467.94</ele>
        <time>2019-04-07T09:56:58Z</time>
      </trkpt>
      <trkpt lat="44.126190366223454" lon="9.71988751552999">
        <ele>470.99000000000001</ele>
        <time>2019-04-07T09:57:14Z</time>
      </trkpt>
      <trkpt lat="44.12617159076035" lon="9.719984997063875">
        <ele>473.63</ele>
        <time>2019-04-07T09:57:28Z</time>
      </trkpt>
      <trkpt lat="44.126165304332972" lon="9.720130590721965">
        <ele>475.87</ele>
        <time>2019-04-07T09:57:46Z</time>
      </trkpt>
      <trkpt lat="44.126159939914942" lon="9.72025346942246">
        <ele>477.63</ele>
        <time>2019-04-07T09:58:02Z</time>
      </trkpt>
      <trkpt lat="44.126150133088231" lon="9.720333851873875">
        <ele>479.86000000000001</ele>
        <time>2019-04-07T09:58:14Z</time>
      </trkpt>
      <trkpt lat="44.126095063984394" lon="9.7203653678298">
        <ele>482.60000000000002</ele>
        <time>2019-04-07T09:58:29Z</time>
      </trkpt>
      <trkpt lat="44.126014430075884" lon="9.720379952341318">
        <ele>485</ele>
        <time>2019-04-07T09:58:43Z</time>
      </trkpt>
      <trkpt lat="44.126010909676552" lon="9.720486234873533">
        <ele>487.49000000000001</ele>
        <time>2019-04-07T09:58:57Z</time>
      </trkpt>
      <trkpt lat="44.126004204154015" lon="9.7205950319767">
        <ele>489.93000000000001</ele>
        <time>2019-04-07T09:59:11Z</time>
      </trkpt>
      <trkpt lat="44.126002443954349" lon="9.720607353374362">
        <ele>490.11000000000001</ele>
        <time>2019-04-07T09:59:12Z</time>
      </trkpt>
      <trkpt lat="44.125998420640826" lon="9.72063509747386">
        <ele>490.36000000000001</ele>
        <time>2019-04-07T09:59:14Z</time>
      </trkpt>
      <trkpt lat="44.125985344871879" lon="9.720692848786712">
        <ele>490.74000000000001</ele>
        <time>2019-04-07T09:59:18Z</time>
      </trkpt>
      <trkpt lat="44.126005880534649" lon="9.72074506804347">
        <ele>491.26999999999998</ele>
        <time>2019-04-07T09:59:28Z</time>
      </trkpt>
      <trkpt lat="44.126043850556016" lon="9.720757808536291">
        <ele>491.81</ele>
        <time>2019-04-07T09:59:33Z</time>
      </trkpt>
      <trkpt lat="44.126080730929971" lon="9.7208022326231">
        <ele>492.94</ele>
        <time>2019-04-07T09:59:44Z</time>
      </trkpt>
      <trkpt lat="44.126075198873878" lon="9.720795946195722">
        <ele>492.18000000000001</ele>
        <time>2019-04-07T09:59:59Z</time>
      </trkpt>
      <trkpt lat="44.126078635454178" lon="9.72079343162477">
        <ele>492.22000000000003</ele>
        <time>2019-04-07T10:00:16Z</time>
      </trkpt>
      <trkpt lat="44.126075198873878" lon="9.720794940367341">
        <ele>492.07999999999998</ele>
        <time>2019-04-07T10:00:34Z</time>
      </trkpt>
      <trkpt lat="44.126074193045497" lon="9.720783960074186">
        <ele>491.93000000000001</ele>
        <time>2019-04-07T10:00:58Z</time>
      </trkpt>
      <trkpt lat="44.126074779778719" lon="9.720770884305239">
        <ele>491.95999999999998</ele>
        <time>2019-04-07T10:01:50Z</time>
      </trkpt>
      <trkpt lat="44.126082574948668" lon="9.720766944810748">
        <ele>492.64999999999998</ele>
        <time>2019-04-07T10:02:05Z</time>
      </trkpt>
      <trkpt lat="44.126083077862859" lon="9.720777757465839">
        <ele>492.29000000000002</ele>
        <time>2019-04-07T10:02:25Z</time>
      </trkpt>
      <trkpt lat="44.126085005700588" lon="9.720792593434453">
        <ele>492.39999999999998</ele>
        <time>2019-04-07T10:02:42Z</time>
      </trkpt>
      <trkpt lat="44.126085424795747" lon="9.720797371119261">
        <ele>492.68000000000001</ele>
        <time>2019-04-07T10:03:02Z</time>
      </trkpt>
      <trkpt lat="44.126089699566364" lon="9.72078806720674">
        <ele>492.64999999999998</ele>
        <time>2019-04-07T10:03:35Z</time>
      </trkpt>
      <trkpt lat="44.126106631010771" lon="9.72078655846417">
        <ele>493.25999999999999</ele>
        <time>2019-04-07T10:03:55Z</time>
      </trkpt>
      <trkpt lat="44.126112079247832" lon="9.720792006701231">
        <ele>492.93000000000001</ele>
        <time>2019-04-07T10:04:08Z</time>
      </trkpt>
      <trkpt lat="44.126109229400754" lon="9.720808686688542">
        <ele>493.23000000000002</ele>
        <time>2019-04-07T10:04:29Z</time>
      </trkpt>
      <trkpt lat="44.126105541363358" lon="9.720795108005405">
        <ele>493.18000000000001</ele>
        <time>2019-04-07T10:04:47Z</time>
      </trkpt>
      <trkpt lat="44.126107888296247" lon="9.720802148804069">
        <ele>492.98000000000002</ele>
        <time>2019-04-07T10:05:05Z</time>
      </trkpt>
      <trkpt lat="44.126109229400754" lon="9.720801813527942">
        <ele>493.14999999999998</ele>
        <time>2019-04-07T10:05:24Z</time>
      </trkpt>
      <trkpt lat="44.126101350411773" lon="9.720793934538961">
        <ele>493.04000000000002</ele>
        <time>2019-04-07T10:05:42Z</time>
      </trkpt>
      <trkpt lat="44.126100763678551" lon="9.720787899568677">
        <ele>493.08999999999997</ele>
        <time>2019-04-07T10:05:59Z</time>
      </trkpt>
      <trkpt lat="44.126097830012441" lon="9.720785384997726">
        <ele>492.91000000000003</ele>
        <time>2019-04-07T10:06:18Z</time>
      </trkpt>
      <trkpt lat="44.126098081469536" lon="9.72078706137836">
        <ele>492.70999999999998</ele>
        <time>2019-04-07T10:06:37Z</time>
      </trkpt>
      <trkpt lat="44.126099338755012" lon="9.720794353634119">
        <ele>493</ele>
        <time>2019-04-07T10:06:58Z</time>
      </trkpt>
      <trkpt lat="44.12610026076436" lon="9.720797203481197">
        <ele>492.72000000000003</ele>
        <time>2019-04-07T10:07:18Z</time>
      </trkpt>
      <trkpt lat="44.126136638224125" lon="9.720822433009744">
        <ele>493.14999999999998</ele>
        <time>2019-04-07T10:07:32Z</time>
      </trkpt>
      <trkpt lat="44.126161616295576" lon="9.720838693901897">
        <ele>493.70999999999998</ele>
        <time>2019-04-07T10:07:45Z</time>
      </trkpt>
      <trkpt lat="44.126155246049166" lon="9.72083349712193">
        <ele>493.94999999999999</ele>
        <time>2019-04-07T10:07:58Z</time>
      </trkpt>
      <trkpt lat="44.126156084239483" lon="9.720830982550979">
        <ele>493.81999999999999</ele>
        <time>2019-04-07T10:08:12Z</time>
      </trkpt>
      <trkpt lat="44.126157509163022" lon="9.72083249129355">
        <ele>493.86000000000001</ele>
        <time>2019-04-07T10:08:25Z</time>
      </trkpt>
      <trkpt lat="44.126154994592071" lon="9.720834922045469">
        <ele>493.82999999999998</ele>
        <time>2019-04-07T10:08:37Z</time>
      </trkpt>
      <trkpt lat="44.12615742534399" lon="9.720840454101563">
        <ele>493.54000000000002</ele>
        <time>2019-04-07T10:08:58Z</time>
      </trkpt>
      <trkpt lat="44.126166142523289" lon="9.720826288685203">
        <ele>493.72000000000003</ele>
        <time>2019-04-07T10:09:16Z</time>
      </trkpt>
      <trkpt lat="44.126207632943988" lon="9.720842465758324">
        <ele>494</ele>
        <time>2019-04-07T10:09:29Z</time>
      </trkpt>
      <trkpt lat="44.126341072842479" lon="9.720851937308908">
        <ele>495.72000000000003</ele>
        <time>2019-04-07T10:09:45Z</time>
      </trkpt>
      <trkpt lat="44.126491025090218" lon="9.7208505962044">
        <ele>497.26999999999998</ele>
        <time>2019-04-07T10:10:00Z</time>
      </trkpt>
      <trkpt lat="44.126633098348975" lon="9.720829892903566">
        <ele>498.79000000000002</ele>
        <time>2019-04-07T10:10:14Z</time>
      </trkpt>
      <trkpt lat="44.126764191314578" lon="9.72081396728754">
        <ele>500.25</ele>
        <time>2019-04-07T10:10:27Z</time>
      </trkpt>
      <trkpt lat="44.126884052529931" lon="9.720821594819427">
        <ele>500.81</ele>
        <time>2019-04-07T10:10:40Z</time>
      </trkpt>
      <trkpt lat="44.127009613439441" lon="9.720920082181692">
        <ele>502.51999999999998</ele>
        <time>2019-04-07T10:10:55Z</time>
      </trkpt>
      <trkpt lat="44.127015229314566" lon="9.720930811017752">
        <ele>502.44999999999999</ele>
        <time>2019-04-07T10:10:56Z</time>
      </trkpt>
      <trkpt lat="44.127118326723576" lon="9.721066849306226">
        <ele>503.75999999999999</ele>
        <time>2019-04-07T10:11:09Z</time>
      </trkpt>
      <trkpt lat="44.127195775508881" lon="9.721156703308225">
        <ele>504.88</ele>
        <time>2019-04-07T10:11:19Z</time>
      </trkpt>
      <trkpt lat="44.127338100224733" lon="9.721276648342609">
        <ele>505.98000000000002</ele>
        <time>2019-04-07T10:11:33Z</time>
      </trkpt>
      <trkpt lat="44.127562651410699" lon="9.721314115449786">
        <ele>506.91000000000003</ele>
        <time>2019-04-07T10:11:51Z</time>
      </trkpt>
      <trkpt lat="44.127778653055429" lon="9.721282012760639">
        <ele>507.36000000000001</ele>
        <time>2019-04-07T10:12:09Z</time>
      </trkpt>
      <trkpt lat="44.127960624173284" lon="9.721298608928919">
        <ele>507.82999999999998</ele>
        <time>2019-04-07T10:12:24Z</time>
      </trkpt>
      <trkpt lat="44.128101104870439" lon="9.721387205645442">
        <ele>508.10000000000002</ele>
        <time>2019-04-07T10:12:39Z</time>
      </trkpt>
      <trkpt lat="44.128160532563925" lon="9.721437999978662">
        <ele>508.23000000000002</ele>
        <time>2019-04-07T10:12:47Z</time>
      </trkpt>
      <trkpt lat="44.128157095983624" lon="9.721465660259128">
        <ele>508.56</ele>
        <time>2019-04-07T10:12:58Z</time>
      </trkpt>
      <trkpt lat="44.128167741000652" lon="9.721489632502198">
        <ele>508.43000000000001</ele>
        <time>2019-04-07T10:13:16Z</time>
      </trkpt>
      <trkpt lat="44.128170842304826" lon="9.721497008576989">
        <ele>508.60000000000002</ele>
        <time>2019-04-07T10:13:30Z</time>
      </trkpt>
      <trkpt lat="44.128202693536878" lon="9.721571942791343">
        <ele>509.56999999999999</ele>
        <time>2019-04-07T10:13:47Z</time>
      </trkpt>
      <trkpt lat="44.128269413486123" lon="9.72168224863708">
        <ele>512.64999999999998</ele>
        <time>2019-04-07T10:13:59Z</time>
      </trkpt>
      <trkpt lat="44.128318866714835" lon="9.721759865060449">
        <ele>515.36000000000001</ele>
        <time>2019-04-07T10:14:09Z</time>
      </trkpt>
      <trkpt lat="44.128351304680109" lon="9.721812335774303">
        <ele>518.36000000000001</ele>
        <time>2019-04-07T10:14:20Z</time>
      </trkpt>
      <trkpt lat="44.128414588049054" lon="9.721891796216369">
        <ele>521.37</ele>
        <time>2019-04-07T10:14:32Z</time>
      </trkpt>
      <trkpt lat="44.12849010899663" lon="9.721961282193661">
        <ele>522.78999999999996</ele>
        <time>2019-04-07T10:14:43Z</time>
      </trkpt>
      <trkpt lat="44.128544675186276" lon="9.722018446773291">
        <ele>525.64999999999998</ele>
        <time>2019-04-07T10:14:58Z</time>
      </trkpt>
      <trkpt lat="44.128571413457394" lon="9.722131434828043">
        <ele>527.70000000000005</ele>
        <time>2019-04-07T10:15:11Z</time>
      </trkpt>
      <trkpt lat="44.128620363771915" lon="9.722216427326202">
        <ele>530.76999999999998</ele>
        <time>2019-04-07T10:15:25Z</time>
      </trkpt>
      <trkpt lat="44.128625728189945" lon="9.722222546115518">
        <ele>530.55999999999995</ele>
        <time>2019-04-07T10:15:26Z</time>
      </trkpt>
      <trkpt lat="44.128682389855385" lon="9.722279291599989">
        <ele>532.80999999999995</ele>
        <time>2019-04-07T10:15:42Z</time>
      </trkpt>
      <trkpt lat="44.12871927022934" lon="9.722358165308833">
        <ele>535.91999999999996</ele>
        <time>2019-04-07T10:15:56Z</time>
      </trkpt>
      <trkpt lat="44.128778530284762" lon="9.722421700134873">
        <ele>538.59000000000003</ele>
        <time>2019-04-07T10:16:13Z</time>
      </trkpt>
      <trkpt lat="44.128836365416646" lon="9.722503004595637">
        <ele>540.58000000000004</ele>
        <time>2019-04-07T10:16:25Z</time>
      </trkpt>
      <trkpt lat="44.128900906071067" lon="9.722693944349885">
        <ele>542.65999999999997</ele>
        <time>2019-04-07T10:16:40Z</time>
      </trkpt>
      <trkpt lat="44.128965698182583" lon="9.722802909091115">
        <ele>544.74000000000001</ele>
        <time>2019-04-07T10:16:55Z</time>
      </trkpt>
      <trkpt lat="44.129005428403616" lon="9.72289795987308">
        <ele>547.32000000000005</ele>
        <time>2019-04-07T10:17:10Z</time>
      </trkpt>
      <trkpt lat="44.129015654325485" lon="9.722981778904796">
        <ele>548.19000000000005</ele>
        <time>2019-04-07T10:17:18Z</time>
      </trkpt>
      <trkpt lat="44.129033172503114" lon="9.723047912120819">
        <ele>549.20000000000005</ele>
        <time>2019-04-07T10:17:34Z</time>
      </trkpt>
      <trkpt lat="44.129074579104781" lon="9.723035003989935">
        <ele>548.14999999999998</ele>
        <time>2019-04-07T10:17:48Z</time>
      </trkpt>
      <trkpt lat="44.12914733402431" lon="9.723044307902455">
        <ele>547.26999999999998</ele>
        <time>2019-04-07T10:18:01Z</time>
      </trkpt>
      <trkpt lat="44.129225537180901" lon="9.723098538815975">
        <ele>548.38</ele>
        <time>2019-04-07T10:18:17Z</time>
      </trkpt>
      <trkpt lat="44.129317821934819" lon="9.723157798871398">
        <ele>550.75999999999999</ele>
        <time>2019-04-07T10:18:29Z</time>
      </trkpt>
      <trkpt lat="44.129408346489072" lon="9.723156373947859">
        <ele>552.75</ele>
        <time>2019-04-07T10:18:45Z</time>
      </trkpt>
      <trkpt lat="44.129455201327801" lon="9.723129635676742">
        <ele>553.48000000000002</ele>
        <time>2019-04-07T10:18:51Z</time>
      </trkpt>
      <trkpt lat="44.12948839366436" lon="9.723111446946859">
        <ele>553.75</ele>
        <time>2019-04-07T10:18:54Z</time>
      </trkpt>
      <trkpt lat="44.129584785550833" lon="9.723095018416643">
        <ele>555.71000000000004</ele>
        <time>2019-04-07T10:19:06Z</time>
      </trkpt>
      <trkpt lat="44.12968972697854" lon="9.723101556301117">
        <ele>557.04999999999995</ele>
        <time>2019-04-07T10:19:19Z</time>
      </trkpt>
      <trkpt lat="44.129809001460671" lon="9.723143884912133">
        <ele>558.88</ele>
        <time>2019-04-07T10:19:35Z</time>
      </trkpt>
      <trkpt lat="44.129916541278362" lon="9.723075572401285">
        <ele>560.53999999999996</ele>
        <time>2019-04-07T10:19:50Z</time>
      </trkpt>
      <trkpt lat="44.130024584010243" lon="9.722982784733176">
        <ele>563.08000000000004</ele>
        <time>2019-04-07T10:20:06Z</time>
      </trkpt>
      <trkpt lat="44.130070935934782" lon="9.722776003181934">
        <ele>564.74000000000001</ele>
        <time>2019-04-07T10:20:21Z</time>
      </trkpt>
      <trkpt lat="44.130094321444631" lon="9.722629403695464">
        <ele>565.05999999999995</ele>
        <time>2019-04-07T10:20:33Z</time>
      </trkpt>
      <trkpt lat="44.130167495459318" lon="9.72256469540298">
        <ele>566.11000000000001</ele>
        <time>2019-04-07T10:20:45Z</time>
      </trkpt>
      <trkpt lat="44.130221055820584" lon="9.722591433674097">
        <ele>568.94000000000005</ele>
        <time>2019-04-07T10:20:59Z</time>
      </trkpt>
      <trkpt lat="44.130318202078342" lon="9.722508536651731">
        <ele>570.83000000000004</ele>
        <time>2019-04-07T10:21:16Z</time>
      </trkpt>
      <trkpt lat="44.130380395799875" lon="9.722360847517848">
        <ele>572.58000000000004</ele>
        <time>2019-04-07T10:21:32Z</time>
      </trkpt>
      <trkpt lat="44.13046957924962" lon="9.722214583307505">
        <ele>574.12</ele>
        <time>2019-04-07T10:21:49Z</time>
      </trkpt>
      <trkpt lat="44.130585584789515" lon="9.72219136543572">
        <ele>575.84000000000003</ele>
        <time>2019-04-07T10:22:03Z</time>
      </trkpt>
      <trkpt lat="44.13062003441155" lon="9.722160855308175">
        <ele>577.67999999999995</ele>
        <time>2019-04-07T10:22:08Z</time>
      </trkpt>
      <trkpt lat="44.130654400214553" lon="9.722060104832053">
        <ele>578.03999999999996</ele>
        <time>2019-04-07T10:22:20Z</time>
      </trkpt>
      <trkpt lat="44.13068750873208" lon="9.721977626904845">
        <ele>579.46000000000004</ele>
        <time>2019-04-07T10:22:32Z</time>
      </trkpt>
      <trkpt lat="44.13077887147665" lon="9.721932532265782">
        <ele>580.90999999999997</ele>
        <time>2019-04-07T10:22:50Z</time>
      </trkpt>
      <trkpt lat="44.130859170109034" lon="9.721886347979307">
        <ele>584.36000000000001</ele>
        <time>2019-04-07T10:23:02Z</time>
      </trkpt>
      <trkpt lat="44.130962183699012" lon="9.721804792061448">
        <ele>585.79999999999995</ele>
        <time>2019-04-07T10:23:16Z</time>
      </trkpt>
      <trkpt lat="44.131059078499675" lon="9.721800182014704">
        <ele>586.87</ele>
        <time>2019-04-07T10:23:27Z</time>
      </trkpt>
      <trkpt lat="44.131170809268951" lon="9.721771012991667">
        <ele>588.00999999999999</ele>
        <time>2019-04-07T10:23:40Z</time>
      </trkpt>
      <trkpt lat="44.131286982446909" lon="9.721766570582986">
        <ele>589.38</ele>
        <time>2019-04-07T10:23:54Z</time>
      </trkpt>
      <trkpt lat="44.131421176716685" lon="9.721694905310869">
        <ele>590.91999999999996</ele>
        <time>2019-04-07T10:24:09Z</time>
      </trkpt>
      <trkpt lat="44.131527207791805" lon="9.721662634983659">
        <ele>592.22000000000003</ele>
        <time>2019-04-07T10:24:22Z</time>
      </trkpt>
      <trkpt lat="44.131637178361416" lon="9.721542438492179">
        <ele>594.38</ele>
        <time>2019-04-07T10:24:36Z</time>
      </trkpt>
      <trkpt lat="44.131718399003148" lon="9.721450321376324">
        <ele>595.23000000000002</ele>
        <time>2019-04-07T10:24:47Z</time>
      </trkpt>
      <trkpt lat="44.131762320175767" lon="9.721294501796365">
        <ele>596.17999999999995</ele>
        <time>2019-04-07T10:25:00Z</time>
      </trkpt>
      <trkpt lat="44.13181914947927" lon="9.721176819875836">
        <ele>598.32000000000005</ele>
        <time>2019-04-07T10:25:15Z</time>
      </trkpt>
      <trkpt lat="44.13187094964087" lon="9.721068274229765">
        <ele>600.57000000000005</ele>
        <time>2019-04-07T10:25:30Z</time>
      </trkpt>
      <trkpt lat="44.13194864988327" lon="9.720965344458818">
        <ele>601.27999999999997</ele>
        <time>2019-04-07T10:25:43Z</time>
      </trkpt>
      <trkpt lat="44.131987290456891" lon="9.720915723592043">
        <ele>602.52999999999997</ele>
        <time>2019-04-07T10:25:50Z</time>
      </trkpt>
      <trkpt lat="44.132002713158727" lon="9.720812877640128">
        <ele>602.30999999999995</ele>
        <time>2019-04-07T10:26:02Z</time>
      </trkpt>
      <trkpt lat="44.132011095061898" lon="9.72077876329422">
        <ele>602.38</ele>
        <time>2019-04-07T10:26:05Z</time>
      </trkpt>
      <trkpt lat="44.132090639322996" lon="9.720667786896229">
        <ele>602.53999999999996</ele>
        <time>2019-04-07T10:26:18Z</time>
      </trkpt>
      <trkpt lat="44.13218661211431" lon="9.720622943714261">
        <ele>604.19000000000005</ele>
        <time>2019-04-07T10:26:30Z</time>
      </trkpt>
      <trkpt lat="44.132193317636847" lon="9.720621183514595">
        <ele>604.21000000000004</ele>
        <time>2019-04-07T10:26:31Z</time>
      </trkpt>
      <trkpt lat="44.132244111970067" lon="9.720611125230789">
        <ele>604.19000000000005</ele>
        <time>2019-04-07T10:26:37Z</time>
      </trkpt>
      <trkpt lat="44.132331619039178" lon="9.720513727515936">
        <ele>605.13999999999999</ele>
        <time>2019-04-07T10:26:49Z</time>
      </trkpt>
      <trkpt lat="44.132378306239843" lon="9.720373246818781">
        <ele>606.77999999999997</ele>
        <time>2019-04-07T10:27:02Z</time>
      </trkpt>
      <trkpt lat="44.13237621076405" lon="9.720213320106268">
        <ele>607.58000000000004</ele>
        <time>2019-04-07T10:27:14Z</time>
      </trkpt>
      <trkpt lat="44.13236640393734" lon="9.720113407820463">
        <ele>607.88999999999999</ele>
        <time>2019-04-07T10:27:21Z</time>
      </trkpt>
      <trkpt lat="44.132394399493933" lon="9.719952391460538">
        <ele>607.85000000000002</ele>
        <time>2019-04-07T10:27:33Z</time>
      </trkpt>
      <trkpt lat="44.132396746426821" lon="9.719926742836833">
        <ele>607.86000000000001</ele>
        <time>2019-04-07T10:27:35Z</time>
      </trkpt>
      <trkpt lat="44.13239766843617" lon="9.719879971817136">
        <ele>607.62</ele>
        <time>2019-04-07T10:27:39Z</time>
      </trkpt>
      <trkpt lat="44.132414851337671" lon="9.719730019569397">
        <ele>607.82000000000005</ele>
        <time>2019-04-07T10:27:51Z</time>
      </trkpt>
      <trkpt lat="44.132453743368387" lon="9.719616277143359">
        <ele>608.13</ele>
        <time>2019-04-07T10:28:01Z</time>
      </trkpt>
      <trkpt lat="44.13251836784184" lon="9.719488536939025">
        <ele>608.38999999999999</ele>
        <time>2019-04-07T10:28:13Z</time>
      </trkpt>
      <trkpt lat="44.132610652595758" lon="9.719366580247879">
        <ele>608.80999999999995</ele>
        <time>2019-04-07T10:28:26Z</time>
      </trkpt>
      <trkpt lat="44.132716432213783" lon="9.719163989648223">
        <ele>608.11000000000001</ele>
        <time>2019-04-07T10:28:41Z</time>
      </trkpt>
      <trkpt lat="44.132784074172378" lon="9.719022922217846">
        <ele>607.85000000000002</ele>
        <time>2019-04-07T10:28:51Z</time>
      </trkpt>
      <trkpt lat="44.132873089984059" lon="9.718879759311676">
        <ele>607.80999999999995</ele>
        <time>2019-04-07T10:29:03Z</time>
      </trkpt>
      <trkpt lat="44.132973086088896" lon="9.718715809285641">
        <ele>607.38</ele>
        <time>2019-04-07T10:29:17Z</time>
      </trkpt>
      <trkpt lat="44.133053384721279" lon="9.718590416014195">
        <ele>606.96000000000004</ele>
        <time>2019-04-07T10:29:29Z</time>
      </trkpt>
      <trkpt lat="44.133091103285551" lon="9.718541633337736">
        <ele>606.79999999999995</ele>
        <time>2019-04-07T10:29:35Z</time>
      </trkpt>
      <trkpt lat="44.133106609806418" lon="9.718520259484649">
        <ele>606.63</ele>
        <time>2019-04-07T10:29:37Z</time>
      </trkpt>
      <trkpt lat="44.133146842941642" lon="9.718466028571129">
        <ele>606.45000000000005</ele>
        <time>2019-04-07T10:29:42Z</time>
      </trkpt>
      <trkpt lat="44.133248012512922" lon="9.718314651399851">
        <ele>606.19000000000005</ele>
        <time>2019-04-07T10:29:56Z</time>
      </trkpt>
      <trkpt lat="44.133338453248143" lon="9.718162268400192">
        <ele>606.05999999999995</ele>
        <time>2019-04-07T10:30:09Z</time>
      </trkpt>
      <trkpt lat="44.133383547887206" lon="9.718072582036257">
        <ele>605.90999999999997</ele>
        <time>2019-04-07T10:30:16Z</time>
      </trkpt>
      <trkpt lat="44.133493434637785" lon="9.717970909550786">
        <ele>605.01999999999998</ele>
        <time>2019-04-07T10:30:28Z</time>
      </trkpt>
      <trkpt lat="44.133578175678849" lon="9.717846857383847">
        <ele>604.30999999999995</ele>
        <time>2019-04-07T10:30:39Z</time>
      </trkpt>
      <trkpt lat="44.133647326380014" lon="9.717648541554809">
        <ele>602.77999999999997</ele>
        <time>2019-04-07T10:30:52Z</time>
      </trkpt>
      <trkpt lat="44.133647326380014" lon="9.717387529090047">
        <ele>602.99000000000001</ele>
        <time>2019-04-07T10:31:07Z</time>
      </trkpt>
      <trkpt lat="44.133597118780017" lon="9.717207401990891">
        <ele>603.34000000000003</ele>
        <time>2019-04-07T10:31:20Z</time>
      </trkpt>
      <trkpt lat="44.133508019149303" lon="9.717078320682049">
        <ele>604.72000000000003</ele>
        <time>2019-04-07T10:31:34Z</time>
      </trkpt>
      <trkpt lat="44.133463427424431" lon="9.716983018442988">
        <ele>605.66999999999996</ele>
        <time>2019-04-07T10:31:45Z</time>
      </trkpt>
      <trkpt lat="44.133426798507571" lon="9.716940270736814">
        <ele>605.69000000000005</ele>
        <time>2019-04-07T10:31:50Z</time>
      </trkpt>
      <trkpt lat="44.133365694433451" lon="9.716775650158525">
        <ele>606.30999999999995</ele>
        <time>2019-04-07T10:32:03Z</time>
      </trkpt>
      <trkpt lat="44.133297549560666" lon="9.716651597991586">
        <ele>606.54999999999995</ele>
        <time>2019-04-07T10:32:15Z</time>
      </trkpt>
      <trkpt lat="44.133242564275861" lon="9.716548165306449">
        <ele>606.91999999999996</ele>
        <time>2019-04-07T10:32:24Z</time>
      </trkpt>
      <trkpt lat="44.133219262585044" lon="9.716508099809289">
        <ele>607.05999999999995</ele>
        <time>2019-04-07T10:32:27Z</time>
      </trkpt>
      <trkpt lat="44.133148770779371" lon="9.716339958831668">
        <ele>607.98000000000002</ele>
        <time>2019-04-07T10:32:40Z</time>
      </trkpt>
      <trkpt lat="44.133098563179374" lon="9.716177769005299">
        <ele>609.80999999999995</ele>
        <time>2019-04-07T10:32:53Z</time>
      </trkpt>
      <trkpt lat="44.133082218468189" lon="9.716032259166241">
        <ele>610.29999999999995</ele>
        <time>2019-04-07T10:33:04Z</time>
      </trkpt>
      <trkpt lat="44.133076183497906" lon="9.715995714068413">
        <ele>610.07000000000005</ele>
        <time>2019-04-07T10:33:13Z</time>
      </trkpt>
      <trkpt lat="44.133083391934633" lon="9.716006694361568">
        <ele>610.15999999999997</ele>
        <time>2019-04-07T10:33:23Z</time>
      </trkpt>
      <trkpt lat="44.133088756352663" lon="9.71599604934454">
        <ele>610.20000000000005</ele>
        <time>2019-04-07T10:33:36Z</time>
      </trkpt>
      <trkpt lat="44.133069645613432" lon="9.716049525886774">
        <ele>610.26999999999998</ele>
        <time>2019-04-07T10:33:44Z</time>
      </trkpt>
      <trkpt lat="44.133070819079876" lon="9.716090764850378">
        <ele>610.12</ele>
        <time>2019-04-07T10:33:47Z</time>
      </trkpt>
      <trkpt lat="44.133077105507255" lon="9.716151366010308">
        <ele>609.92999999999995</ele>
        <time>2019-04-07T10:33:51Z</time>
      </trkpt>
      <trkpt lat="44.133081128820777" lon="9.71624281257391">
        <ele>609.53999999999996</ele>
        <time>2019-04-07T10:34:03Z</time>
      </trkpt>
      <trkpt lat="44.133097808808088" lon="9.716331912204623">
        <ele>608.25999999999999</ele>
        <time>2019-04-07T10:34:14Z</time>
      </trkpt>
      <trkpt lat="44.133122283965349" lon="9.716370217502117">
        <ele>607.52999999999997</ele>
        <time>2019-04-07T10:34:19Z</time>
      </trkpt>
      <trkpt lat="44.133162936195731" lon="9.71643534488976">
        <ele>607.02999999999997</ele>
        <time>2019-04-07T10:34:25Z</time>
      </trkpt>
      <trkpt lat="44.133213395252824" lon="9.716541040688753">
        <ele>606.46000000000004</ele>
        <time>2019-04-07T10:34:35Z</time>
      </trkpt>
      <trkpt lat="44.133241474628448" lon="9.716579178348184">
        <ele>606.04999999999995</ele>
        <time>2019-04-07T10:34:40Z</time>
      </trkpt>
      <trkpt lat="44.133272152394056" lon="9.716617316007614">
        <ele>605.60000000000002</ele>
        <time>2019-04-07T10:34:43Z</time>
      </trkpt>
      <trkpt lat="44.133304338902235" lon="9.71666794270277">
        <ele>605.75999999999999</ele>
        <time>2019-04-07T10:34:47Z</time>
      </trkpt>
      <trkpt lat="44.133331831544638" lon="9.71671630628407">
        <ele>605.69000000000005</ele>
        <time>2019-04-07T10:34:51Z</time>
      </trkpt>
      <trkpt lat="44.13338958285749" lon="9.716858882457018">
        <ele>604.62</ele>
        <time>2019-04-07T10:35:02Z</time>
      </trkpt>
      <trkpt lat="44.133448004722595" lon="9.716955358162522">
        <ele>604.38</ele>
        <time>2019-04-07T10:35:11Z</time>
      </trkpt>
      <trkpt lat="44.133459655568004" lon="9.716984275728464">
        <ele>604.12</ele>
        <time>2019-04-07T10:35:13Z</time>
      </trkpt>
      <trkpt lat="44.13354012183845" lon="9.717097179964185">
        <ele>602.99000000000001</ele>
        <time>2019-04-07T10:35:23Z</time>
      </trkpt>
      <trkpt lat="44.133594436571002" lon="9.717194577679038">
        <ele>602.03999999999996</ele>
        <time>2019-04-07T10:35:31Z</time>
      </trkpt>
      <trkpt lat="44.133606506511569" lon="9.717222573235631">
        <ele>601.92999999999995</ele>
        <time>2019-04-07T10:35:33Z</time>
      </trkpt>
      <trkpt lat="44.133667442947626" lon="9.717434803023934">
        <ele>601.53999999999996</ele>
        <time>2019-04-07T10:35:47Z</time>
      </trkpt>
      <trkpt lat="44.133685380220413" lon="9.717601435258985">
        <ele>601.30999999999995</ele>
        <time>2019-04-07T10:36:02Z</time>
      </trkpt>
      <trkpt lat="44.133688900619745" lon="9.717600177973509">
        <ele>600.94000000000005</ele>
        <time>2019-04-07T10:36:16Z</time>
      </trkpt>
      <trkpt lat="44.133654115721583" lon="9.717697743326426">
        <ele>601.37</ele>
        <time>2019-04-07T10:36:28Z</time>
      </trkpt>
      <trkpt lat="44.13359041325748" lon="9.717842331156135">
        <ele>602.25</ele>
        <time>2019-04-07T10:36:43Z</time>
      </trkpt>
      <trkpt lat="44.133519167080522" lon="9.717939896509051">
        <ele>603.13</ele>
        <time>2019-04-07T10:36:55Z</time>
      </trkpt>
      <trkpt lat="44.13350148126483" lon="9.717960096895695">
        <ele>603.02999999999997</ele>
        <time>2019-04-07T10:37:15Z</time>
      </trkpt>
      <trkpt lat="44.133495530113578" lon="9.717981889843941">
        <ele>603.05999999999995</ele>
        <time>2019-04-07T10:37:39Z</time>
      </trkpt>
      <trkpt lat="44.133511539548635" lon="9.717958001419902">
        <ele>602.45000000000005</ele>
        <time>2019-04-07T10:37:53Z</time>
      </trkpt>
      <trkpt lat="44.133529560640454" lon="9.71793151460588">
        <ele>602.53999999999996</ele>
        <time>2019-04-07T10:37:56Z</time>
      </trkpt>
      <trkpt lat="44.133613128215075" lon="9.717820370569825">
        <ele>601.27999999999997</ele>
        <time>2019-04-07T10:38:07Z</time>
      </trkpt>
      <trkpt lat="44.133631736040115" lon="9.717770582064986">
        <ele>600.79999999999995</ele>
        <time>2019-04-07T10:38:11Z</time>
      </trkpt>
      <trkpt lat="44.133669035509229" lon="9.717560531571508">
        <ele>600.63999999999999</ele>
        <time>2019-04-07T10:38:23Z</time>
      </trkpt>
      <trkpt lat="44.133644225075841" lon="9.717276385053992">
        <ele>601.16999999999996</ele>
        <time>2019-04-07T10:38:39Z</time>
      </trkpt>
      <trkpt lat="44.133629472926259" lon="9.717221818864346">
        <ele>601.20000000000005</ele>
        <time>2019-04-07T10:38:43Z</time>
      </trkpt>
      <trkpt lat="44.133559819310904" lon="9.717128360643983">
        <ele>602.49000000000001</ele>
        <time>2019-04-07T10:38:54Z</time>
      </trkpt>
      <trkpt lat="44.133525537326932" lon="9.717062897980213">
        <ele>603.38999999999999</ele>
        <time>2019-04-07T10:39:01Z</time>
      </trkpt>
      <trkpt lat="44.133464181795716" lon="9.716947982087731">
        <ele>604.02999999999997</ele>
        <time>2019-04-07T10:39:12Z</time>
      </trkpt>
      <trkpt lat="44.133405676111579" lon="9.716760478913784">
        <ele>604.44000000000005</ele>
        <time>2019-04-07T10:39:23Z</time>
      </trkpt>
      <trkpt lat="44.133331999182701" lon="9.716621842235327">
        <ele>604.51999999999998</ele>
        <time>2019-04-07T10:39:33Z</time>
      </trkpt>
      <trkpt lat="44.133244743570685" lon="9.716460155323148">
        <ele>604.98000000000002</ele>
        <time>2019-04-07T10:39:44Z</time>
      </trkpt>
      <trkpt lat="44.133235774934292" lon="9.716445738449693">
        <ele>605.13</ele>
        <time>2019-04-07T10:39:45Z</time>
      </trkpt>
      <trkpt lat="44.133215323090553" lon="9.716382957994938">
        <ele>605.50999999999999</ele>
        <time>2019-04-07T10:39:49Z</time>
      </trkpt>
      <trkpt lat="44.133174754679203" lon="9.716229569166899">
        <ele>606.98000000000002</ele>
        <time>2019-04-07T10:40:01Z</time>
      </trkpt>
      <trkpt lat="44.133138041943312" lon="9.716054303571582">
        <ele>607.87</ele>
        <time>2019-04-07T10:40:14Z</time>
      </trkpt>
      <trkpt lat="44.133135695010424" lon="9.715962689369917">
        <ele>607.41999999999996</ele>
        <time>2019-04-07T10:40:21Z</time>
      </trkpt>
      <trkpt lat="44.133134605363011" lon="9.715937459841371">
        <ele>607.27999999999997</ele>
        <time>2019-04-07T10:40:23Z</time>
      </trkpt>
      <trkpt lat="44.133178358897567" lon="9.715776443481445">
        <ele>605.26999999999998</ele>
        <time>2019-04-07T10:40:35Z</time>
      </trkpt>
      <trkpt lat="44.133218424394727" lon="9.715568656101823">
        <ele>602.87</ele>
        <time>2019-04-07T10:40:48Z</time>
      </trkpt>
      <trkpt lat="44.133239965885878" lon="9.715363970026374">
        <ele>601.08000000000004</ele>
        <time>2019-04-07T10:41:03Z</time>
      </trkpt>
      <trkpt lat="44.133299980312586" lon="9.715098263695836">
        <ele>600.57000000000005</ele>
        <time>2019-04-07T10:41:18Z</time>
      </trkpt>
      <trkpt lat="44.133306769654155" lon="9.715070184320211">
        <ele>599.74000000000001</ele>
        <time>2019-04-07T10:41:20Z</time>
      </trkpt>
      <trkpt lat="44.133357396349311" lon="9.714958369731903">
        <ele>599.5</ele>
        <time>2019-04-07T10:41:28Z</time>
      </trkpt>
      <trkpt lat="44.13338421843946" lon="9.714912520721555">
        <ele>599.38999999999999</ele>
        <time>2019-04-07T10:41:32Z</time>
      </trkpt>
      <trkpt lat="44.133407101035118" lon="9.71486683934927">
        <ele>599.24000000000001</ele>
        <time>2019-04-07T10:41:35Z</time>
      </trkpt>
      <trkpt lat="44.133547162637115" lon="9.714757539331913">
        <ele>598.12</ele>
        <time>2019-04-07T10:41:49Z</time>
      </trkpt>
      <trkpt lat="44.133698958903551" lon="9.714650586247444">
        <ele>596.77999999999997</ele>
        <time>2019-04-07T10:42:02Z</time>
      </trkpt>
      <trkpt lat="44.133824268355966" lon="9.714541034772992">
        <ele>594.88</ele>
        <time>2019-04-07T10:42:13Z</time>
      </trkpt>
      <trkpt lat="44.133900040760636" lon="9.714477248489857">
        <ele>593.04999999999995</ele>
        <time>2019-04-07T10:42:21Z</time>
      </trkpt>
      <trkpt lat="44.134047226980329" lon="9.714390747249126">
        <ele>590.05999999999995</ele>
        <time>2019-04-07T10:42:34Z</time>
      </trkpt>
      <trkpt lat="44.13407513871789" lon="9.714380856603384">
        <ele>589.40999999999997</ele>
        <time>2019-04-07T10:42:37Z</time>
      </trkpt>
      <trkpt lat="44.134114952757955" lon="9.714368535205722">
        <ele>588.50999999999999</ele>
        <time>2019-04-07T10:42:41Z</time>
      </trkpt>
      <trkpt lat="44.134167088195682" lon="9.714332157745957">
        <ele>587.28999999999996</ele>
        <time>2019-04-07T10:42:47Z</time>
      </trkpt>
      <trkpt lat="44.134174380451441" lon="9.714264767244458">
        <ele>587.16999999999996</ele>
        <time>2019-04-07T10:42:51Z</time>
      </trkpt>
      <trkpt lat="44.134115455672145" lon="9.714048178866506">
        <ele>586.58000000000004</ele>
        <time>2019-04-07T10:43:04Z</time>
      </trkpt>
      <trkpt lat="44.134110007435083" lon="9.71403032541275">
        <ele>586.64999999999998</ele>
        <time>2019-04-07T10:43:05Z</time>
      </trkpt>
      <trkpt lat="44.134005736559629" lon="9.713838379830122">
        <ele>585.26999999999998</ele>
        <time>2019-04-07T10:43:19Z</time>
      </trkpt>
      <trkpt lat="44.13394077681005" lon="9.71369169652462">
        <ele>584.48000000000002</ele>
        <time>2019-04-07T10:43:31Z</time>
      </trkpt>
      <trkpt lat="44.133879840373993" lon="9.713585497811437">
        <ele>584.36000000000001</ele>
        <time>2019-04-07T10:43:41Z</time>
      </trkpt>
      <trkpt lat="44.133845726028085" lon="9.713531769812107">
        <ele>584.13</ele>
        <time>2019-04-07T10:43:45Z</time>
      </trkpt>
      <trkpt lat="44.133694851770997" lon="9.713424481451511">
        <ele>583.53999999999996</ele>
        <time>2019-04-07T10:43:57Z</time>
      </trkpt>
      <trkpt lat="44.133581025525928" lon="9.713388523086906">
        <ele>581.92999999999995</ele>
        <time>2019-04-07T10:44:06Z</time>
      </trkpt>
      <trkpt lat="44.133545653894544" lon="9.713378632441163">
        <ele>581.29999999999995</ele>
        <time>2019-04-07T10:44:09Z</time>
      </trkpt>
      <trkpt lat="44.133397964760661" lon="9.713335130363703">
        <ele>578.08000000000004</ele>
        <time>2019-04-07T10:44:22Z</time>
      </trkpt>
      <trkpt lat="44.133251365274191" lon="9.71324510872364">
        <ele>574.87</ele>
        <time>2019-04-07T10:44:34Z</time>
      </trkpt>
      <trkpt lat="44.133167127147317" lon="9.713073112070561">
        <ele>571.79999999999995</ele>
        <time>2019-04-07T10:44:47Z</time>
      </trkpt>
      <trkpt lat="44.13314675912261" lon="9.712962806224823">
        <ele>569.37</ele>
        <time>2019-04-07T10:44:58Z</time>
      </trkpt>
      <trkpt lat="44.133128151297569" lon="9.712764909490943">
        <ele>566.23000000000002</ele>
        <time>2019-04-07T10:45:12Z</time>
      </trkpt>
      <trkpt lat="44.133135946467519" lon="9.712547147646546">
        <ele>563.09000000000003</ele>
        <time>2019-04-07T10:45:27Z</time>
      </trkpt>
      <trkpt lat="44.13312572054565" lon="9.71243005245924">
        <ele>561.26999999999998</ele>
        <time>2019-04-07T10:45:35Z</time>
      </trkpt>
      <trkpt lat="44.133148100227118" lon="9.712230060249567">
        <ele>557.88999999999999</ele>
        <time>2019-04-07T10:45:48Z</time>
      </trkpt>
      <trkpt lat="44.133159751072526" lon="9.712057560682297">
        <ele>555.64999999999998</ele>
        <time>2019-04-07T10:46:00Z</time>
      </trkpt>
      <trkpt lat="44.133183555677533" lon="9.711852623149753">
        <ele>553.17999999999995</ele>
        <time>2019-04-07T10:46:13Z</time>
      </trkpt>
      <trkpt lat="44.133251700550318" lon="9.711623042821884">
        <ele>550.13</ele>
        <time>2019-04-07T10:46:29Z</time>
      </trkpt>
      <trkpt lat="44.133277600631118" lon="9.711457919329405">
        <ele>546.96000000000004</ele>
        <time>2019-04-07T10:46:42Z</time>
      </trkpt>
      <trkpt lat="44.133274080231786" lon="9.711374938488007">
        <ele>545.16999999999996</ele>
        <time>2019-04-07T10:46:50Z</time>
      </trkpt>
      <trkpt lat="44.133272403851151" lon="9.711282402276993">
        <ele>543.09000000000003</ele>
        <time>2019-04-07T10:47:02Z</time>
      </trkpt>
      <trkpt lat="44.133267961442471" lon="9.711178047582507">
        <ele>539.88</ele>
        <time>2019-04-07T10:47:14Z</time>
      </trkpt>
      <trkpt lat="44.13328355178237" lon="9.711046870797873">
        <ele>537.17999999999995</ele>
        <time>2019-04-07T10:47:26Z</time>
      </trkpt>
      <trkpt lat="44.133308865129948" lon="9.710905468091369">
        <ele>534.16999999999996</ele>
        <time>2019-04-07T10:47:38Z</time>
      </trkpt>
      <trkpt lat="44.133338537067175" lon="9.710784265771508">
        <ele>531.41999999999996</ele>
        <time>2019-04-07T10:47:51Z</time>
      </trkpt>
      <trkpt lat="44.133342644199729" lon="9.710734896361828">
        <ele>530.25</ele>
        <time>2019-04-07T10:48:03Z</time>
      </trkpt>
      <trkpt lat="44.133327305316925" lon="9.710707319900394">
        <ele>529.62</ele>
        <time>2019-04-07T10:48:15Z</time>
      </trkpt>
      <trkpt lat="44.133323030546308" lon="9.710619058459997">
        <ele>527.96000000000004</ele>
        <time>2019-04-07T10:48:28Z</time>
      </trkpt>
      <trkpt lat="44.133333591744304" lon="9.710520738735795">
        <ele>526.26999999999998</ele>
        <time>2019-04-07T10:48:37Z</time>
      </trkpt>
      <trkpt lat="44.133363263681531" lon="9.710425352677703">
        <ele>524.40999999999997</ele>
        <time>2019-04-07T10:48:45Z</time>
      </trkpt>
      <trkpt lat="44.133394528180361" lon="9.710323847830296">
        <ele>522.44000000000005</ele>
        <time>2019-04-07T10:48:53Z</time>
      </trkpt>
      <trkpt lat="44.133418835699558" lon="9.710136679932475">
        <ele>519.28999999999996</ele>
        <time>2019-04-07T10:49:08Z</time>
      </trkpt>
      <trkpt lat="44.133422020822763" lon="9.710127543658018">
        <ele>519.47000000000003</ele>
        <time>2019-04-07T10:49:09Z</time>
      </trkpt>
      <trkpt lat="44.133463092148304" lon="9.709972143173218">
        <ele>517.75999999999999</ele>
        <time>2019-04-07T10:49:21Z</time>
      </trkpt>
      <trkpt lat="44.133503241464496" lon="9.709727810695767">
        <ele>516.16999999999996</ele>
        <time>2019-04-07T10:49:37Z</time>
      </trkpt>
      <trkpt lat="44.133545234799385" lon="9.709470234811306">
        <ele>513.05999999999995</ele>
        <time>2019-04-07T10:49:54Z</time>
      </trkpt>
      <trkpt lat="44.133485136553645" lon="9.709298741072416">
        <ele>510.18000000000001</ele>
        <time>2019-04-07T10:50:07Z</time>
      </trkpt>
      <trkpt lat="44.133419841527939" lon="9.709125403314829">
        <ele>507.00999999999999</ele>
        <time>2019-04-07T10:50:21Z</time>
      </trkpt>
      <trkpt lat="44.133404418826103" lon="9.708962123841047">
        <ele>503.98000000000002</ele>
        <time>2019-04-07T10:50:32Z</time>
      </trkpt>
      <trkpt lat="44.133377261459827" lon="9.708822062239051">
        <ele>501.61000000000001</ele>
        <time>2019-04-07T10:50:44Z</time>
      </trkpt>
      <trkpt lat="44.133363263681531" lon="9.708784092217684">
        <ele>500.99000000000001</ele>
        <time>2019-04-07T10:50:47Z</time>
      </trkpt>
      <trkpt lat="44.133314145728946" lon="9.70859139226377">
        <ele>497.81</ele>
        <time>2019-04-07T10:51:00Z</time>
      </trkpt>
      <trkpt lat="44.133271984755993" lon="9.708448648452759">
        <ele>494.83999999999997</ele>
        <time>2019-04-07T10:51:11Z</time>
      </trkpt>
      <trkpt lat="44.133224627003074" lon="9.708289559930563">
        <ele>491.74000000000001</ele>
        <time>2019-04-07T10:51:23Z</time>
      </trkpt>
      <trkpt lat="44.133186154067516" lon="9.708130303770304">
        <ele>488.30000000000001</ele>
        <time>2019-04-07T10:51:36Z</time>
      </trkpt>
      <trkpt lat="44.133159248158336" lon="9.707923186942935">
        <ele>485.47000000000003</ele>
        <time>2019-04-07T10:51:50Z</time>
      </trkpt>
      <trkpt lat="44.133111471310258" lon="9.707717578858137">
        <ele>482.10000000000002</ele>
        <time>2019-04-07T10:52:05Z</time>
      </trkpt>
      <trkpt lat="44.13303435780108" lon="9.707535272464156">
        <ele>479.10000000000002</ele>
        <time>2019-04-07T10:52:19Z</time>
      </trkpt>
      <trkpt lat="44.132933523505926" lon="9.707386996597052">
        <ele>475.98000000000002</ele>
        <time>2019-04-07T10:52:33Z</time>
      </trkpt>
      <trkpt lat="44.132826905697584" lon="9.707291023805738">
        <ele>472.93000000000001</ele>
        <time>2019-04-07T10:52:45Z</time>
      </trkpt>
      <trkpt lat="44.132704613730311" lon="9.707176275551319">
        <ele>469.75999999999999</ele>
        <time>2019-04-07T10:52:59Z</time>
      </trkpt>
      <trkpt lat="44.132630014792085" lon="9.706980474293232">
        <ele>466.63</ele>
        <time>2019-04-07T10:53:13Z</time>
      </trkpt>
      <trkpt lat="44.132641330361366" lon="9.706863630563021">
        <ele>465.73000000000002</ele>
        <time>2019-04-07T10:53:20Z</time>
      </trkpt>
      <trkpt lat="44.132672091946006" lon="9.706838233396411">
        <ele>464.91000000000003</ele>
        <time>2019-04-07T10:53:30Z</time>
      </trkpt>
      <trkpt lat="44.132663374766707" lon="9.706773944199085">
        <ele>462.56999999999999</ele>
        <time>2019-04-07T10:53:41Z</time>
      </trkpt>
      <trkpt lat="44.132664129137993" lon="9.706774866208434">
        <ele>462.56999999999999</ele>
        <time>2019-04-07T10:53:58Z</time>
      </trkpt>
      <trkpt lat="44.132669493556023" lon="9.706769250333309">
        <ele>462.69999999999999</ele>
        <time>2019-04-07T10:54:18Z</time>
      </trkpt>
      <trkpt lat="44.132671840488911" lon="9.706770926713944">
        <ele>462.91000000000003</ele>
        <time>2019-04-07T10:54:23Z</time>
      </trkpt>
      <trkpt lat="44.132680725306273" lon="9.70679079182446">
        <ele>462.87</ele>
        <time>2019-04-07T10:54:25Z</time>
      </trkpt>
      <trkpt lat="44.13269279524684" lon="9.706830102950335">
        <ele>464.61000000000001</ele>
        <time>2019-04-07T10:54:29Z</time>
      </trkpt>
      <trkpt lat="44.132678126916289" lon="9.70684309490025">
        <ele>465.83999999999997</ele>
        <time>2019-04-07T10:54:39Z</time>
      </trkpt>
      <trkpt lat="44.132673935964704" lon="9.706849129870534">
        <ele>465.92000000000002</ele>
        <time>2019-04-07T10:54:56Z</time>
      </trkpt>
      <trkpt lat="44.132674187421799" lon="9.706841418519616">
        <ele>465.92000000000002</ele>
        <time>2019-04-07T10:55:15Z</time>
      </trkpt>
      <trkpt lat="44.132669409736991" lon="9.706844184547663">
        <ele>465.94999999999999</ele>
        <time>2019-04-07T10:55:37Z</time>
      </trkpt>
      <trkpt lat="44.132674857974052" lon="9.706843681633472">
        <ele>466.19999999999999</ele>
        <time>2019-04-07T10:56:05Z</time>
      </trkpt>
      <trkpt lat="44.132671756669879" lon="9.706839825958014">
        <ele>466.17000000000002</ele>
        <time>2019-04-07T10:56:27Z</time>
      </trkpt>
      <trkpt lat="44.132668823003769" lon="9.706840077415109">
        <ele>466.13</ele>
        <time>2019-04-07T10:56:45Z</time>
      </trkpt>
      <trkpt lat="44.132667817175388" lon="9.706849968060851">
        <ele>466.60000000000002</ele>
        <time>2019-04-07T10:57:01Z</time>
      </trkpt>
      <trkpt lat="44.132678462192416" lon="9.706850219517946">
        <ele>466.69999999999999</ele>
        <time>2019-04-07T10:57:15Z</time>
      </trkpt>
      <trkpt lat="44.132671505212784" lon="9.706843430176377">
        <ele>466.55000000000001</ele>
        <time>2019-04-07T10:57:26Z</time>
      </trkpt>
      <trkpt lat="44.13265080191195" lon="9.706827756017447">
        <ele>466.69999999999999</ele>
        <time>2019-04-07T10:57:41Z</time>
      </trkpt>
      <trkpt lat="44.132667062804103" lon="9.706855332478881">
        <ele>466.57999999999998</ele>
        <time>2019-04-07T10:57:51Z</time>
      </trkpt>
      <trkpt lat="44.132672930136323" lon="9.706849884241819">
        <ele>466.43000000000001</ele>
        <time>2019-04-07T10:58:08Z</time>
      </trkpt>
      <trkpt lat="44.13267133757472" lon="9.70685038715601">
        <ele>467.17000000000002</ele>
        <time>2019-04-07T10:58:35Z</time>
      </trkpt>
      <trkpt lat="44.1326654702425" lon="9.706846866756678">
        <ele>467</ele>
        <time>2019-04-07T10:58:54Z</time>
      </trkpt>
      <trkpt lat="44.132667733356357" lon="9.70682742074132">
        <ele>466.94999999999999</ele>
        <time>2019-04-07T10:59:17Z</time>
      </trkpt>
      <trkpt lat="44.13267276249826" lon="9.706836137920618">
        <ele>467.13999999999999</ele>
        <time>2019-04-07T10:59:46Z</time>
      </trkpt>
      <trkpt lat="44.132673600688577" lon="9.706830438226461">
        <ele>467.11000000000001</ele>
        <time>2019-04-07T11:00:09Z</time>
      </trkpt>
      <trkpt lat="44.132670415565372" lon="9.706830186769366">
        <ele>467.05000000000001</ele>
        <time>2019-04-07T11:00:21Z</time>
      </trkpt>
      <trkpt lat="44.132672594860196" lon="9.706840831786394">
        <ele>466.76999999999998</ele>
        <time>2019-04-07T11:00:38Z</time>
      </trkpt>
      <trkpt lat="44.132685586810112" lon="9.70683085732162">
        <ele>466.69</ele>
        <time>2019-04-07T11:01:02Z</time>
      </trkpt>
      <trkpt lat="44.132672343403101" lon="9.706852063536644">
        <ele>466.77999999999997</ele>
        <time>2019-04-07T11:01:28Z</time>
      </trkpt>
      <trkpt lat="44.132669409736991" lon="9.706852063536644">
        <ele>465.75</ele>
        <time>2019-04-07T11:01:46Z</time>
      </trkpt>
      <trkpt lat="44.132668823003769" lon="9.706853656098247">
        <ele>469.14999999999998</ele>
        <time>2019-04-07T11:01:52Z</time>
      </trkpt>
      <trkpt lat="44.132667565718293" lon="9.706855164840818">
        <ele>468.24000000000001</ele>
        <time>2019-04-07T11:01:53Z</time>
      </trkpt>
      <trkpt lat="44.132670164108276" lon="9.706852147355676">
        <ele>467.47000000000003</ele>
        <time>2019-04-07T11:01:55Z</time>
      </trkpt>
      <trkpt lat="44.132635463029146" lon="9.706796742975712">
        <ele>467.43000000000001</ele>
        <time>2019-04-07T11:02:04Z</time>
      </trkpt>
      <trkpt lat="44.132604030892253" lon="9.706743014976382">
        <ele>467.75999999999999</ele>
        <time>2019-04-07T11:02:14Z</time>
      </trkpt>
      <trkpt lat="44.132566815242171" lon="9.706758940592408">
        <ele>467.88999999999999</ele>
        <time>2019-04-07T11:02:31Z</time>
      </trkpt>
      <trkpt lat="44.132452988997102" lon="9.706769082695246">
        <ele>468.19</ele>
        <time>2019-04-07T11:02:45Z</time>
      </trkpt>
      <trkpt lat="44.132479475811124" lon="9.706758856773377">
        <ele>468.18000000000001</ele>
        <time>2019-04-07T11:02:54Z</time>
      </trkpt>
      <trkpt lat="44.132540328428149" lon="9.706716276705265">
        <ele>468.08999999999997</ele>
        <time>2019-04-07T11:03:06Z</time>
      </trkpt>
      <trkpt lat="44.132563630118966" lon="9.706742344424129">
        <ele>467.91000000000003</ele>
        <time>2019-04-07T11:03:16Z</time>
      </trkpt>
      <trkpt lat="44.132657423615456" lon="9.706847704946995">
        <ele>468</ele>
        <time>2019-04-07T11:03:31Z</time>
      </trkpt>
      <trkpt lat="44.13267276249826" lon="9.706832701340318">
        <ele>467.88999999999999</ele>
        <time>2019-04-07T11:03:44Z</time>
      </trkpt>
      <trkpt lat="44.132670667022467" lon="9.706839574500918">
        <ele>468.13</ele>
        <time>2019-04-07T11:04:11Z</time>
      </trkpt>
      <trkpt lat="44.132667481899261" lon="9.706841083243489">
        <ele>468.43000000000001</ele>
        <time>2019-04-07T11:04:49Z</time>
      </trkpt>
      <trkpt lat="44.132669577375054" lon="9.706833958625794">
        <ele>468.25999999999999</ele>
        <time>2019-04-07T11:05:28Z</time>
      </trkpt>
      <trkpt lat="44.13267569616437" lon="9.706834126263857">
        <ele>468.64999999999998</ele>
        <time>2019-04-07T11:05:58Z</time>
      </trkpt>
      <trkpt lat="44.132672175765038" lon="9.706834629178047">
        <ele>468.81</ele>
        <time>2019-04-07T11:06:21Z</time>
      </trkpt>
      <trkpt lat="44.132680222392082" lon="9.706805963069201">
        <ele>467.66000000000003</ele>
        <time>2019-04-07T11:06:31Z</time>
      </trkpt>
      <trkpt lat="44.132675444707274" lon="9.706789702177048">
        <ele>467.06</ele>
        <time>2019-04-07T11:06:33Z</time>
      </trkpt>
      <trkpt lat="44.132715091109276" lon="9.706786349415779">
        <ele>464.99000000000001</ele>
        <time>2019-04-07T11:06:42Z</time>
      </trkpt>
      <trkpt lat="44.132717940956354" lon="9.706720551475883">
        <ele>461.87</ele>
        <time>2019-04-07T11:06:53Z</time>
      </trkpt>
      <trkpt lat="44.132695561274886" lon="9.706619046628475">
        <ele>458.66000000000003</ele>
        <time>2019-04-07T11:07:04Z</time>
      </trkpt>
      <trkpt lat="44.132665051147342" lon="9.706556349992752">
        <ele>455.58999999999997</ele>
        <time>2019-04-07T11:07:13Z</time>
      </trkpt>
      <trkpt lat="44.132687598466873" lon="9.706450989469886">
        <ele>452.93000000000001</ele>
        <time>2019-04-07T11:07:24Z</time>
      </trkpt>
      <trkpt lat="44.13270846940577" lon="9.706397848203778">
        <ele>452.81999999999999</ele>
        <time>2019-04-07T11:07:36Z</time>
      </trkpt>
      <trkpt lat="44.132671672850847" lon="9.706355603411794">
        <ele>451.56</ele>
        <time>2019-04-07T11:07:48Z</time>
      </trkpt>
      <trkpt lat="44.132654154673219" lon="9.706333726644516">
        <ele>450.79000000000002</ele>
        <time>2019-04-07T11:07:57Z</time>
      </trkpt>
      <trkpt lat="44.132636971771717" lon="9.706270778551698">
        <ele>448.85000000000002</ele>
        <time>2019-04-07T11:08:08Z</time>
      </trkpt>
      <trkpt lat="44.132701093330979" lon="9.706269269809127">
        <ele>445.81</ele>
        <time>2019-04-07T11:08:22Z</time>
      </trkpt>
      <trkpt lat="44.132721293717623" lon="9.706231635063887">
        <ele>442.97000000000003</ele>
        <time>2019-04-07T11:08:33Z</time>
      </trkpt>
      <trkpt lat="44.132700506597757" lon="9.706219984218478">
        <ele>442.35000000000002</ele>
        <time>2019-04-07T11:08:38Z</time>
      </trkpt>
      <trkpt lat="44.132710648700595" lon="9.706149660050869">
        <ele>439.74000000000001</ele>
        <time>2019-04-07T11:08:47Z</time>
      </trkpt>
      <trkpt lat="44.132719449698925" lon="9.70609886571765">
        <ele>438.07999999999998</ele>
        <time>2019-04-07T11:08:59Z</time>
      </trkpt>
      <trkpt lat="44.132789354771376" lon="9.706131722778082">
        <ele>436.12</ele>
        <time>2019-04-07T11:09:11Z</time>
      </trkpt>
      <trkpt lat="44.132783068343997" lon="9.706108840182424">
        <ele>435.74000000000001</ele>
        <time>2019-04-07T11:09:13Z</time>
      </trkpt>
      <trkpt lat="44.132736548781395" lon="9.70600507222116">
        <ele>433.87</ele>
        <time>2019-04-07T11:09:21Z</time>
      </trkpt>
      <trkpt lat="44.132705200463533" lon="9.705943213775754">
        <ele>432</ele>
        <time>2019-04-07T11:09:28Z</time>
      </trkpt>
      <trkpt lat="44.13268206641078" lon="9.705895939841867">
        <ele>430.86000000000001</ele>
        <time>2019-04-07T11:09:32Z</time>
      </trkpt>
      <trkpt lat="44.132565557956696" lon="9.705770295113325">
        <ele>428.69</ele>
        <time>2019-04-07T11:09:47Z</time>
      </trkpt>
      <trkpt lat="44.132489198818803" lon="9.70565278083086">
        <ele>426.06999999999999</ele>
        <time>2019-04-07T11:10:01Z</time>
      </trkpt>
      <trkpt lat="44.132422562688589" lon="9.705507354810834">
        <ele>423.02999999999997</ele>
        <time>2019-04-07T11:10:13Z</time>
      </trkpt>
      <trkpt lat="44.132374366745353" lon="9.705442395061255">
        <ele>420.82999999999998</ele>
        <time>2019-04-07T11:10:26Z</time>
      </trkpt>
      <trkpt lat="44.132378892973065" lon="9.705427223816514">
        <ele>419.74000000000001</ele>
        <time>2019-04-07T11:10:35Z</time>
      </trkpt>
      <trkpt lat="44.132414599880576" lon="9.705444658175111">
        <ele>418.44</ele>
        <time>2019-04-07T11:10:41Z</time>
      </trkpt>
      <trkpt lat="44.132430022582412" lon="9.70542554743588">
        <ele>417.30000000000001</ele>
        <time>2019-04-07T11:10:44Z</time>
      </trkpt>
      <trkpt lat="44.132410660386086" lon="9.705371065065265">
        <ele>416.20999999999998</ele>
        <time>2019-04-07T11:10:48Z</time>
      </trkpt>
      <trkpt lat="44.132337402552366" lon="9.705218011513352">
        <ele>415.23000000000002</ele>
        <time>2019-04-07T11:11:02Z</time>
      </trkpt>
      <trkpt lat="44.132339078933001" lon="9.705200828611851">
        <ele>414.72000000000003</ele>
        <time>2019-04-07T11:11:15Z</time>
      </trkpt>
      <trkpt lat="44.132345113903284" lon="9.705184232443571">
        <ele>415.19999999999999</ele>
        <time>2019-04-07T11:11:31Z</time>
      </trkpt>
      <trkpt lat="44.132364057004452" lon="9.705142406746745">
        <ele>414.60000000000002</ele>
        <time>2019-04-07T11:11:35Z</time>
      </trkpt>
      <trkpt lat="44.132381239905953" lon="9.705036459490657">
        <ele>410.83999999999997</ele>
        <time>2019-04-07T11:11:45Z</time>
      </trkpt>
      <trkpt lat="44.132392136380076" lon="9.70495012588799">
        <ele>407.76999999999998</ele>
        <time>2019-04-07T11:11:52Z</time>
      </trkpt>
      <trkpt lat="44.13240697234869" lon="9.704838395118713">
        <ele>404.39999999999998</ele>
        <time>2019-04-07T11:11:59Z</time>
      </trkpt>
      <trkpt lat="44.132417785003781" lon="9.704716606065631">
        <ele>401.13</ele>
        <time>2019-04-07T11:12:08Z</time>
      </trkpt>
      <trkpt lat="44.132410492748022" lon="9.704598337411881">
        <ele>397.81</ele>
        <time>2019-04-07T11:12:17Z</time>
      </trkpt>
      <trkpt lat="44.132404290139675" lon="9.70447663217783">
        <ele>394.75999999999999</ele>
        <time>2019-04-07T11:12:27Z</time>
      </trkpt>
      <trkpt lat="44.132397752255201" lon="9.704337408766151">
        <ele>391.64999999999998</ele>
        <time>2019-04-07T11:12:38Z</time>
      </trkpt>
      <trkpt lat="44.132400350645185" lon="9.704210925847292">
        <ele>388.50999999999999</ele>
        <time>2019-04-07T11:12:51Z</time>
      </trkpt>
      <trkpt lat="44.132395572960377" lon="9.704172117635608">
        <ele>387.37</ele>
        <time>2019-04-07T11:12:54Z</time>
      </trkpt>
      <trkpt lat="44.132423903793097" lon="9.704145211726427">
        <ele>386.13999999999999</ele>
        <time>2019-04-07T11:12:58Z</time>
      </trkpt>
      <trkpt lat="44.132444187998772" lon="9.704146636649966">
        <ele>385.75999999999999</ele>
        <time>2019-04-07T11:13:00Z</time>
      </trkpt>
      <trkpt lat="44.132557678967714" lon="9.704238334670663">
        <ele>382.79000000000002</ele>
        <time>2019-04-07T11:13:15Z</time>
      </trkpt>
      <trkpt lat="44.132618950679898" lon="9.704319890588522">
        <ele>380.30000000000001</ele>
        <time>2019-04-07T11:13:28Z</time>
      </trkpt>
      <trkpt lat="44.132615178823471" lon="9.704222828149796">
        <ele>378.63999999999999</ele>
        <time>2019-04-07T11:13:39Z</time>
      </trkpt>
      <trkpt lat="44.13260830566287" lon="9.704200616106391">
        <ele>378.10000000000002</ele>
        <time>2019-04-07T11:13:41Z</time>
      </trkpt>
      <trkpt lat="44.132552146911621" lon="9.703999115154147">
        <ele>374.64999999999998</ele>
        <time>2019-04-07T11:13:57Z</time>
      </trkpt>
      <trkpt lat="44.132481403648853" lon="9.703827286139131">
        <ele>371.58999999999997</ele>
        <time>2019-04-07T11:14:12Z</time>
      </trkpt>
      <trkpt lat="44.132390879094601" lon="9.703749418258667">
        <ele>368.69</ele>
        <time>2019-04-07T11:14:26Z</time>
      </trkpt>
      <trkpt lat="44.132343186065555" lon="9.703708598390222">
        <ele>367.10000000000002</ele>
        <time>2019-04-07T11:14:33Z</time>
      </trkpt>
      <trkpt lat="44.132315525785089" lon="9.703661324456334">
        <ele>365.75999999999999</ele>
        <time>2019-04-07T11:14:37Z</time>
      </trkpt>
      <trkpt lat="44.132249224931002" lon="9.703431492671371">
        <ele>362.81</ele>
        <time>2019-04-07T11:14:52Z</time>
      </trkpt>
      <trkpt lat="44.132260791957378" lon="9.703218005597591">
        <ele>360.08999999999997</ele>
        <time>2019-04-07T11:15:06Z</time>
      </trkpt>
      <trkpt lat="44.132284009829164" lon="9.703145334497094">
        <ele>359.63</ele>
        <time>2019-04-07T11:15:17Z</time>
      </trkpt>
      <trkpt lat="44.132287194952369" lon="9.703124044463038">
        <ele>359.80000000000001</ele>
        <time>2019-04-07T11:15:33Z</time>
      </trkpt>
      <trkpt lat="44.13231560960412" lon="9.703050116077066">
        <ele>358.45999999999998</ele>
        <time>2019-04-07T11:15:39Z</time>
      </trkpt>
      <trkpt lat="44.132349388673902" lon="9.702959423884749">
        <ele>356.85000000000002</ele>
        <time>2019-04-07T11:15:45Z</time>
      </trkpt>
      <trkpt lat="44.132417617365718" lon="9.702838808298111">
        <ele>353.58999999999997</ele>
        <time>2019-04-07T11:15:55Z</time>
      </trkpt>
      <trkpt lat="44.132468579337001" lon="9.702747613191605">
        <ele>349.89999999999998</ele>
        <time>2019-04-07T11:16:05Z</time>
      </trkpt>
      <trkpt lat="44.13249590434134" lon="9.702741075307131">
        <ele>348.92000000000002</ele>
        <time>2019-04-07T11:16:16Z</time>
      </trkpt>
      <trkpt lat="44.132541250437498" lon="9.702712995931506">
        <ele>345.92000000000002</ele>
        <time>2019-04-07T11:16:28Z</time>
      </trkpt>
      <trkpt lat="44.13256673142314" lon="9.702682569622994">
        <ele>344.00999999999999</ele>
        <time>2019-04-07T11:16:40Z</time>
      </trkpt>
      <trkpt lat="44.132590619847178" lon="9.70265063457191">
        <ele>341.94999999999999</ele>
        <time>2019-04-07T11:16:51Z</time>
      </trkpt>
      <trkpt lat="44.132586931809783" lon="9.702622555196285">
        <ele>340.89999999999998</ele>
        <time>2019-04-07T11:16:56Z</time>
      </trkpt>
      <trkpt lat="44.132611155509949" lon="9.70257880166173">
        <ele>338.68000000000001</ele>
        <time>2019-04-07T11:17:06Z</time>
      </trkpt>
      <trkpt lat="44.132578382268548" lon="9.70255239866674">
        <ele>337.38</ele>
        <time>2019-04-07T11:17:11Z</time>
      </trkpt>
      <trkpt lat="44.132453575730324" lon="9.70250453799963">
        <ele>335.00999999999999</ele>
        <time>2019-04-07T11:17:25Z</time>
      </trkpt>
      <trkpt lat="44.132440332323313" lon="9.702454833313823">
        <ele>333.88</ele>
        <time>2019-04-07T11:17:32Z</time>
      </trkpt>
      <trkpt lat="44.132388783618808" lon="9.702384425327182">
        <ele>332.63</ele>
        <time>2019-04-07T11:17:39Z</time>
      </trkpt>
      <trkpt lat="44.1322286054492" lon="9.702229695394635">
        <ele>331.79000000000002</ele>
        <time>2019-04-07T11:17:56Z</time>
      </trkpt>
      <trkpt lat="44.132204130291939" lon="9.702215027064085">
        <ele>331.75</ele>
        <time>2019-04-07T11:17:59Z</time>
      </trkpt>
      <trkpt lat="44.132105223834515" lon="9.702130537480116">
        <ele>331.69999999999999</ele>
        <time>2019-04-07T11:18:12Z</time>
      </trkpt>
      <trkpt lat="44.132088292390108" lon="9.702114360406995">
        <ele>331.25</ele>
        <time>2019-04-07T11:18:17Z</time>
      </trkpt>
      <trkpt lat="44.132002964615822" lon="9.702041102573276">
        <ele>331.50999999999999</ele>
        <time>2019-04-07T11:18:27Z</time>
      </trkpt>
      <trkpt lat="44.131985697895288" lon="9.702043365687132">
        <ele>331.85000000000002</ele>
        <time>2019-04-07T11:18:29Z</time>
      </trkpt>
      <trkpt lat="44.131972454488277" lon="9.702061722055078">
        <ele>331.55000000000001</ele>
        <time>2019-04-07T11:18:31Z</time>
      </trkpt>
      <trkpt lat="44.13195937871933" lon="9.702112851664424">
        <ele>331.42000000000002</ele>
        <time>2019-04-07T11:18:42Z</time>
      </trkpt>
      <trkpt lat="44.1319540143013" lon="9.702115030959249">
        <ele>331.23000000000002</ele>
        <time>2019-04-07T11:18:58Z</time>
      </trkpt>
      <trkpt lat="44.131952505558729" lon="9.702082760632038">
        <ele>331.49000000000001</ele>
        <time>2019-04-07T11:19:11Z</time>
      </trkpt>
      <trkpt lat="44.131953846663237" lon="9.702077144756913">
        <ele>331.30000000000001</ele>
        <time>2019-04-07T11:19:23Z</time>
      </trkpt>
      <trkpt lat="44.131997767835855" lon="9.702061722055078">
        <ele>331.73000000000002</ele>
        <time>2019-04-07T11:19:36Z</time>
      </trkpt>
      <trkpt lat="44.131998941302299" lon="9.702069433405995">
        <ele>331.44999999999999</ele>
        <time>2019-04-07T11:19:46Z</time>
      </trkpt>
      <trkpt lat="44.132016627117991" lon="9.70206281170249">
        <ele>331.39999999999998</ele>
        <time>2019-04-07T11:19:55Z</time>
      </trkpt>
      <trkpt lat="44.132078653201461" lon="9.702060632407665">
        <ele>331.36000000000001</ele>
        <time>2019-04-07T11:20:06Z</time>
      </trkpt>
      <trkpt lat="44.132093572989106" lon="9.702086448669434">
        <ele>331.72000000000003</ele>
        <time>2019-04-07T11:20:17Z</time>
      </trkpt>
      <trkpt lat="44.132064739242196" lon="9.702062476426363">
        <ele>331.89999999999998</ele>
        <time>2019-04-07T11:20:34Z</time>
      </trkpt>
      <trkpt lat="44.132014699280262" lon="9.702031714841723">
        <ele>332.02999999999997</ele>
        <time>2019-04-07T11:20:45Z</time>
      </trkpt>
      <trkpt lat="44.132010005414486" lon="9.702043030411005">
        <ele>331.97000000000003</ele>
        <time>2019-04-07T11:20:55Z</time>
      </trkpt>
      <trkpt lat="44.132018722593784" lon="9.702046047896147">
        <ele>331.81999999999999</ele>
        <time>2019-04-07T11:21:07Z</time>
      </trkpt>
      <trkpt lat="44.132008077576756" lon="9.702054094523192">
        <ele>332.02999999999997</ele>
        <time>2019-04-07T11:21:19Z</time>
      </trkpt>
      <trkpt lat="44.132006987929344" lon="9.702067757025361">
        <ele>331.91000000000003</ele>
        <time>2019-04-07T11:21:34Z</time>
      </trkpt>
      <trkpt lat="44.131989888846874" lon="9.702108576893807">
        <ele>331.95999999999998</ele>
        <time>2019-04-07T11:21:45Z</time>
      </trkpt>
      <trkpt lat="44.131994247436523" lon="9.702116455882788">
        <ele>332.07999999999998</ele>
        <time>2019-04-07T11:22:00Z</time>
      </trkpt>
      <trkpt lat="44.131996175274253" lon="9.702055100351572">
        <ele>331.56</ele>
        <time>2019-04-07T11:22:13Z</time>
      </trkpt>
      <trkpt lat="44.132006904110312" lon="9.702029703184962">
        <ele>331.43000000000001</ele>
        <time>2019-04-07T11:22:23Z</time>
      </trkpt>
      <trkpt lat="44.131994163617492" lon="9.702052669599652">
        <ele>331.77999999999997</ele>
        <time>2019-04-07T11:22:38Z</time>
      </trkpt>
      <trkpt lat="44.131982512772083" lon="9.702044036239386">
        <ele>331.56999999999999</ele>
        <time>2019-04-07T11:22:55Z</time>
      </trkpt>
      <trkpt lat="44.131980249658227" lon="9.702033307403326">
        <ele>332.31</ele>
        <time>2019-04-07T11:23:25Z</time>
      </trkpt>
      <trkpt lat="44.131982764229178" lon="9.702029451727867">
        <ele>333.13999999999999</ele>
        <time>2019-04-07T11:23:29Z</time>
      </trkpt>
      <trkpt lat="44.131973292678595" lon="9.702045461162925">
        <ele>333.19999999999999</ele>
        <time>2019-04-07T11:23:49Z</time>
      </trkpt>
      <trkpt lat="44.13196574896574" lon="9.702057698741555">
        <ele>331.77999999999997</ele>
        <time>2019-04-07T11:24:09Z</time>
      </trkpt>
      <trkpt lat="44.131965162232518" lon="9.702064571902156">
        <ele>331.95999999999998</ele>
        <time>2019-04-07T11:24:32Z</time>
      </trkpt>
      <trkpt lat="44.131965581327677" lon="9.702072031795979">
        <ele>331.06</ele>
        <time>2019-04-07T11:24:56Z</time>
      </trkpt>
      <trkpt lat="44.131971029564738" lon="9.702074965462089">
        <ele>328.55000000000001</ele>
        <time>2019-04-07T11:25:06Z</time>
      </trkpt>
      <trkpt lat="44.131969856098294" lon="9.702074630185962">
        <ele>331.13999999999999</ele>
        <time>2019-04-07T11:25:09Z</time>
      </trkpt>
      <trkpt lat="44.131961055099964" lon="9.702066835016012">
        <ele>331.38</ele>
        <time>2019-04-07T11:25:30Z</time>
      </trkpt>
      <trkpt lat="44.131972454488277" lon="9.702064739540219">
        <ele>331.86000000000001</ele>
        <time>2019-04-07T11:25:51Z</time>
      </trkpt>
      <trkpt lat="44.131976896896958" lon="9.702044706791639">
        <ele>335.08999999999997</ele>
        <time>2019-04-07T11:26:05Z</time>
      </trkpt>
      <trkpt lat="44.13197748363018" lon="9.702042443677783">
        <ele>334.13</ele>
        <time>2019-04-07T11:26:06Z</time>
      </trkpt>
      <trkpt lat="44.131974214687943" lon="9.702044371515513">
        <ele>332.22000000000003</ele>
        <time>2019-04-07T11:26:08Z</time>
      </trkpt>
      <trkpt lat="44.131964826956391" lon="9.702060129493475">
        <ele>332.11000000000001</ele>
        <time>2019-04-07T11:26:33Z</time>
      </trkpt>
      <trkpt lat="44.131963569670916" lon="9.702053591609001">
        <ele>332.36000000000001</ele>
        <time>2019-04-07T11:27:15Z</time>
      </trkpt>
      <trkpt lat="44.131967844441533" lon="9.702031295746565">
        <ele>332.76999999999998</ele>
        <time>2019-04-07T11:28:00Z</time>
      </trkpt>
      <trkpt lat="44.13197698071599" lon="9.702034648507834">
        <ele>332.50999999999999</ele>
        <time>2019-04-07T11:28:46Z</time>
      </trkpt>
      <trkpt lat="44.131968347355723" lon="9.702028362080455">
        <ele>332.48000000000002</ele>
        <time>2019-04-07T11:29:20Z</time>
      </trkpt>
      <trkpt lat="44.131956696510315" lon="9.702051496133208">
        <ele>332.41000000000003</ele>
        <time>2019-04-07T11:29:52Z</time>
      </trkpt>
      <trkpt lat="44.131964575499296" lon="9.702069014310837">
        <ele>332.50999999999999</ele>
        <time>2019-04-07T11:30:30Z</time>
      </trkpt>
      <trkpt lat="44.131965832784772" lon="9.702072031795979">
        <ele>333.48000000000002</ele>
        <time>2019-04-07T11:31:04Z</time>
      </trkpt>
      <trkpt lat="44.131969856098294" lon="9.702069852501154">
        <ele>333.66000000000003</ele>
        <time>2019-04-07T11:31:14Z</time>
      </trkpt>
      <trkpt lat="44.13198477588594" lon="9.702073205262423">
        <ele>333.75999999999999</ele>
        <time>2019-04-07T11:31:37Z</time>
      </trkpt>
      <trkpt lat="44.131991229951382" lon="9.70205937512219">
        <ele>334.31</ele>
        <time>2019-04-07T11:31:47Z</time>
      </trkpt>
      <trkpt lat="44.132075887173414" lon="9.702122071757913">
        <ele>334.69</ele>
        <time>2019-04-07T11:31:59Z</time>
      </trkpt>
      <trkpt lat="44.132084185257554" lon="9.702115869149566">
        <ele>328.56</ele>
        <time>2019-04-07T11:32:00Z</time>
      </trkpt>
      <trkpt lat="44.132095081731677" lon="9.702114360406995">
        <ele>334.72000000000003</ele>
        <time>2019-04-07T11:32:01Z</time>
      </trkpt>
      <trkpt lat="44.132110001519322" lon="9.702107068151236">
        <ele>336.14999999999998</ele>
        <time>2019-04-07T11:32:03Z</time>
      </trkpt>
      <trkpt lat="44.132135901600122" lon="9.702101200819016">
        <ele>333.75</ele>
        <time>2019-04-07T11:32:06Z</time>
      </trkpt>
      <trkpt lat="44.132196670398116" lon="9.702177224680781">
        <ele>334.39999999999998</ele>
        <time>2019-04-07T11:32:17Z</time>
      </trkpt>
      <trkpt lat="44.132214272394776" lon="9.702193150296807">
        <ele>330.19</ele>
        <time>2019-04-07T11:32:22Z</time>
      </trkpt>
      <trkpt lat="44.132215697318316" lon="9.70219281502068">
        <ele>333.25</ele>
        <time>2019-04-07T11:32:23Z</time>
      </trkpt>
      <trkpt lat="44.132216284051538" lon="9.702193150296807">
        <ele>336.80000000000001</ele>
        <time>2019-04-07T11:32:24Z</time>
      </trkpt>
      <trkpt lat="44.132218630984426" lon="9.702192479744554">
        <ele>334.47000000000003</ele>
        <time>2019-04-07T11:32:25Z</time>
      </trkpt>
      <trkpt lat="44.132192060351372" lon="9.70214881002903">
        <ele>334.04000000000002</ele>
        <time>2019-04-07T11:32:33Z</time>
      </trkpt>
      <trkpt lat="44.13213137537241" lon="9.701976897194982">
        <ele>333.74000000000001</ele>
        <time>2019-04-07T11:32:46Z</time>
      </trkpt>
      <trkpt lat="44.13211670704186" lon="9.701817808672786">
        <ele>333.5</ele>
        <time>2019-04-07T11:32:55Z</time>
      </trkpt>
      <trkpt lat="44.132093489170074" lon="9.701616642996669">
        <ele>333.79000000000002</ele>
        <time>2019-04-07T11:33:07Z</time>
      </trkpt>
      <trkpt lat="44.132049903273582" lon="9.701608764007688">
        <ele>334.42000000000002</ele>
        <time>2019-04-07T11:33:12Z</time>
      </trkpt>
      <trkpt lat="44.131994666531682" lon="9.701620498672128">
        <ele>336.68000000000001</ele>
        <time>2019-04-07T11:33:25Z</time>
      </trkpt>
      <trkpt lat="44.132001791149378" lon="9.701602393761277">
        <ele>337.72000000000003</ele>
        <time>2019-04-07T11:33:27Z</time>
      </trkpt>
      <trkpt lat="44.132012855261564" lon="9.701542379334569">
        <ele>340.85000000000002</ele>
        <time>2019-04-07T11:33:37Z</time>
      </trkpt>
      <trkpt lat="44.131985614076257" lon="9.701424529775977">
        <ele>344.52999999999997</ele>
        <time>2019-04-07T11:33:51Z</time>
      </trkpt>
      <trkpt lat="44.131980165839195" lon="9.701410112902522">
        <ele>344.69999999999999</ele>
        <time>2019-04-07T11:33:52Z</time>
      </trkpt>
      <trkpt lat="44.131911350414157" lon="9.701246833428741">
        <ele>346.54000000000002</ele>
        <time>2019-04-07T11:34:03Z</time>
      </trkpt>
      <trkpt lat="44.131893832236528" lon="9.70121406018734">
        <ele>346.00999999999999</ele>
        <time>2019-04-07T11:34:15Z</time>
      </trkpt>
      <trkpt lat="44.131891569122672" lon="9.701221771538258">
        <ele>345.72000000000003</ele>
        <time>2019-04-07T11:34:23Z</time>
      </trkpt>
      <trkpt lat="44.131899699568748" lon="9.701239289715886">
        <ele>346.44999999999999</ele>
        <time>2019-04-07T11:34:25Z</time>
      </trkpt>
      <trkpt lat="44.131914284080267" lon="9.701247001066804">
        <ele>345.89999999999998</ele>
        <time>2019-04-07T11:34:27Z</time>
      </trkpt>
      <trkpt lat="44.131924090906978" lon="9.701273571699858">
        <ele>346.49000000000001</ele>
        <time>2019-04-07T11:34:32Z</time>
      </trkpt>
      <trkpt lat="44.131925851106644" lon="9.701302908360958">
        <ele>344.75</ele>
        <time>2019-04-07T11:34:35Z</time>
      </trkpt>
      <trkpt lat="44.131946219131351" lon="9.701329562813044">
        <ele>343.58999999999997</ele>
        <time>2019-04-07T11:34:45Z</time>
      </trkpt>
      <trkpt lat="44.131932053714991" lon="9.701436180621386">
        <ele>341.82999999999998</ele>
        <time>2019-04-07T11:34:57Z</time>
      </trkpt>
      <trkpt lat="44.131920821964741" lon="9.701471468433738">
        <ele>340.83999999999997</ele>
        <time>2019-04-07T11:35:06Z</time>
      </trkpt>
      <trkpt lat="44.131915373727679" lon="9.701477754861116">
        <ele>340.82999999999998</ele>
        <time>2019-04-07T11:35:07Z</time>
      </trkpt>
      <trkpt lat="44.131866004317999" lon="9.701504157856107">
        <ele>341.50999999999999</ele>
        <time>2019-04-07T11:35:18Z</time>
      </trkpt>
      <trkpt lat="44.131879331544042" lon="9.701507426798344">
        <ele>341.38</ele>
        <time>2019-04-07T11:35:26Z</time>
      </trkpt>
      <trkpt lat="44.131909003481269" lon="9.701508684083819">
        <ele>341.02999999999997</ele>
        <time>2019-04-07T11:35:29Z</time>
      </trkpt>
      <trkpt lat="44.131940854713321" lon="9.701524442061782">
        <ele>340.27999999999997</ele>
        <time>2019-04-07T11:35:39Z</time>
      </trkpt>
      <trkpt lat="44.131943620741367" lon="9.701550845056772">
        <ele>339.37</ele>
        <time>2019-04-07T11:35:42Z</time>
      </trkpt>
      <trkpt lat="44.131951164454222" lon="9.701591497287154">
        <ele>337.69</ele>
        <time>2019-04-07T11:35:45Z</time>
      </trkpt>
      <trkpt lat="44.131966670975089" lon="9.701651679351926">
        <ele>336.29000000000002</ele>
        <time>2019-04-07T11:35:49Z</time>
      </trkpt>
      <trkpt lat="44.13196625187993" lon="9.701718147844076">
        <ele>334.83999999999997</ele>
        <time>2019-04-07T11:35:54Z</time>
      </trkpt>
      <trkpt lat="44.131973460316658" lon="9.701834237203002">
        <ele>333.05000000000001</ele>
        <time>2019-04-07T11:36:05Z</time>
      </trkpt>
      <trkpt lat="44.131989805027843" lon="9.701840607449412">
        <ele>333.01999999999998</ele>
        <time>2019-04-07T11:36:21Z</time>
      </trkpt>
      <trkpt lat="44.131994415074587" lon="9.70186835154891">
        <ele>333.19999999999999</ele>
        <time>2019-04-07T11:36:39Z</time>
      </trkpt>
      <trkpt lat="44.131993995979428" lon="9.701892407611013">
        <ele>333.13</ele>
        <time>2019-04-07T11:36:53Z</time>
      </trkpt>
      <trkpt lat="44.132001036778092" lon="9.701944794505835">
        <ele>332.82999999999998</ele>
        <time>2019-04-07T11:37:06Z</time>
      </trkpt>
      <trkpt lat="44.131990559399128" lon="9.701987709850073">
        <ele>333.01999999999998</ele>
        <time>2019-04-07T11:37:18Z</time>
      </trkpt>
      <trkpt lat="44.131979998201132" lon="9.702001204714179">
        <ele>332.70999999999998</ele>
        <time>2019-04-07T11:37:32Z</time>
      </trkpt>
      <trkpt lat="44.131960719823837" lon="9.702051244676113">
        <ele>332.86000000000001</ele>
        <time>2019-04-07T11:37:43Z</time>
      </trkpt>
      <trkpt lat="44.131980165839195" lon="9.702036576345563">
        <ele>332.98000000000002</ele>
        <time>2019-04-07T11:37:55Z</time>
      </trkpt>
      <trkpt lat="44.131974382326007" lon="9.702033726498485">
        <ele>332.94999999999999</ele>
        <time>2019-04-07T11:38:10Z</time>
      </trkpt>
      <trkpt lat="44.131961138918996" lon="9.702032469213009">
        <ele>332.94</ele>
        <time>2019-04-07T11:38:29Z</time>
      </trkpt>
      <trkpt lat="44.131971364840865" lon="9.702035738155246">
        <ele>332.97000000000003</ele>
        <time>2019-04-07T11:38:44Z</time>
      </trkpt>
      <trkpt lat="44.131966838613153" lon="9.702037582173944">
        <ele>332.80000000000001</ele>
        <time>2019-04-07T11:38:55Z</time>
      </trkpt>
      <trkpt lat="44.131954936310649" lon="9.702038923278451">
        <ele>332.88999999999999</ele>
        <time>2019-04-07T11:39:14Z</time>
      </trkpt>
      <trkpt lat="44.131944123655558" lon="9.702050741761923">
        <ele>333.07999999999998</ele>
        <time>2019-04-07T11:39:30Z</time>
      </trkpt>
      <trkpt lat="44.13193984888494" lon="9.702060800045729">
        <ele>332.91000000000003</ele>
        <time>2019-04-07T11:39:43Z</time>
      </trkpt>
      <trkpt lat="44.131937837228179" lon="9.70205987803638">
        <ele>332.98000000000002</ele>
        <time>2019-04-07T11:40:00Z</time>
      </trkpt>
      <trkpt lat="44.131935574114323" lon="9.702058369293809">
        <ele>332.98000000000002</ele>
        <time>2019-04-07T11:40:17Z</time>
      </trkpt>
      <trkpt lat="44.13193741813302" lon="9.702063649892807">
        <ele>333.07999999999998</ele>
        <time>2019-04-07T11:40:47Z</time>
      </trkpt>
      <trkpt lat="44.131944542750716" lon="9.702073121443391">
        <ele>333.02999999999997</ele>
        <time>2019-04-07T11:41:17Z</time>
      </trkpt>
      <trkpt lat="44.131946638226509" lon="9.702073708176613">
        <ele>332.91000000000003</ele>
        <time>2019-04-07T11:41:50Z</time>
      </trkpt>
      <trkpt lat="44.131951499730349" lon="9.702072450891137">
        <ele>332.89999999999998</ele>
        <time>2019-04-07T11:42:23Z</time>
      </trkpt>
      <trkpt lat="44.131958456709981" lon="9.702061805874109">
        <ele>333.25</ele>
        <time>2019-04-07T11:42:50Z</time>
      </trkpt>
      <trkpt lat="44.131974214687943" lon="9.702085107564926">
        <ele>333.85000000000002</ele>
        <time>2019-04-07T11:43:01Z</time>
      </trkpt>
      <trkpt lat="44.131961725652218" lon="9.702144199982286">
        <ele>333.16000000000003</ele>
        <time>2019-04-07T11:43:12Z</time>
      </trkpt>
      <trkpt lat="44.131968263536692" lon="9.702116455882788">
        <ele>333.74000000000001</ele>
        <time>2019-04-07T11:43:21Z</time>
      </trkpt>
      <trkpt lat="44.131973711773753" lon="9.702071193605661">
        <ele>333.61000000000001</ele>
        <time>2019-04-07T11:43:26Z</time>
      </trkpt>
      <trkpt lat="44.131970694288611" lon="9.701987542212009">
        <ele>333.12</ele>
        <time>2019-04-07T11:43:36Z</time>
      </trkpt>
      <trkpt lat="44.131974633783102" lon="9.701989721506834">
        <ele>333.08999999999997</ele>
        <time>2019-04-07T11:43:46Z</time>
      </trkpt>
      <trkpt lat="44.131976813077927" lon="9.701991565525532">
        <ele>334.13999999999999</ele>
        <time>2019-04-07T11:44:00Z</time>
      </trkpt>
      <trkpt lat="44.131975220516324" lon="9.701987290754914">
        <ele>333.50999999999999</ele>
        <time>2019-04-07T11:44:15Z</time>
      </trkpt>
      <trkpt lat="44.131973041221499" lon="9.701990392059088">
        <ele>333.32999999999998</ele>
        <time>2019-04-07T11:44:30Z</time>
      </trkpt>
      <trkpt lat="44.131956277415156" lon="9.701962564140558">
        <ele>333.14999999999998</ele>
        <time>2019-04-07T11:44:43Z</time>
      </trkpt>
      <trkpt lat="44.131966168060899" lon="9.701933227479458">
        <ele>333.48000000000002</ele>
        <time>2019-04-07T11:44:56Z</time>
      </trkpt>
      <trkpt lat="44.131968850269914" lon="9.701944962143898">
        <ele>333.95999999999998</ele>
        <time>2019-04-07T11:44:58Z</time>
      </trkpt>
      <trkpt lat="44.132003467530012" lon="9.702040599659085">
        <ele>333.79000000000002</ele>
        <time>2019-04-07T11:45:12Z</time>
      </trkpt>
      <trkpt lat="44.132025595754385" lon="9.702030373737216">
        <ele>334.22000000000003</ele>
        <time>2019-04-07T11:45:25Z</time>
      </trkpt>
      <trkpt lat="44.132022242993116" lon="9.702005898579955">
        <ele>334.38999999999999</ele>
        <time>2019-04-07T11:45:40Z</time>
      </trkpt>
      <trkpt lat="44.132016375660896" lon="9.702013945207">
        <ele>334.38</ele>
        <time>2019-04-07T11:45:58Z</time>
      </trkpt>
      <trkpt lat="44.132005563005805" lon="9.702029200270772">
        <ele>334.16000000000003</ele>
        <time>2019-04-07T11:46:22Z</time>
      </trkpt>
      <trkpt lat="44.131972286850214" lon="9.702005479484797">
        <ele>334.06999999999999</ele>
        <time>2019-04-07T11:46:30Z</time>
      </trkpt>
      <trkpt lat="44.131956528872252" lon="9.701957954093814">
        <ele>333.38</ele>
        <time>2019-04-07T11:46:40Z</time>
      </trkpt>
      <trkpt lat="44.131966000422835" lon="9.70199198462069">
        <ele>334</ele>
        <time>2019-04-07T11:46:55Z</time>
      </trkpt>
      <trkpt lat="44.132002629339695" lon="9.702013023197651">
        <ele>333.63999999999999</ele>
        <time>2019-04-07T11:47:08Z</time>
      </trkpt>
      <trkpt lat="44.132039593532681" lon="9.702020986005664">
        <ele>334.89999999999998</ele>
        <time>2019-04-07T11:47:20Z</time>
      </trkpt>
      <trkpt lat="44.132048226892948" lon="9.702024254947901">
        <ele>334.52999999999997</ele>
        <time>2019-04-07T11:47:22Z</time>
      </trkpt>
      <trkpt lat="44.132062895223498" lon="9.702016543596983">
        <ele>334.19</ele>
        <time>2019-04-07T11:47:24Z</time>
      </trkpt>
      <trkpt lat="44.132078150287271" lon="9.702006066218019">
        <ele>334.04000000000002</ele>
        <time>2019-04-07T11:47:26Z</time>
      </trkpt>
      <trkpt lat="44.132149815559387" lon="9.702086113393307">
        <ele>334</ele>
        <time>2019-04-07T11:47:35Z</time>
      </trkpt>
      <trkpt lat="44.132166747003794" lon="9.702109834179282">
        <ele>334.01999999999998</ele>
        <time>2019-04-07T11:47:37Z</time>
      </trkpt>
      <trkpt lat="44.132210081443191" lon="9.702218044549227">
        <ele>334.74000000000001</ele>
        <time>2019-04-07T11:47:46Z</time>
      </trkpt>
      <trkpt lat="44.132326254621148" lon="9.702360201627016">
        <ele>335.32999999999998</ele>
        <time>2019-04-07T11:47:59Z</time>
      </trkpt>
      <trkpt lat="44.1323874425143" lon="9.70242340117693">
        <ele>336.13999999999999</ele>
        <time>2019-04-07T11:48:08Z</time>
      </trkpt>
      <trkpt lat="44.132393142208457" lon="9.702502442523837">
        <ele>337.32999999999998</ele>
        <time>2019-04-07T11:48:18Z</time>
      </trkpt>
      <trkpt lat="44.132420551031828" lon="9.702528426423669">
        <ele>338.56</ele>
        <time>2019-04-07T11:48:23Z</time>
      </trkpt>
      <trkpt lat="44.132447876036167" lon="9.70253974199295">
        <ele>338.89999999999998</ele>
        <time>2019-04-07T11:48:26Z</time>
      </trkpt>
      <trkpt lat="44.132546447217464" lon="9.702618615701795">
        <ele>341.62</ele>
        <time>2019-04-07T11:48:40Z</time>
      </trkpt>
      <trkpt lat="44.13257067091763" lon="9.702672930434346">
        <ele>342.76999999999998</ele>
        <time>2019-04-07T11:48:44Z</time>
      </trkpt>
      <trkpt lat="44.132586512714624" lon="9.702905276790261">
        <ele>342.31999999999999</ele>
        <time>2019-04-07T11:48:59Z</time>
      </trkpt>
      <trkpt lat="44.132550386711955" lon="9.703117338940501">
        <ele>341.56</ele>
        <time>2019-04-07T11:49:12Z</time>
      </trkpt>
      <trkpt lat="44.13254527375102" lon="9.703184394165874">
        <ele>341.43000000000001</ele>
        <time>2019-04-07T11:49:16Z</time>
      </trkpt>
      <trkpt lat="44.132557930424809" lon="9.703268297016621">
        <ele>341.26999999999998</ele>
        <time>2019-04-07T11:49:21Z</time>
      </trkpt>
      <trkpt lat="44.132582740858197" lon="9.703302746638656">
        <ele>341.07999999999998</ele>
        <time>2019-04-07T11:49:24Z</time>
      </trkpt>
      <trkpt lat="44.132711654528975" lon="9.703378938138485">
        <ele>340.57999999999998</ele>
        <time>2019-04-07T11:49:37Z</time>
      </trkpt>
      <trkpt lat="44.132717102766037" lon="9.703384805470705">
        <ele>337.47000000000003</ele>
        <time>2019-04-07T11:49:38Z</time>
      </trkpt>
      <trkpt lat="44.132724395021796" lon="9.703389247879386">
        <ele>338.38999999999999</ele>
        <time>2019-04-07T11:49:39Z</time>
      </trkpt>
      <trkpt lat="44.132773177698255" lon="9.703414477407932">
        <ele>336.94</ele>
        <time>2019-04-07T11:49:45Z</time>
      </trkpt>
      <trkpt lat="44.132874766364694" lon="9.703466612845659">
        <ele>337.43000000000001</ele>
        <time>2019-04-07T11:49:56Z</time>
      </trkpt>
      <trkpt lat="44.132970655336976" lon="9.703629054129124">
        <ele>335.62</ele>
        <time>2019-04-07T11:50:09Z</time>
      </trkpt>
      <trkpt lat="44.133088085800409" lon="9.703817395493388">
        <ele>333.20999999999998</ele>
        <time>2019-04-07T11:50:24Z</time>
      </trkpt>
      <trkpt lat="44.133181208744645" lon="9.70400414429605">
        <ele>330.57999999999998</ele>
        <time>2019-04-07T11:50:37Z</time>
      </trkpt>
      <trkpt lat="44.133249018341303" lon="9.704186702147126">
        <ele>329.13999999999999</ele>
        <time>2019-04-07T11:50:49Z</time>
      </trkpt>
      <trkpt lat="44.133307104930282" lon="9.704289799556136">
        <ele>328.54000000000002</ele>
        <time>2019-04-07T11:50:58Z</time>
      </trkpt>
      <trkpt lat="44.133403161540627" lon="9.70428803935647">
        <ele>326.98000000000002</ele>
        <time>2019-04-07T11:51:08Z</time>
      </trkpt>
      <trkpt lat="44.133510701358318" lon="9.704120485112071">
        <ele>324.54000000000002</ele>
        <time>2019-04-07T11:51:24Z</time>
      </trkpt>
      <trkpt lat="44.133603572845459" lon="9.703946895897389">
        <ele>323.49000000000001</ele>
        <time>2019-04-07T11:51:38Z</time>
      </trkpt>
      <trkpt lat="44.133690493181348" lon="9.703722009435296">
        <ele>323.66000000000003</ele>
        <time>2019-04-07T11:51:54Z</time>
      </trkpt>
      <trkpt lat="44.133712453767657" lon="9.7036337479949">
        <ele>324.43000000000001</ele>
        <time>2019-04-07T11:52:05Z</time>
      </trkpt>
      <trkpt lat="44.133741874247789" lon="9.70357465557754">
        <ele>325.43000000000001</ele>
        <time>2019-04-07T11:52:10Z</time>
      </trkpt>
      <trkpt lat="44.133826782926917" lon="9.703413136303425">
        <ele>326.45999999999998</ele>
        <time>2019-04-07T11:52:25Z</time>
      </trkpt>
      <trkpt lat="44.133903309702873" lon="9.703235356137157">
        <ele>326.66000000000003</ele>
        <time>2019-04-07T11:52:39Z</time>
      </trkpt>
      <trkpt lat="44.133997019380331" lon="9.703130582347512">
        <ele>326.81</ele>
        <time>2019-04-07T11:52:51Z</time>
      </trkpt>
      <trkpt lat="44.134093746542931" lon="9.702998735010624">
        <ele>327.77999999999997</ele>
        <time>2019-04-07T11:53:03Z</time>
      </trkpt>
      <trkpt lat="44.134204974398017" lon="9.702880969271064">
        <ele>328.81</ele>
        <time>2019-04-07T11:53:17Z</time>
      </trkpt>
      <trkpt lat="44.134259875863791" lon="9.702889770269394">
        <ele>331.68000000000001</ele>
        <time>2019-04-07T11:53:30Z</time>
      </trkpt>
      <trkpt lat="44.134314022958279" lon="9.702840484678745">
        <ele>331.92000000000002</ele>
        <time>2019-04-07T11:53:37Z</time>
      </trkpt>
      <trkpt lat="44.13442156277597" lon="9.702719282358885">
        <ele>332.79000000000002</ele>
        <time>2019-04-07T11:53:52Z</time>
      </trkpt>
      <trkpt lat="44.134425586089492" lon="9.702711822465062">
        <ele>332.62</ele>
        <time>2019-04-07T11:53:53Z</time>
      </trkpt>
      <trkpt lat="44.134465819224715" lon="9.702676786109805">
        <ele>333</ele>
        <time>2019-04-07T11:53:57Z</time>
      </trkpt>
      <trkpt lat="44.134632535278797" lon="9.702582322061062">
        <ele>332.81</ele>
        <time>2019-04-07T11:54:13Z</time>
      </trkpt>
      <trkpt lat="44.13474309258163" lon="9.702550387009978">
        <ele>332.85000000000002</ele>
        <time>2019-04-07T11:54:28Z</time>
      </trkpt>
      <trkpt lat="44.134775949642062" lon="9.702568156644702">
        <ele>332.70999999999998</ele>
        <time>2019-04-07T11:54:35Z</time>
      </trkpt>
      <trkpt lat="44.134829761460423" lon="9.702635128051043">
        <ele>331.75999999999999</ele>
        <time>2019-04-07T11:54:48Z</time>
      </trkpt>
      <trkpt lat="44.134833114221692" lon="9.702637307345867">
        <ele>331.72000000000003</ele>
        <time>2019-04-07T11:54:49Z</time>
      </trkpt>
      <trkpt lat="44.134848620742559" lon="9.702769322320819">
        <ele>331.62</ele>
        <time>2019-04-07T11:54:58Z</time>
      </trkpt>
      <trkpt lat="44.134825151413679" lon="9.70292623154819">
        <ele>333.00999999999999</ele>
        <time>2019-04-07T11:55:08Z</time>
      </trkpt>
      <trkpt lat="44.134818278253078" lon="9.703057492151856">
        <ele>333.00999999999999</ele>
        <time>2019-04-07T11:55:15Z</time>
      </trkpt>
      <trkpt lat="44.134816769510508" lon="9.703173078596592">
        <ele>332.88</ele>
        <time>2019-04-07T11:55:21Z</time>
      </trkpt>
      <trkpt lat="44.134801765903831" lon="9.703277936205268">
        <ele>332.85000000000002</ele>
        <time>2019-04-07T11:55:27Z</time>
      </trkpt>
      <trkpt lat="44.134808806702495" lon="9.703371142968535">
        <ele>332.56999999999999</ele>
        <time>2019-04-07T11:55:32Z</time>
      </trkpt>
      <trkpt lat="44.134816853329539" lon="9.703419841825962">
        <ele>332.20999999999998</ele>
        <time>2019-04-07T11:55:35Z</time>
      </trkpt>
      <trkpt lat="44.134766310453415" lon="9.703540876507759">
        <ele>333.18000000000001</ele>
        <time>2019-04-07T11:55:44Z</time>
      </trkpt>
      <trkpt lat="44.134711744263768" lon="9.703774899244309">
        <ele>333.97000000000003</ele>
        <time>2019-04-07T11:55:56Z</time>
      </trkpt>
      <trkpt lat="44.134703613817692" lon="9.703849833458662">
        <ele>334.06</ele>
        <time>2019-04-07T11:56:00Z</time>
      </trkpt>
      <trkpt lat="44.13469179533422" lon="9.704061644151807">
        <ele>333.74000000000001</ele>
        <time>2019-04-07T11:56:13Z</time>
      </trkpt>
      <trkpt lat="44.134678887203336" lon="9.704181170091033">
        <ele>333.55000000000001</ele>
        <time>2019-04-07T11:56:20Z</time>
      </trkpt>
      <trkpt lat="44.134648963809013" lon="9.704374959692359">
        <ele>333.77999999999997</ele>
        <time>2019-04-07T11:56:32Z</time>
      </trkpt>
      <trkpt lat="44.134569838643074" lon="9.704543855041266">
        <ele>332.61000000000001</ele>
        <time>2019-04-07T11:56:45Z</time>
      </trkpt>
      <trkpt lat="44.134569671005011" lon="9.704553075134754">
        <ele>332.37</ele>
        <time>2019-04-07T11:56:46Z</time>
      </trkpt>
      <trkpt lat="44.134558020159602" lon="9.704604372382164">
        <ele>331.63999999999999</ele>
        <time>2019-04-07T11:56:49Z</time>
      </trkpt>
      <trkpt lat="44.134537987411022" lon="9.704658016562462">
        <ele>331</ele>
        <time>2019-04-07T11:56:52Z</time>
      </trkpt>
      <trkpt lat="44.134522145614028" lon="9.70478399656713">
        <ele>329.44</ele>
        <time>2019-04-07T11:56:59Z</time>
      </trkpt>
      <trkpt lat="44.134531617164612" lon="9.70497502014041">
        <ele>327.98000000000002</ele>
        <time>2019-04-07T11:57:11Z</time>
      </trkpt>
      <trkpt lat="44.134550392627716" lon="9.705008296296001">
        <ele>326.47000000000003</ele>
        <time>2019-04-07T11:57:14Z</time>
      </trkpt>
      <trkpt lat="44.134540585801005" lon="9.705046182498336">
        <ele>325.79000000000002</ele>
        <time>2019-04-07T11:57:17Z</time>
      </trkpt>
      <trkpt lat="44.134527090936899" lon="9.705191105604172">
        <ele>328.13</ele>
        <time>2019-04-07T11:57:29Z</time>
      </trkpt>
      <trkpt lat="44.134519631043077" lon="9.705241983756423">
        <ele>328.20999999999998</ele>
        <time>2019-04-07T11:57:32Z</time>
      </trkpt>
      <trkpt lat="44.134516194462776" lon="9.705343320965767">
        <ele>327.81</ele>
        <time>2019-04-07T11:57:37Z</time>
      </trkpt>
      <trkpt lat="44.134582914412022" lon="9.705398725345731">
        <ele>328.60000000000002</ele>
        <time>2019-04-07T11:57:47Z</time>
      </trkpt>
      <trkpt lat="44.134605880826712" lon="9.705388331785798">
        <ele>328.86000000000001</ele>
        <time>2019-04-07T11:57:50Z</time>
      </trkpt>
      <trkpt lat="44.13463119417429" lon="9.705370143055916">
        <ele>328.69</ele>
        <time>2019-04-07T11:57:53Z</time>
      </trkpt>
      <trkpt lat="44.134723227471113" lon="9.705390259623528">
        <ele>328.52999999999997</ele>
        <time>2019-04-07T11:58:04Z</time>
      </trkpt>
      <trkpt lat="44.134730519726872" lon="9.70536008477211">
        <ele>328.39999999999998</ele>
        <time>2019-04-07T11:58:11Z</time>
      </trkpt>
      <trkpt lat="44.13474652916193" lon="9.705349691212177">
        <ele>328.44</ele>
        <time>2019-04-07T11:58:13Z</time>
      </trkpt>
      <trkpt lat="44.134797491133213" lon="9.705363353714347">
        <ele>328.07999999999998</ele>
        <time>2019-04-07T11:58:17Z</time>
      </trkpt>
      <trkpt lat="44.134913077577949" lon="9.705391936004162">
        <ele>327.75999999999999</ele>
        <time>2019-04-07T11:58:26Z</time>
      </trkpt>
      <trkpt lat="44.135077865794301" lon="9.705399312078953">
        <ele>328.06</ele>
        <time>2019-04-07T11:58:39Z</time>
      </trkpt>
      <trkpt lat="44.135152129456401" lon="9.705418674275279">
        <ele>325.52999999999997</ele>
        <time>2019-04-07T11:58:46Z</time>
      </trkpt>
      <trkpt lat="44.135299818590283" lon="9.705414064228535">
        <ele>325.61000000000001</ele>
        <time>2019-04-07T11:58:58Z</time>
      </trkpt>
      <trkpt lat="44.135457817465067" lon="9.705466283485293">
        <ele>323.57999999999998</ele>
        <time>2019-04-07T11:59:09Z</time>
      </trkpt>
      <trkpt lat="44.135519424453378" lon="9.705656971782446">
        <ele>323.25999999999999</ele>
        <time>2019-04-07T11:59:20Z</time>
      </trkpt>
      <trkpt lat="44.135523783043027" lon="9.705677004531026">
        <ele>323.36000000000001</ele>
        <time>2019-04-07T11:59:21Z</time>
      </trkpt>
      <trkpt lat="44.135533254593611" lon="9.705748418346047">
        <ele>323.80000000000001</ele>
        <time>2019-04-07T11:59:25Z</time>
      </trkpt>
      <trkpt lat="44.135554293170571" lon="9.70582720823586">
        <ele>323.69999999999999</ele>
        <time>2019-04-07T11:59:29Z</time>
      </trkpt>
      <trkpt lat="44.135575918480754" lon="9.70599140971899">
        <ele>324.41000000000003</ele>
        <time>2019-04-07T11:59:39Z</time>
      </trkpt>
      <trkpt lat="44.13557717576623" lon="9.706070702522993">
        <ele>325.07999999999998</ele>
        <time>2019-04-07T11:59:44Z</time>
      </trkpt>
      <trkpt lat="44.135497128590941" lon="9.706176063045859">
        <ele>326.69999999999999</ele>
        <time>2019-04-07T11:59:54Z</time>
      </trkpt>
      <trkpt lat="44.135448513552547" lon="9.706253679469228">
        <ele>327.91000000000003</ele>
        <time>2019-04-07T12:00:01Z</time>
      </trkpt>
      <trkpt lat="44.135394617915154" lon="9.706371445208788">
        <ele>329.72000000000003</ele>
        <time>2019-04-07T12:00:12Z</time>
      </trkpt>
      <trkpt lat="44.135375590994954" lon="9.706438919529319">
        <ele>330.68000000000001</ele>
        <time>2019-04-07T12:00:22Z</time>
      </trkpt>
      <trkpt lat="44.135430073365569" lon="9.706464735791087">
        <ele>327.73000000000002</ele>
        <time>2019-04-07T12:00:32Z</time>
      </trkpt>
      <trkpt lat="44.135451531037688" lon="9.706503795459867">
        <ele>326.35000000000002</ele>
        <time>2019-04-07T12:00:35Z</time>
      </trkpt>
      <trkpt lat="44.135486651211977" lon="9.706520223990083">
        <ele>325.87</ele>
        <time>2019-04-07T12:00:40Z</time>
      </trkpt>
      <trkpt lat="44.135487573221326" lon="9.706502873450518">
        <ele>325.89999999999998</ele>
        <time>2019-04-07T12:00:50Z</time>
      </trkpt>
      <trkpt lat="44.135500816628337" lon="9.706484852358699">
        <ele>325.63</ele>
        <time>2019-04-07T12:00:52Z</time>
      </trkpt>
      <trkpt lat="44.135522190481424" lon="9.70641209743917">
        <ele>325.25</ele>
        <time>2019-04-07T12:01:02Z</time>
      </trkpt>
      <trkpt lat="44.135552952066064" lon="9.70637203194201">
        <ele>324.75999999999999</ele>
        <time>2019-04-07T12:01:06Z</time>
      </trkpt>
      <trkpt lat="44.135688571259379" lon="9.706238005310297">
        <ele>321.66000000000003</ele>
        <time>2019-04-07T12:01:19Z</time>
      </trkpt>
      <trkpt lat="44.135781778022647" lon="9.706206154078245">
        <ele>322.22000000000003</ele>
        <time>2019-04-07T12:01:30Z</time>
      </trkpt>
      <trkpt lat="44.135816227644682" lon="9.70611747354269">
        <ele>321.35000000000002</ele>
        <time>2019-04-07T12:01:37Z</time>
      </trkpt>
      <trkpt lat="44.135869117453694" lon="9.705966683104634">
        <ele>319.79000000000002</ele>
        <time>2019-04-07T12:01:48Z</time>
      </trkpt>
      <trkpt lat="44.135985374450684" lon="9.705834584310651">
        <ele>320.07999999999998</ele>
        <time>2019-04-07T12:02:00Z</time>
      </trkpt>
      <trkpt lat="44.136095093563199" lon="9.705776078626514">
        <ele>320.11000000000001</ele>
        <time>2019-04-07T12:02:09Z</time>
      </trkpt>
      <trkpt lat="44.136216714978218" lon="9.705699635669589">
        <ele>320.22000000000003</ele>
        <time>2019-04-07T12:02:20Z</time>
      </trkpt>
      <trkpt lat="44.136275807395577" lon="9.705680357292295">
        <ele>321.25999999999999</ele>
        <time>2019-04-07T12:02:26Z</time>
      </trkpt>
      <trkpt lat="44.136339593678713" lon="9.705650098621845">
        <ele>319.73000000000002</ele>
        <time>2019-04-07T12:02:31Z</time>
      </trkpt>
      <trkpt lat="44.136413522064686" lon="9.705619923770428">
        <ele>317.23000000000002</ele>
        <time>2019-04-07T12:02:42Z</time>
      </trkpt>
      <trkpt lat="44.136497424915433" lon="9.705617995932698">
        <ele>315.12</ele>
        <time>2019-04-07T12:02:54Z</time>
      </trkpt>
      <trkpt lat="44.136519217863679" lon="9.705617744475603">
        <ele>315.35000000000002</ele>
        <time>2019-04-07T12:03:15Z</time>
      </trkpt>
      <trkpt lat="44.13654612377286" lon="9.705602489411831">
        <ele>316.20999999999998</ele>
        <time>2019-04-07T12:03:33Z</time>
      </trkpt>
      <trkpt lat="44.136515110731125" lon="9.705514311790466">
        <ele>316.56</ele>
        <time>2019-04-07T12:03:41Z</time>
      </trkpt>
      <trkpt lat="44.136497424915433" lon="9.705481873825193">
        <ele>316.32999999999998</ele>
        <time>2019-04-07T12:03:43Z</time>
      </trkpt>
      <trkpt lat="44.136444116011262" lon="9.705348769202828">
        <ele>316.26999999999998</ele>
        <time>2019-04-07T12:03:55Z</time>
      </trkpt>
      <trkpt lat="44.136341437697411" lon="9.705188842490315">
        <ele>314.26999999999998</ele>
        <time>2019-04-07T12:04:09Z</time>
      </trkpt>
      <trkpt lat="44.136320147663355" lon="9.704996142536402">
        <ele>315.05000000000001</ele>
        <time>2019-04-07T12:04:20Z</time>
      </trkpt>
      <trkpt lat="44.136310592293739" lon="9.704799251630902">
        <ele>315.31</ele>
        <time>2019-04-07T12:04:33Z</time>
      </trkpt>
      <trkpt lat="44.136312017217278" lon="9.704792965203524">
        <ele>315.26999999999998</ele>
        <time>2019-04-07T12:04:34Z</time>
      </trkpt>
      <trkpt lat="44.136320231482387" lon="9.704713588580489">
        <ele>314.87</ele>
        <time>2019-04-07T12:04:38Z</time>
      </trkpt>
      <trkpt lat="44.136359458789229" lon="9.704615017399192">
        <ele>316.16000000000003</ele>
        <time>2019-04-07T12:04:49Z</time>
      </trkpt>
      <trkpt lat="44.136363565921783" lon="9.704607641324401">
        <ele>316.50999999999999</ele>
        <time>2019-04-07T12:04:50Z</time>
      </trkpt>
      <trkpt lat="44.136385442689061" lon="9.704561959952116">
        <ele>317.29000000000002</ele>
        <time>2019-04-07T12:04:54Z</time>
      </trkpt>
      <trkpt lat="44.136532377451658" lon="9.704363476485014">
        <ele>317.69</ele>
        <time>2019-04-07T12:05:13Z</time>
      </trkpt>
      <trkpt lat="44.136536736041307" lon="9.704358531162143">
        <ele>317.72000000000003</ele>
        <time>2019-04-07T12:05:15Z</time>
      </trkpt>
      <trkpt lat="44.136554589495063" lon="9.704347047954798">
        <ele>317.62</ele>
        <time>2019-04-07T12:05:17Z</time>
      </trkpt>
      <trkpt lat="44.136702278628945" lon="9.70424797385931">
        <ele>317.39999999999998</ele>
        <time>2019-04-07T12:05:32Z</time>
      </trkpt>
      <trkpt lat="44.136729184538126" lon="9.704218301922083">
        <ele>316.42000000000002</ele>
        <time>2019-04-07T12:05:39Z</time>
      </trkpt>
      <trkpt lat="44.136764723807573" lon="9.704178990796208">
        <ele>315.23000000000002</ele>
        <time>2019-04-07T12:05:43Z</time>
      </trkpt>
      <trkpt lat="44.136800933629274" lon="9.704133728519082">
        <ele>314.39999999999998</ele>
        <time>2019-04-07T12:05:49Z</time>
      </trkpt>
      <trkpt lat="44.136908641085029" lon="9.703949829563499">
        <ele>314.23000000000002</ele>
        <time>2019-04-07T12:06:03Z</time>
      </trkpt>
      <trkpt lat="44.136935379356146" lon="9.703897945582867">
        <ele>313.79000000000002</ele>
        <time>2019-04-07T12:06:07Z</time>
      </trkpt>
      <trkpt lat="44.136968906968832" lon="9.703790992498398">
        <ele>313.83999999999997</ele>
        <time>2019-04-07T12:06:13Z</time>
      </trkpt>
      <trkpt lat="44.137060604989529" lon="9.703521346673369">
        <ele>313.85000000000002</ele>
        <time>2019-04-07T12:06:30Z</time>
      </trkpt>
      <trkpt lat="44.137131599709392" lon="9.703432330861688">
        <ele>313.97000000000003</ele>
        <time>2019-04-07T12:06:39Z</time>
      </trkpt>
      <trkpt lat="44.137247521430254" lon="9.703299226239324">
        <ele>313.91000000000003</ele>
        <time>2019-04-07T12:06:53Z</time>
      </trkpt>
      <trkpt lat="44.137393115088344" lon="9.703157907351852">
        <ele>313.57999999999998</ele>
        <time>2019-04-07T12:07:08Z</time>
      </trkpt>
      <trkpt lat="44.137487579137087" lon="9.703216832131147">
        <ele>314.05000000000001</ele>
        <time>2019-04-07T12:07:18Z</time>
      </trkpt>
      <trkpt lat="44.137601908296347" lon="9.703309955075383">
        <ele>314.55000000000001</ele>
        <time>2019-04-07T12:07:30Z</time>
      </trkpt>
      <trkpt lat="44.137692768126726" lon="9.703388325870037">
        <ele>314.17000000000002</ele>
        <time>2019-04-07T12:07:41Z</time>
      </trkpt>
      <trkpt lat="44.137715985998511" lon="9.703399306163192">
        <ele>313.94999999999999</ele>
        <time>2019-04-07T12:07:43Z</time>
      </trkpt>
      <trkpt lat="44.137768959626555" lon="9.703414309769869">
        <ele>313.13999999999999</ele>
        <time>2019-04-07T12:07:48Z</time>
      </trkpt>
      <trkpt lat="44.137884462252259" lon="9.703245665878058">
        <ele>312.41000000000003</ele>
        <time>2019-04-07T12:08:01Z</time>
      </trkpt>
      <trkpt lat="44.13798957131803" lon="9.703162601217628">
        <ele>312.68000000000001</ele>
        <time>2019-04-07T12:08:12Z</time>
      </trkpt>
      <trkpt lat="44.138010693714023" lon="9.703158074989915">
        <ele>313.27999999999997</ele>
        <time>2019-04-07T12:08:14Z</time>
      </trkpt>
      <trkpt lat="44.138033408671618" lon="9.703129660338163">
        <ele>313.22000000000003</ele>
        <time>2019-04-07T12:08:16Z</time>
      </trkpt>
      <trkpt lat="44.138061236590147" lon="9.703051457181573">
        <ele>312.01999999999998</ele>
        <time>2019-04-07T12:08:23Z</time>
      </trkpt>
      <trkpt lat="44.138094764202833" lon="9.703009547665715">
        <ele>311.51999999999998</ele>
        <time>2019-04-07T12:08:27Z</time>
      </trkpt>
      <trkpt lat="44.138251505792141" lon="9.702921537682414">
        <ele>310.45999999999998</ele>
        <time>2019-04-07T12:08:41Z</time>
      </trkpt>
      <trkpt lat="44.138332139700651" lon="9.702882980927825">
        <ele>310.43000000000001</ele>
        <time>2019-04-07T12:08:48Z</time>
      </trkpt>
      <trkpt lat="44.13845325820148" lon="9.702789187431335">
        <ele>308.86000000000001</ele>
        <time>2019-04-07T12:08:59Z</time>
      </trkpt>
      <trkpt lat="44.138595415279269" lon="9.702672427520156">
        <ele>308.63999999999999</ele>
        <time>2019-04-07T12:09:11Z</time>
      </trkpt>
      <trkpt lat="44.138660542666912" lon="9.702615682035685">
        <ele>308.42000000000002</ele>
        <time>2019-04-07T12:09:17Z</time>
      </trkpt>
      <trkpt lat="44.138716533780098" lon="9.702531779184938">
        <ele>307.44</ele>
        <time>2019-04-07T12:09:24Z</time>
      </trkpt>
      <trkpt lat="44.138774955645204" lon="9.702472938224673">
        <ele>307.92000000000002</ele>
        <time>2019-04-07T12:09:32Z</time>
      </trkpt>
      <trkpt lat="44.138791635632515" lon="9.702449133619666">
        <ele>308.19999999999999</ele>
        <time>2019-04-07T12:09:34Z</time>
      </trkpt>
      <trkpt lat="44.138829186558723" lon="9.702400267124176">
        <ele>308.97000000000003</ele>
        <time>2019-04-07T12:09:41Z</time>
      </trkpt>
      <trkpt lat="44.138860702514648" lon="9.70234477892518">
        <ele>308.44999999999999</ele>
        <time>2019-04-07T12:09:45Z</time>
      </trkpt>
      <trkpt lat="44.138954412192106" lon="9.70217471010983">
        <ele>309.73000000000002</ele>
        <time>2019-04-07T12:09:58Z</time>
      </trkpt>
      <trkpt lat="44.138978300616145" lon="9.70210681669414">
        <ele>310.06</ele>
        <time>2019-04-07T12:10:03Z</time>
      </trkpt>
      <trkpt lat="44.139021970331669" lon="9.701954685151577">
        <ele>309.97000000000003</ele>
        <time>2019-04-07T12:10:13Z</time>
      </trkpt>
      <trkpt lat="44.139084666967392" lon="9.701939094811678">
        <ele>310.87</ele>
        <time>2019-04-07T12:10:19Z</time>
      </trkpt>
      <trkpt lat="44.139103693887591" lon="9.702000953257084">
        <ele>312.25</ele>
        <time>2019-04-07T12:10:31Z</time>
      </trkpt>
      <trkpt lat="44.139114255085588" lon="9.702005563303828">
        <ele>312.29000000000002</ele>
        <time>2019-04-07T12:10:46Z</time>
      </trkpt>
      <trkpt lat="44.139106040820479" lon="9.702017717063427">
        <ele>312.31999999999999</ele>
        <time>2019-04-07T12:11:04Z</time>
      </trkpt>
      <trkpt lat="44.139110064134002" lon="9.702027859166265">
        <ele>311.68000000000001</ele>
        <time>2019-04-07T12:11:17Z</time>
      </trkpt>
      <trkpt lat="44.139101263135672" lon="9.7020398452878">
        <ele>312.04000000000002</ele>
        <time>2019-04-07T12:11:40Z</time>
      </trkpt>
      <trkpt lat="44.139102520421147" lon="9.702034397050738">
        <ele>312.51999999999998</ele>
        <time>2019-04-07T12:11:58Z</time>
      </trkpt>
      <trkpt lat="44.139097910374403" lon="9.702028026804328">
        <ele>312.70999999999998</ele>
        <time>2019-04-07T12:12:15Z</time>
      </trkpt>
      <trkpt lat="44.139090115204453" lon="9.702018471434712">
        <ele>312.52999999999997</ele>
        <time>2019-04-07T12:12:31Z</time>
      </trkpt>
      <trkpt lat="44.139092294499278" lon="9.702015034854412">
        <ele>312.27999999999997</ele>
        <time>2019-04-07T12:12:42Z</time>
      </trkpt>
      <trkpt lat="44.139095228165388" lon="9.702034648507834">
        <ele>312.81</ele>
        <time>2019-04-07T12:13:00Z</time>
      </trkpt>
      <trkpt lat="44.139086343348026" lon="9.702009335160255">
        <ele>312.10000000000002</ele>
        <time>2019-04-07T12:13:18Z</time>
      </trkpt>
      <trkpt lat="44.139089277014136" lon="9.702007910236716">
        <ele>312.37</ele>
        <time>2019-04-07T12:13:27Z</time>
      </trkpt>
      <trkpt lat="44.139088522642851" lon="9.702014029026032">
        <ele>312.74000000000001</ele>
        <time>2019-04-07T12:13:41Z</time>
      </trkpt>
      <trkpt lat="44.139122469350696" lon="9.702136572450399">
        <ele>314.39999999999998</ele>
        <time>2019-04-07T12:13:54Z</time>
      </trkpt>
      <trkpt lat="44.139127749949694" lon="9.702193234115839">
        <ele>315.24000000000001</ele>
        <time>2019-04-07T12:13:58Z</time>
      </trkpt>
      <trkpt lat="44.139135796576738" lon="9.702255511656404">
        <ele>315.82999999999998</ele>
        <time>2019-04-07T12:14:02Z</time>
      </trkpt>
      <trkpt lat="44.139155829325318" lon="9.702365146949887">
        <ele>316.94</ele>
        <time>2019-04-07T12:14:10Z</time>
      </trkpt>
      <trkpt lat="44.139240570366383" lon="9.70250696875155">
        <ele>317.68000000000001</ele>
        <time>2019-04-07T12:14:21Z</time>
      </trkpt>
      <trkpt lat="44.139300081878901" lon="9.702614676207304">
        <ele>319.22000000000003</ele>
        <time>2019-04-07T12:14:32Z</time>
      </trkpt>
      <trkpt lat="44.139382308349013" lon="9.702678630128503">
        <ele>318.77999999999997</ele>
        <time>2019-04-07T12:14:42Z</time>
      </trkpt>
      <trkpt lat="44.139529829844832" lon="9.70274006947875">
        <ele>315.58999999999997</ele>
        <time>2019-04-07T12:14:55Z</time>
      </trkpt>
      <trkpt lat="44.139678860083222" lon="9.702809974551201">
        <ele>313.07999999999998</ele>
        <time>2019-04-07T12:15:07Z</time>
      </trkpt>
      <trkpt lat="44.139795871451497" lon="9.702918604016304">
        <ele>310.85000000000002</ele>
        <time>2019-04-07T12:15:20Z</time>
      </trkpt>
      <trkpt lat="44.139803666621447" lon="9.702926147729158">
        <ele>310.81999999999999</ele>
        <time>2019-04-07T12:15:21Z</time>
      </trkpt>
      <trkpt lat="44.139923946931958" lon="9.703041817992926">
        <ele>310.79000000000002</ele>
        <time>2019-04-07T12:15:32Z</time>
      </trkpt>
      <trkpt lat="44.140006927773356" lon="9.703189004212618">
        <ele>309.20999999999998</ele>
        <time>2019-04-07T12:15:43Z</time>
      </trkpt>
      <trkpt lat="44.140128465369344" lon="9.703310122713447">
        <ele>307.25</ele>
        <time>2019-04-07T12:15:55Z</time>
      </trkpt>
      <trkpt lat="44.140220414847136" lon="9.70346711575985">
        <ele>307.38</ele>
        <time>2019-04-07T12:16:06Z</time>
      </trkpt>
      <trkpt lat="44.140239022672176" lon="9.703532326966524">
        <ele>307.37</ele>
        <time>2019-04-07T12:16:10Z</time>
      </trkpt>
      <trkpt lat="44.140273472294211" lon="9.703638609498739">
        <ele>306.89999999999998</ele>
        <time>2019-04-07T12:16:16Z</time>
      </trkpt>
      <trkpt lat="44.14030322805047" lon="9.703675406053662">
        <ele>306.73000000000002</ele>
        <time>2019-04-07T12:16:19Z</time>
      </trkpt>
      <trkpt lat="44.140417305752635" lon="9.703716477379203">
        <ele>304.44999999999999</ele>
        <time>2019-04-07T12:16:29Z</time>
      </trkpt>
      <trkpt lat="44.140454353764653" lon="9.70374858006835">
        <ele>303.39999999999998</ele>
        <time>2019-04-07T12:16:33Z</time>
      </trkpt>
      <trkpt lat="44.140580585226417" lon="9.703713124617934">
        <ele>300.99000000000001</ele>
        <time>2019-04-07T12:16:45Z</time>
      </trkpt>
      <trkpt lat="44.140590894967318" lon="9.703688900917769">
        <ele>300.22000000000003</ele>
        <time>2019-04-07T12:16:47Z</time>
      </trkpt>
      <trkpt lat="44.140659123659134" lon="9.70364841632545">
        <ele>298.35000000000002</ele>
        <time>2019-04-07T12:16:53Z</time>
      </trkpt>
      <trkpt lat="44.140754258260131" lon="9.703579936176539">
        <ele>295.74000000000001</ele>
        <time>2019-04-07T12:17:05Z</time>
      </trkpt>
      <trkpt lat="44.140861295163631" lon="9.703548084944487">
        <ele>295.5</ele>
        <time>2019-04-07T12:17:16Z</time>
      </trkpt>
      <trkpt lat="44.140888620167971" lon="9.703529477119446">
        <ele>294.69</ele>
        <time>2019-04-07T12:17:21Z</time>
      </trkpt>
      <trkpt lat="44.140920890495181" lon="9.703527968376875">
        <ele>293.92000000000002</ele>
        <time>2019-04-07T12:17:24Z</time>
      </trkpt>
      <trkpt lat="44.140990460291505" lon="9.703573565930128">
        <ele>292.51999999999998</ele>
        <time>2019-04-07T12:17:34Z</time>
      </trkpt>
      <trkpt lat="44.141029771417379" lon="9.703629808500409">
        <ele>291.31</ele>
        <time>2019-04-07T12:17:40Z</time>
      </trkpt>
      <trkpt lat="44.141050726175308" lon="9.703669119626284">
        <ele>290.75999999999999</ele>
        <time>2019-04-07T12:17:43Z</time>
      </trkpt>
      <trkpt lat="44.141124151647091" lon="9.703751094639301">
        <ele>292.89999999999998</ele>
        <time>2019-04-07T12:17:54Z</time>
      </trkpt>
      <trkpt lat="44.141134126111865" lon="9.70375738106668">
        <ele>293.05000000000001</ele>
        <time>2019-04-07T12:17:55Z</time>
      </trkpt>
      <trkpt lat="44.141194308176637" lon="9.703913116827607">
        <ele>293</ele>
        <time>2019-04-07T12:18:06Z</time>
      </trkpt>
      <trkpt lat="44.141201684251428" lon="9.703941699117422">
        <ele>293.12</ele>
        <time>2019-04-07T12:18:08Z</time>
      </trkpt>
      <trkpt lat="44.141256753355265" lon="9.704062566161156">
        <ele>292.19999999999999</ele>
        <time>2019-04-07T12:18:19Z</time>
      </trkpt>
      <trkpt lat="44.141307463869452" lon="9.704095423221588">
        <ele>290.04000000000002</ele>
        <time>2019-04-07T12:18:29Z</time>
      </trkpt>
      <trkpt lat="44.141323557123542" lon="9.704089220613241">
        <ele>290.06999999999999</ele>
        <time>2019-04-07T12:18:31Z</time>
      </trkpt>
      <trkpt lat="44.141358677297831" lon="9.704070193693042">
        <ele>292.5</ele>
        <time>2019-04-07T12:18:41Z</time>
      </trkpt>
      <trkpt lat="44.141354570165277" lon="9.70406181178987">
        <ele>293.44999999999999</ele>
        <time>2019-04-07T12:18:58Z</time>
      </trkpt>
      <trkpt lat="44.141347780823708" lon="9.704040437936783">
        <ele>293.66000000000003</ele>
        <time>2019-04-07T12:19:16Z</time>
      </trkpt>
      <trkpt lat="44.141403436660767" lon="9.70402761362493">
        <ele>294.75999999999999</ele>
        <time>2019-04-07T12:19:29Z</time>
      </trkpt>
      <trkpt lat="44.141511227935553" lon="9.704041024670005">
        <ele>295.52999999999997</ele>
        <time>2019-04-07T12:19:40Z</time>
      </trkpt>
      <trkpt lat="44.141541486606002" lon="9.704053597524762">
        <ele>295.75999999999999</ele>
        <time>2019-04-07T12:19:43Z</time>
      </trkpt>
      <trkpt lat="44.14162153378129" lon="9.704176476225257">
        <ele>296.35000000000002</ele>
        <time>2019-04-07T12:19:55Z</time>
      </trkpt>
      <trkpt lat="44.141625305637717" lon="9.704190390184522">
        <ele>296.35000000000002</ele>
        <time>2019-04-07T12:19:56Z</time>
      </trkpt>
      <trkpt lat="44.141695545986295" lon="9.704280914738774">
        <ele>295.89999999999998</ele>
        <time>2019-04-07T12:20:07Z</time>
      </trkpt>
      <trkpt lat="44.141839295625687" lon="9.704317711293697">
        <ele>297.33999999999997</ele>
        <time>2019-04-07T12:20:21Z</time>
      </trkpt>
      <trkpt lat="44.142000060528517" lon="9.704321399331093">
        <ele>297.29000000000002</ele>
        <time>2019-04-07T12:20:35Z</time>
      </trkpt>
      <trkpt lat="44.142155963927507" lon="9.704372445121408">
        <ele>296.75999999999999</ele>
        <time>2019-04-07T12:20:49Z</time>
      </trkpt>
      <trkpt lat="44.142272472381592" lon="9.704414019361138">
        <ele>296.70999999999998</ele>
        <time>2019-04-07T12:20:59Z</time>
      </trkpt>
      <trkpt lat="44.142430052161217" lon="9.704419886693358">
        <ele>295.85000000000002</ele>
        <time>2019-04-07T12:21:13Z</time>
      </trkpt>
      <trkpt lat="44.142549494281411" lon="9.704472692683339">
        <ele>297.11000000000001</ele>
        <time>2019-04-07T12:21:25Z</time>
      </trkpt>
      <trkpt lat="44.142659800127149" lon="9.704556930810213">
        <ele>296.33999999999997</ele>
        <time>2019-04-07T12:21:38Z</time>
      </trkpt>
      <trkpt lat="44.142677988857031" lon="9.704605881124735">
        <ele>295.31</ele>
        <time>2019-04-07T12:21:42Z</time>
      </trkpt>
      <trkpt lat="44.142737165093422" lon="9.704723646864295">
        <ele>293.14999999999998</ele>
        <time>2019-04-07T12:21:51Z</time>
      </trkpt>
      <trkpt lat="44.14274881593883" lon="9.704750971868634">
        <ele>293.06999999999999</ele>
        <time>2019-04-07T12:21:53Z</time>
      </trkpt>
      <trkpt lat="44.142817296087742" lon="9.704944174736738">
        <ele>292.69</ele>
        <time>2019-04-07T12:22:04Z</time>
      </trkpt>
      <trkpt lat="44.142889380455017" lon="9.705067556351423">
        <ele>293.85000000000002</ele>
        <time>2019-04-07T12:22:14Z</time>
      </trkpt>
      <trkpt lat="44.14291393943131" lon="9.705131258815527">
        <ele>293.74000000000001</ele>
        <time>2019-04-07T12:22:19Z</time>
      </trkpt>
      <trkpt lat="44.143019802868366" lon="9.705160344019532">
        <ele>294.26999999999998</ele>
        <time>2019-04-07T12:22:29Z</time>
      </trkpt>
      <trkpt lat="44.143072608858347" lon="9.705222873017192">
        <ele>295.88</ele>
        <time>2019-04-07T12:22:39Z</time>
      </trkpt>
      <trkpt lat="44.143177215009928" lon="9.705269895493984">
        <ele>295.22000000000003</ele>
        <time>2019-04-07T12:22:51Z</time>
      </trkpt>
      <trkpt lat="44.143189201131463" lon="9.705272242426872">
        <ele>295.54000000000002</ele>
        <time>2019-04-07T12:22:54Z</time>
      </trkpt>
      <trkpt lat="44.14327067323029" lon="9.705292023718357">
        <ele>297.06</ele>
        <time>2019-04-07T12:23:05Z</time>
      </trkpt>
      <trkpt lat="44.143360275775194" lon="9.705278277397156">
        <ele>295.39999999999998</ele>
        <time>2019-04-07T12:23:17Z</time>
      </trkpt>
      <trkpt lat="44.143432695418596" lon="9.705384643748403">
        <ele>295.41000000000003</ele>
        <time>2019-04-07T12:23:29Z</time>
      </trkpt>
      <trkpt lat="44.14345339871943" lon="9.705426134169102">
        <ele>295.50999999999999</ele>
        <time>2019-04-07T12:23:43Z</time>
      </trkpt>
      <trkpt lat="44.143455997109413" lon="9.705403670668602">
        <ele>294.25999999999999</ele>
        <time>2019-04-07T12:24:01Z</time>
      </trkpt>
      <trkpt lat="44.143495140597224" lon="9.70536494627595">
        <ele>291.17000000000002</ele>
        <time>2019-04-07T12:24:13Z</time>
      </trkpt>
      <trkpt lat="44.14355456829071" lon="9.705344075337052">
        <ele>288.39999999999998</ele>
        <time>2019-04-07T12:24:24Z</time>
      </trkpt>
      <trkpt lat="44.143643165007234" lon="9.705404173582792">
        <ele>286.31999999999999</ele>
        <time>2019-04-07T12:24:38Z</time>
      </trkpt>
      <trkpt lat="44.143749363720417" lon="9.705356480553746">
        <ele>287.61000000000001</ele>
        <time>2019-04-07T12:24:51Z</time>
      </trkpt>
      <trkpt lat="44.143785322085023" lon="9.705298561602831">
        <ele>290.68000000000001</ele>
        <time>2019-04-07T12:25:02Z</time>
      </trkpt>
      <trkpt lat="44.143802504986525" lon="9.705223878845573">
        <ele>293.55000000000001</ele>
        <time>2019-04-07T12:25:14Z</time>
      </trkpt>
      <trkpt lat="44.143773503601551" lon="9.705178448930383">
        <ele>294.56</ele>
        <time>2019-04-07T12:25:29Z</time>
      </trkpt>
      <trkpt lat="44.14375489577651" lon="9.705160930752754">
        <ele>295.41000000000003</ele>
        <time>2019-04-07T12:25:44Z</time>
      </trkpt>
      <trkpt lat="44.143737377598882" lon="9.705036459490657">
        <ele>297.69999999999999</ele>
        <time>2019-04-07T12:25:57Z</time>
      </trkpt>
      <trkpt lat="44.143708543851972" lon="9.704905534163117">
        <ele>298.63</ele>
        <time>2019-04-07T12:26:09Z</time>
      </trkpt>
      <trkpt lat="44.143710052594543" lon="9.704815680161119">
        <ele>300.74000000000001</ele>
        <time>2019-04-07T12:26:20Z</time>
      </trkpt>
      <trkpt lat="44.143675100058317" lon="9.704774776473641">
        <ele>301.79000000000002</ele>
        <time>2019-04-07T12:26:25Z</time>
      </trkpt>
      <trkpt lat="44.143602764233947" lon="9.704609652981162">
        <ele>302.10000000000002</ele>
        <time>2019-04-07T12:26:39Z</time>
      </trkpt>
      <trkpt lat="44.143595471978188" lon="9.704504795372486">
        <ele>304.42000000000002</ele>
        <time>2019-04-07T12:26:50Z</time>
      </trkpt>
      <trkpt lat="44.143622377887368" lon="9.704400440678001">
        <ele>305.95999999999998</ele>
        <time>2019-04-07T12:27:03Z</time>
      </trkpt>
      <trkpt lat="44.143675435334444" lon="9.704343946650624">
        <ele>308.85000000000002</ele>
        <time>2019-04-07T12:27:15Z</time>
      </trkpt>
      <trkpt lat="44.143692618235946" lon="9.704257613047957">
        <ele>310.44999999999999</ele>
        <time>2019-04-07T12:27:25Z</time>
      </trkpt>
      <trkpt lat="44.143745172768831" lon="9.704153928905726">
        <ele>313.19</ele>
        <time>2019-04-07T12:27:40Z</time>
      </trkpt>
      <trkpt lat="44.143776353448629" lon="9.704033983871341">
        <ele>314.52999999999997</ele>
        <time>2019-04-07T12:27:53Z</time>
      </trkpt>
      <trkpt lat="44.143778197467327" lon="9.704008921980858">
        <ele>314.76999999999998</ele>
        <time>2019-04-07T12:27:55Z</time>
      </trkpt>
      <trkpt lat="44.143771156668663" lon="9.703932730481029">
        <ele>314.62</ele>
        <time>2019-04-07T12:28:00Z</time>
      </trkpt>
      <trkpt lat="44.143764283508062" lon="9.703871542587876">
        <ele>314.60000000000002</ele>
        <time>2019-04-07T12:28:04Z</time>
      </trkpt>
      <trkpt lat="44.143768306821585" lon="9.703679345548153">
        <ele>314.55000000000001</ele>
        <time>2019-04-07T12:28:17Z</time>
      </trkpt>
      <trkpt lat="44.143759254366159" lon="9.703647829592228">
        <ele>314.93000000000001</ele>
        <time>2019-04-07T12:28:19Z</time>
      </trkpt>
      <trkpt lat="44.143725223839283" lon="9.703496368601918">
        <ele>316.06</ele>
        <time>2019-04-07T12:28:30Z</time>
      </trkpt>
      <trkpt lat="44.143642159178853" lon="9.703296879306436">
        <ele>316.44999999999999</ele>
        <time>2019-04-07T12:28:45Z</time>
      </trkpt>
      <trkpt lat="44.143599662929773" lon="9.703187495470047">
        <ele>317.02999999999997</ele>
        <time>2019-04-07T12:28:53Z</time>
      </trkpt>
      <trkpt lat="44.143616259098053" lon="9.703139718621969">
        <ele>317.74000000000001</ele>
        <time>2019-04-07T12:28:58Z</time>
      </trkpt>
      <trkpt lat="44.143646098673344" lon="9.703123793005943">
        <ele>317.57999999999998</ele>
        <time>2019-04-07T12:29:01Z</time>
      </trkpt>
      <trkpt lat="44.143764618784189" lon="9.703139383345842">
        <ele>315.41000000000003</ele>
        <time>2019-04-07T12:29:13Z</time>
      </trkpt>
      <trkpt lat="44.143866039812565" lon="9.703159499913454">
        <ele>314.58999999999997</ele>
        <time>2019-04-07T12:29:25Z</time>
      </trkpt>
      <trkpt lat="44.143930999562144" lon="9.703207612037659">
        <ele>314.29000000000002</ele>
        <time>2019-04-07T12:29:33Z</time>
      </trkpt>
      <trkpt lat="44.144000234082341" lon="9.703252455219626">
        <ele>314.50999999999999</ele>
        <time>2019-04-07T12:29:39Z</time>
      </trkpt>
      <trkpt lat="44.144145157188177" lon="9.703294448554516">
        <ele>315.56</ele>
        <time>2019-04-07T12:29:52Z</time>
      </trkpt>
      <trkpt lat="44.144301060587168" lon="9.70334105193615">
        <ele>315.19</ele>
        <time>2019-04-07T12:30:04Z</time>
      </trkpt>
      <trkpt lat="44.144321344792843" lon="9.70334105193615">
        <ele>315.43000000000001</ele>
        <time>2019-04-07T12:30:06Z</time>
      </trkpt>
      <trkpt lat="44.14446241222322" lon="9.703360078856349">
        <ele>313.88</ele>
        <time>2019-04-07T12:30:17Z</time>
      </trkpt>
      <trkpt lat="44.144537262618542" lon="9.703357312828302">
        <ele>313.11000000000001</ele>
        <time>2019-04-07T12:30:24Z</time>
      </trkpt>
      <trkpt lat="44.14457380771637" lon="9.703375585377216">
        <ele>313.05000000000001</ele>
        <time>2019-04-07T12:30:27Z</time>
      </trkpt>
      <trkpt lat="44.144586967304349" lon="9.70336795784533">
        <ele>313.02999999999997</ele>
        <time>2019-04-07T12:30:29Z</time>
      </trkpt>
      <trkpt lat="44.144649244844913" lon="9.703391846269369">
        <ele>310.87</ele>
        <time>2019-04-07T12:30:40Z</time>
      </trkpt>
      <trkpt lat="44.144679419696331" lon="9.703536434099078">
        <ele>310.68000000000001</ele>
        <time>2019-04-07T12:30:52Z</time>
      </trkpt>
      <trkpt lat="44.144679000601172" lon="9.703572308644652">
        <ele>310.42000000000002</ele>
        <time>2019-04-07T12:30:54Z</time>
      </trkpt>
      <trkpt lat="44.144682940095663" lon="9.703636933118105">
        <ele>310.60000000000002</ele>
        <time>2019-04-07T12:30:58Z</time>
      </trkpt>
      <trkpt lat="44.144722754135728" lon="9.703766768798232">
        <ele>309.87</ele>
        <time>2019-04-07T12:31:08Z</time>
      </trkpt>
      <trkpt lat="44.144746977835894" lon="9.703830219805241">
        <ele>309.75</ele>
        <time>2019-04-07T12:31:13Z</time>
      </trkpt>
      <trkpt lat="44.144750330597162" lon="9.703859305009246">
        <ele>309.67000000000002</ele>
        <time>2019-04-07T12:31:15Z</time>
      </trkpt>
      <trkpt lat="44.144802298396826" lon="9.703998360782862">
        <ele>309.91000000000003</ele>
        <time>2019-04-07T12:31:25Z</time>
      </trkpt>
      <trkpt lat="44.144887961447239" lon="9.704093495383859">
        <ele>309.81999999999999</ele>
        <time>2019-04-07T12:31:34Z</time>
      </trkpt>
      <trkpt lat="44.144981252029538" lon="9.704183097928762">
        <ele>309.50999999999999</ele>
        <time>2019-04-07T12:31:44Z</time>
      </trkpt>
      <trkpt lat="44.145016372203827" lon="9.704187791794539">
        <ele>308.60000000000002</ele>
        <time>2019-04-07T12:31:49Z</time>
      </trkpt>
      <trkpt lat="44.145035399124026" lon="9.704202292487025">
        <ele>307.64999999999998</ele>
        <time>2019-04-07T12:31:51Z</time>
      </trkpt>
      <trkpt lat="44.145201276987791" lon="9.704249817878008">
        <ele>304.89999999999998</ele>
        <time>2019-04-07T12:32:01Z</time>
      </trkpt>
      <trkpt lat="44.14525106549263" lon="9.704256020486355">
        <ele>304.05000000000001</ele>
        <time>2019-04-07T12:32:04Z</time>
      </trkpt>
      <trkpt lat="44.14530772715807" lon="9.704268760979176">
        <ele>303.25</ele>
        <time>2019-04-07T12:32:07Z</time>
      </trkpt>
      <trkpt lat="44.145322144031525" lon="9.704303629696369">
        <ele>303.24000000000001</ele>
        <time>2019-04-07T12:32:10Z</time>
      </trkpt>
      <trkpt lat="44.14533463306725" lon="9.704330284148455">
        <ele>302.95999999999998</ele>
        <time>2019-04-07T12:32:12Z</time>
      </trkpt>
      <trkpt lat="44.14541426114738" lon="9.704389544203877">
        <ele>304.88999999999999</ele>
        <time>2019-04-07T12:32:21Z</time>
      </trkpt>
      <trkpt lat="44.145515598356724" lon="9.704461712390184">
        <ele>305.10000000000002</ele>
        <time>2019-04-07T12:32:31Z</time>
      </trkpt>
      <trkpt lat="44.145612241700292" lon="9.704501274973154">
        <ele>302.79000000000002</ele>
        <time>2019-04-07T12:32:43Z</time>
      </trkpt>
      <trkpt lat="44.145661611109972" lon="9.70446590334177">
        <ele>300.50999999999999</ele>
        <time>2019-04-07T12:32:51Z</time>
      </trkpt>
      <trkpt lat="44.145710980519652" lon="9.704417875036597">
        <ele>300.19</ele>
        <time>2019-04-07T12:33:00Z</time>
      </trkpt>
      <trkpt lat="44.145696144551039" lon="9.704297510907054">
        <ele>303.13999999999999</ele>
        <time>2019-04-07T12:33:12Z</time>
      </trkpt>
      <trkpt lat="44.14565515704453" lon="9.704228024929762">
        <ele>303.94</ele>
        <time>2019-04-07T12:33:24Z</time>
      </trkpt>
      <trkpt lat="44.145627161487937" lon="9.704222995787859">
        <ele>303.54000000000002</ele>
        <time>2019-04-07T12:33:39Z</time>
      </trkpt>
      <trkpt lat="44.145628083497286" lon="9.70418100245297">
        <ele>303.14999999999998</ele>
        <time>2019-04-07T12:33:55Z</time>
      </trkpt>
      <trkpt lat="44.145606458187103" lon="9.704142864793539">
        <ele>303.38999999999999</ele>
        <time>2019-04-07T12:34:13Z</time>
      </trkpt>
      <trkpt lat="44.145614001899958" lon="9.704173123463988">
        <ele>303.48000000000002</ele>
        <time>2019-04-07T12:34:32Z</time>
      </trkpt>
      <trkpt lat="44.145625652745366" lon="9.704165831208229">
        <ele>303.60000000000002</ele>
        <time>2019-04-07T12:34:41Z</time>
      </trkpt>
      <trkpt lat="44.145653396844864" lon="9.704107828438282">
        <ele>303.69</ele>
        <time>2019-04-07T12:34:52Z</time>
      </trkpt>
      <trkpt lat="44.145652810111642" lon="9.704108331352472">
        <ele>303.94</ele>
        <time>2019-04-07T12:35:11Z</time>
      </trkpt>
      <trkpt lat="44.145658761262894" lon="9.704112019389868">
        <ele>304.00999999999999</ele>
        <time>2019-04-07T12:35:30Z</time>
      </trkpt>
      <trkpt lat="44.14567175321281" lon="9.704114114865661">
        <ele>304.37</ele>
        <time>2019-04-07T12:35:45Z</time>
      </trkpt>
      <trkpt lat="44.145674100145698" lon="9.704058542847633">
        <ele>304.97000000000003</ele>
        <time>2019-04-07T12:36:01Z</time>
      </trkpt>
      <trkpt lat="44.145687678828835" lon="9.703963659703732">
        <ele>307.58999999999997</ele>
        <time>2019-04-07T12:36:12Z</time>
      </trkpt>
      <trkpt lat="44.145738976076245" lon="9.703895431011915">
        <ele>309.86000000000001</ele>
        <time>2019-04-07T12:36:21Z</time>
      </trkpt>
      <trkpt lat="44.145787172019482" lon="9.703807588666678">
        <ele>312.12</ele>
        <time>2019-04-07T12:36:33Z</time>
      </trkpt>
      <trkpt lat="44.145865878090262" lon="9.703796692192555">
        <ele>315.07999999999998</ele>
        <time>2019-04-07T12:36:46Z</time>
      </trkpt>
      <trkpt lat="44.145913990214467" lon="9.703882606700063">
        <ele>317.01999999999998</ele>
        <time>2019-04-07T12:36:58Z</time>
      </trkpt>
      <trkpt lat="44.145937794819474" lon="9.703894509002566">
        <ele>319.52999999999997</ele>
        <time>2019-04-07T12:37:09Z</time>
      </trkpt>
      <trkpt lat="44.145967299118638" lon="9.703985871747136">
        <ele>320.55000000000001</ele>
        <time>2019-04-07T12:37:20Z</time>
      </trkpt>
      <trkpt lat="44.146005688235164" lon="9.70408377237618">
        <ele>322.76999999999998</ele>
        <time>2019-04-07T12:37:33Z</time>
      </trkpt>
      <trkpt lat="44.146050112321973" lon="9.704111600294709">
        <ele>325.86000000000001</ele>
        <time>2019-04-07T12:37:45Z</time>
      </trkpt>
      <trkpt lat="44.146103588864207" lon="9.704078743234277">
        <ele>328.83999999999997</ele>
        <time>2019-04-07T12:37:59Z</time>
      </trkpt>
      <trkpt lat="44.146104762330651" lon="9.703983776271343">
        <ele>329.23000000000002</ele>
        <time>2019-04-07T12:38:13Z</time>
      </trkpt>
      <trkpt lat="44.146109288558364" lon="9.703961983323097">
        <ele>328.92000000000002</ele>
        <time>2019-04-07T12:38:15Z</time>
      </trkpt>
      <trkpt lat="44.146181708201766" lon="9.703869530931115">
        <ele>328.68000000000001</ele>
        <time>2019-04-07T12:38:27Z</time>
      </trkpt>
      <trkpt lat="44.146266868337989" lon="9.703841367736459">
        <ele>330.27999999999997</ele>
        <time>2019-04-07T12:38:39Z</time>
      </trkpt>
      <trkpt lat="44.146335599943995" lon="9.70387858338654">
        <ele>332.98000000000002</ele>
        <time>2019-04-07T12:38:52Z</time>
      </trkpt>
      <trkpt lat="44.146386729553342" lon="9.703873973339796">
        <ele>336.04000000000002</ele>
        <time>2019-04-07T12:39:04Z</time>
      </trkpt>
      <trkpt lat="44.146420089527965" lon="9.703913116827607">
        <ele>338.94999999999999</ele>
        <time>2019-04-07T12:39:15Z</time>
      </trkpt>
      <trkpt lat="44.146476583555341" lon="9.703889228403568">
        <ele>341.06999999999999</ele>
        <time>2019-04-07T12:39:28Z</time>
      </trkpt>
      <trkpt lat="44.146513966843486" lon="9.703706167638302">
        <ele>338.02999999999997</ele>
        <time>2019-04-07T12:39:44Z</time>
      </trkpt>
      <trkpt lat="44.14647750556469" lon="9.703657468780875">
        <ele>339.31</ele>
        <time>2019-04-07T12:39:57Z</time>
      </trkpt>
      <trkpt lat="44.146445486694574" lon="9.703645147383213">
        <ele>340.99000000000001</ele>
        <time>2019-04-07T12:40:09Z</time>
      </trkpt>
      <trkpt lat="44.146389160305262" lon="9.703635424375534">
        <ele>342.36000000000001</ele>
        <time>2019-04-07T12:40:21Z</time>
      </trkpt>
      <trkpt lat="44.146367199718952" lon="9.703639699146152">
        <ele>343.05000000000001</ele>
        <time>2019-04-07T12:40:33Z</time>
      </trkpt>
      <trkpt lat="44.146293858066201" lon="9.703579768538475">
        <ele>344.66000000000003</ele>
        <time>2019-04-07T12:40:46Z</time>
      </trkpt>
      <trkpt lat="44.146186066791415" lon="9.703480610623956">
        <ele>347.26999999999998</ele>
        <time>2019-04-07T12:40:59Z</time>
      </trkpt>
      <trkpt lat="44.146079616621137" lon="9.703369466587901">
        <ele>350.05000000000001</ele>
        <time>2019-04-07T12:41:13Z</time>
      </trkpt>
      <trkpt lat="44.146008286625147" lon="9.703252539038658">
        <ele>352.77999999999997</ele>
        <time>2019-04-07T12:41:26Z</time>
      </trkpt>
      <trkpt lat="44.146000239998102" lon="9.703225130215287">
        <ele>352.85000000000002</ele>
        <time>2019-04-07T12:41:28Z</time>
      </trkpt>
      <trkpt lat="44.146025385707617" lon="9.703069226816297">
        <ele>353.50999999999999</ele>
        <time>2019-04-07T12:41:40Z</time>
      </trkpt>
      <trkpt lat="44.146064193919301" lon="9.702993622049689">
        <ele>354.83999999999997</ele>
        <time>2019-04-07T12:41:50Z</time>
      </trkpt>
      <trkpt lat="44.146124795079231" lon="9.702861858531833">
        <ele>357.36000000000001</ele>
        <time>2019-04-07T12:42:04Z</time>
      </trkpt>
      <trkpt lat="44.146201908588409" lon="9.702720623463392">
        <ele>360.35000000000002</ele>
        <time>2019-04-07T12:42:22Z</time>
      </trkpt>
      <trkpt lat="44.146204926073551" lon="9.702619621530175">
        <ele>360.77999999999997</ele>
        <time>2019-04-07T12:42:30Z</time>
      </trkpt>
      <trkpt lat="44.146181037649512" lon="9.702569581568241">
        <ele>361.29000000000002</ele>
        <time>2019-04-07T12:42:34Z</time>
      </trkpt>
      <trkpt lat="44.146115742623806" lon="9.702371014282107">
        <ele>361.49000000000001</ele>
        <time>2019-04-07T12:42:49Z</time>
      </trkpt>
      <trkpt lat="44.146104594692588" lon="9.70223237760365">
        <ele>362.02999999999997</ele>
        <time>2019-04-07T12:42:59Z</time>
      </trkpt>
      <trkpt lat="44.146100152283907" lon="9.702070858329535">
        <ele>362.07999999999998</ele>
        <time>2019-04-07T12:43:09Z</time>
      </trkpt>
      <trkpt lat="44.146078024059534" lon="9.701986704021692">
        <ele>362.41000000000003</ele>
        <time>2019-04-07T12:43:15Z</time>
      </trkpt>
      <trkpt lat="44.146027648821473" lon="9.701907997950912">
        <ele>361.94999999999999</ele>
        <time>2019-04-07T12:43:22Z</time>
      </trkpt>
      <trkpt lat="44.146006442606449" lon="9.701860807836056">
        <ele>362</ele>
        <time>2019-04-07T12:43:26Z</time>
      </trkpt>
      <trkpt lat="44.14595321752131" lon="9.701717644929886">
        <ele>362.94</ele>
        <time>2019-04-07T12:43:39Z</time>
      </trkpt>
      <trkpt lat="44.145931173115969" lon="9.701641872525215">
        <ele>364.29000000000002</ele>
        <time>2019-04-07T12:43:49Z</time>
      </trkpt>
      <trkpt lat="44.145926563069224" lon="9.701562495902181">
        <ele>367.38</ele>
        <time>2019-04-07T12:44:00Z</time>
      </trkpt>
      <trkpt lat="44.145882893353701" lon="9.701461158692837">
        <ele>370.42000000000002</ele>
        <time>2019-04-07T12:44:16Z</time>
      </trkpt>
      <trkpt lat="44.145853472873569" lon="9.701376669108868">
        <ele>373.56999999999999</ele>
        <time>2019-04-07T12:44:30Z</time>
      </trkpt>
      <trkpt lat="44.145911643281579" lon="9.701277427375317">
        <ele>375.06999999999999</ele>
        <time>2019-04-07T12:44:42Z</time>
      </trkpt>
      <trkpt lat="44.146037036553025" lon="9.701078776270151">
        <ele>375.61000000000001</ele>
        <time>2019-04-07T12:45:00Z</time>
      </trkpt>
      <trkpt lat="44.146115239709616" lon="9.700910802930594">
        <ele>375.31</ele>
        <time>2019-04-07T12:45:14Z</time>
      </trkpt>
      <trkpt lat="44.146092776209116" lon="9.700845424085856">
        <ele>372.89999999999998</ele>
        <time>2019-04-07T12:45:25Z</time>
      </trkpt>
      <trkpt lat="44.146105516701937" lon="9.700832599774003">
        <ele>373.16000000000003</ele>
        <time>2019-04-07T12:45:34Z</time>
      </trkpt>
      <trkpt lat="44.146115742623806" lon="9.700822876766324">
        <ele>373.37</ele>
        <time>2019-04-07T12:45:45Z</time>
      </trkpt>
      <trkpt lat="44.146129740402102" lon="9.700799575075507">
        <ele>373.51999999999998</ele>
        <time>2019-04-07T12:45:47Z</time>
      </trkpt>
      <trkpt lat="44.146276172250509" lon="9.700558092445135">
        <ele>373.50999999999999</ele>
        <time>2019-04-07T12:46:08Z</time>
      </trkpt>
      <trkpt lat="44.146275585517287" lon="9.7005495429039">
        <ele>373.29000000000002</ele>
        <time>2019-04-07T12:46:10Z</time>
      </trkpt>
      <trkpt lat="44.146303329616785" lon="9.700481817126274">
        <ele>371.99000000000001</ele>
        <time>2019-04-07T12:46:16Z</time>
      </trkpt>
      <trkpt lat="44.146337863057852" lon="9.700434040278196">
        <ele>371.66000000000003</ele>
        <time>2019-04-07T12:46:20Z</time>
      </trkpt>
      <trkpt lat="44.14648630656302" lon="9.700265061110258">
        <ele>371.32999999999998</ele>
        <time>2019-04-07T12:46:37Z</time>
      </trkpt>
      <trkpt lat="44.146525533869863" lon="9.700224660336971">
        <ele>372.13</ele>
        <time>2019-04-07T12:46:43Z</time>
      </trkpt>
      <trkpt lat="44.146566186100245" lon="9.700122149661183">
        <ele>371.20999999999998</ele>
        <time>2019-04-07T12:46:55Z</time>
      </trkpt>
      <trkpt lat="44.146565264090896" lon="9.700110079720616">
        <ele>370.94999999999999</ele>
        <time>2019-04-07T12:46:57Z</time>
      </trkpt>
      <trkpt lat="44.146574316546321" lon="9.700068756937981">
        <ele>370.18000000000001</ele>
        <time>2019-04-07T12:47:00Z</time>
      </trkpt>
      <trkpt lat="44.146653022617102" lon="9.699894078075886">
        <ele>368.39999999999998</ele>
        <time>2019-04-07T12:47:13Z</time>
      </trkpt>
      <trkpt lat="44.14673700928688" lon="9.699759045615792">
        <ele>368</ele>
        <time>2019-04-07T12:47:26Z</time>
      </trkpt>
      <trkpt lat="44.146813116967678" lon="9.699652595445514">
        <ele>368.75</ele>
        <time>2019-04-07T12:47:36Z</time>
      </trkpt>
      <trkpt lat="44.146876567974687" lon="9.699534829705954">
        <ele>370.94</ele>
        <time>2019-04-07T12:47:49Z</time>
      </trkpt>
      <trkpt lat="44.146945048123598" lon="9.699325952678919">
        <ele>371.63999999999999</ele>
        <time>2019-04-07T12:48:06Z</time>
      </trkpt>
      <trkpt lat="44.147013109177351" lon="9.699187483638525">
        <ele>373.57999999999998</ele>
        <time>2019-04-07T12:48:20Z</time>
      </trkpt>
      <trkpt lat="44.147101622074842" lon="9.699095617979765">
        <ele>376.63999999999999</ele>
        <time>2019-04-07T12:48:33Z</time>
      </trkpt>
      <trkpt lat="44.147133473306894" lon="9.699063934385777">
        <ele>376.49000000000001</ele>
        <time>2019-04-07T12:48:37Z</time>
      </trkpt>
      <trkpt lat="44.147150153294206" lon="9.699043817818165">
        <ele>376.25999999999999</ele>
        <time>2019-04-07T12:48:39Z</time>
      </trkpt>
      <trkpt lat="44.147252244874835" lon="9.698946671560407">
        <ele>377.22000000000003</ele>
        <time>2019-04-07T12:48:51Z</time>
      </trkpt>
      <trkpt lat="44.147323993965983" lon="9.698844579979777">
        <ele>377.43000000000001</ele>
        <time>2019-04-07T12:49:02Z</time>
      </trkpt>
      <trkpt lat="44.147419044747949" lon="9.698749193921685">
        <ele>377.82999999999998</ele>
        <time>2019-04-07T12:49:15Z</time>
      </trkpt>
      <trkpt lat="44.147478807717562" lon="9.698676439002156">
        <ele>376.72000000000003</ele>
        <time>2019-04-07T12:49:23Z</time>
      </trkpt>
      <trkpt lat="44.147573607042432" lon="9.698597397655249">
        <ele>378.57999999999998</ele>
        <time>2019-04-07T12:49:34Z</time>
      </trkpt>
      <trkpt lat="44.147581486031413" lon="9.698584489524365">
        <ele>378.55000000000001</ele>
        <time>2019-04-07T12:49:35Z</time>
      </trkpt>
      <trkpt lat="44.14762138389051" lon="9.698510728776455">
        <ele>379.56999999999999</ele>
        <time>2019-04-07T12:49:42Z</time>
      </trkpt>
      <trkpt lat="44.147662119939923" lon="9.698404278606176">
        <ele>380.49000000000001</ele>
        <time>2019-04-07T12:49:51Z</time>
      </trkpt>
      <trkpt lat="44.147800086066127" lon="9.698309982195497">
        <ele>380.22000000000003</ele>
        <time>2019-04-07T12:50:06Z</time>
      </trkpt>
      <trkpt lat="44.147848952561617" lon="9.698283495381475">
        <ele>379.62</ele>
        <time>2019-04-07T12:50:12Z</time>
      </trkpt>
      <trkpt lat="44.147908128798008" lon="9.698194228112698">
        <ele>377.95999999999998</ele>
        <time>2019-04-07T12:50:24Z</time>
      </trkpt>
      <trkpt lat="44.147903099656105" lon="9.698197161778808">
        <ele>378.69999999999999</ele>
        <time>2019-04-07T12:50:30Z</time>
      </trkpt>
      <trkpt lat="44.147831937298179" lon="9.698179811239243">
        <ele>378.99000000000001</ele>
        <time>2019-04-07T12:50:39Z</time>
      </trkpt>
      <trkpt lat="44.147732444107533" lon="9.698156928643584">
        <ele>380.16000000000003</ele>
        <time>2019-04-07T12:50:50Z</time>
      </trkpt>
      <trkpt lat="44.147725319489837" lon="9.698155838996172">
        <ele>380.23000000000002</ele>
        <time>2019-04-07T12:50:51Z</time>
      </trkpt>
      <trkpt lat="44.147638566792011" lon="9.698134800419211">
        <ele>382.12</ele>
        <time>2019-04-07T12:51:03Z</time>
      </trkpt>
      <trkpt lat="44.14754468947649" lon="9.698185343295336">
        <ele>383.27999999999997</ele>
        <time>2019-04-07T12:51:14Z</time>
      </trkpt>
      <trkpt lat="44.147431869059801" lon="9.698134297505021">
        <ele>383.66000000000003</ele>
        <time>2019-04-07T12:51:27Z</time>
      </trkpt>
      <trkpt lat="44.147398257628083" lon="9.698121808469296">
        <ele>385.31</ele>
        <time>2019-04-07T12:51:31Z</time>
      </trkpt>
      <trkpt lat="44.147257106378675" lon="9.698120802640915">
        <ele>385.20999999999998</ele>
        <time>2019-04-07T12:51:45Z</time>
      </trkpt>
      <trkpt lat="44.147178316488862" lon="9.698091633617878">
        <ele>384.75999999999999</ele>
        <time>2019-04-07T12:51:52Z</time>
      </trkpt>
      <trkpt lat="44.147077146917582" lon="9.698024159297347">
        <ele>385</ele>
        <time>2019-04-07T12:52:03Z</time>
      </trkpt>
      <trkpt lat="44.14705946110189" lon="9.698021309450269">
        <ele>385.05000000000001</ele>
        <time>2019-04-07T12:52:05Z</time>
      </trkpt>
      <trkpt lat="44.146981341764331" lon="9.698009490966797">
        <ele>385.88999999999999</ele>
        <time>2019-04-07T12:52:21Z</time>
      </trkpt>
      <trkpt lat="44.14694219827652" lon="9.69799691811204">
        <ele>386.42000000000002</ele>
        <time>2019-04-07T12:52:27Z</time>
      </trkpt>
      <trkpt lat="44.146885452792048" lon="9.697973364964128">
        <ele>386.69</ele>
        <time>2019-04-07T12:52:32Z</time>
      </trkpt>
      <trkpt lat="44.146754443645477" lon="9.697938244789839">
        <ele>388.55000000000001</ele>
        <time>2019-04-07T12:52:44Z</time>
      </trkpt>
      <trkpt lat="44.146698536351323" lon="9.697933970019221">
        <ele>390.01999999999998</ele>
        <time>2019-04-07T12:52:50Z</time>
      </trkpt>
      <trkpt lat="44.146658889949322" lon="9.697929359972477">
        <ele>389.19</ele>
        <time>2019-04-07T12:52:54Z</time>
      </trkpt>
      <trkpt lat="44.146587643772364" lon="9.697907483205199">
        <ele>388.44999999999999</ele>
        <time>2019-04-07T12:53:06Z</time>
      </trkpt>
      <trkpt lat="44.14659233763814" lon="9.697900610044599">
        <ele>387.44999999999999</ele>
        <time>2019-04-07T12:53:15Z</time>
      </trkpt>
      <trkpt lat="44.146588062867522" lon="9.697919636964798">
        <ele>387.68000000000001</ele>
        <time>2019-04-07T12:54:04Z</time>
      </trkpt>
      <trkpt lat="44.146576412022114" lon="9.697908237576485">
        <ele>387.80000000000001</ele>
        <time>2019-04-07T12:54:47Z</time>
      </trkpt>
      <trkpt lat="44.146582866087556" lon="9.697901867330074">
        <ele>388.16000000000003</ele>
        <time>2019-04-07T12:55:55Z</time>
      </trkpt>
      <trkpt lat="44.146587392315269" lon="9.697904717177153">
        <ele>388.63999999999999</ele>
        <time>2019-04-07T12:57:00Z</time>
      </trkpt>
      <trkpt lat="44.146588649600744" lon="9.697916619479656">
        <ele>389.58999999999997</ele>
        <time>2019-04-07T12:57:57Z</time>
      </trkpt>
      <trkpt lat="44.146601473912597" lon="9.697901112958789">
        <ele>389.88</ele>
        <time>2019-04-07T12:58:18Z</time>
      </trkpt>
      <trkpt lat="44.146597785875201" lon="9.697890635579824">
        <ele>389.54000000000002</ele>
        <time>2019-04-07T12:58:52Z</time>
      </trkpt>
      <trkpt lat="44.146608179435134" lon="9.697890551760793">
        <ele>389.44999999999999</ele>
        <time>2019-04-07T12:59:09Z</time>
      </trkpt>
      <trkpt lat="44.146608849987388" lon="9.697900526225567">
        <ele>389.73000000000002</ele>
        <time>2019-04-07T13:00:25Z</time>
      </trkpt>
      <trkpt lat="44.146603988483548" lon="9.697890048846602">
        <ele>389.99000000000001</ele>
        <time>2019-04-07T13:01:29Z</time>
      </trkpt>
      <trkpt lat="44.146609017625451" lon="9.697890719398856">
        <ele>390.01999999999998</ele>
        <time>2019-04-07T13:02:24Z</time>
      </trkpt>
      <trkpt lat="44.14660457521677" lon="9.697898263111711">
        <ele>390.77999999999997</ele>
        <time>2019-04-07T13:03:24Z</time>
      </trkpt>
      <trkpt lat="44.146596109494567" lon="9.697898179292679">
        <ele>391.06</ele>
        <time>2019-04-07T13:04:21Z</time>
      </trkpt>
      <trkpt lat="44.146587811410427" lon="9.697917960584164">
        <ele>391.05000000000001</ele>
        <time>2019-04-07T13:05:02Z</time>
      </trkpt>
      <trkpt lat="44.14658110588789" lon="9.697925420477986">
        <ele>391.45999999999998</ele>
        <time>2019-04-07T13:05:57Z</time>
      </trkpt>
      <trkpt lat="44.146599043160677" lon="9.697920139878988">
        <ele>391.91000000000003</ele>
        <time>2019-04-07T13:06:50Z</time>
      </trkpt>
      <trkpt lat="44.146605748683214" lon="9.697920056059957">
        <ele>392.25999999999999</ele>
        <time>2019-04-07T13:07:39Z</time>
      </trkpt>
      <trkpt lat="44.146597953513265" lon="9.697912344709039">
        <ele>391.77999999999997</ele>
        <time>2019-04-07T13:08:38Z</time>
      </trkpt>
      <trkpt lat="44.146598288789392" lon="9.697918547317386">
        <ele>391.86000000000001</ele>
        <time>2019-04-07T13:09:12Z</time>
      </trkpt>
      <trkpt lat="44.146587811410427" lon="9.697917625308037">
        <ele>391.73000000000002</ele>
        <time>2019-04-07T13:10:00Z</time>
      </trkpt>
      <trkpt lat="44.146587559953332" lon="9.697913601994515">
        <ele>391.63</ele>
        <time>2019-04-07T13:10:46Z</time>
      </trkpt>
      <trkpt lat="44.146579094231129" lon="9.697915446013212">
        <ele>392.02999999999997</ele>
        <time>2019-04-07T13:11:36Z</time>
      </trkpt>
      <trkpt lat="44.146577417850494" lon="9.69792022369802">
        <ele>392.31</ele>
        <time>2019-04-07T13:12:16Z</time>
      </trkpt>
      <trkpt lat="44.146579429507256" lon="9.697904633358121">
        <ele>392.25999999999999</ele>
        <time>2019-04-07T13:12:47Z</time>
      </trkpt>
      <trkpt lat="44.146584039554" lon="9.697894239798188">
        <ele>392.19</ele>
        <time>2019-04-07T13:13:26Z</time>
      </trkpt>
      <trkpt lat="44.146571299061179" lon="9.697898766025901">
        <ele>392.13</ele>
        <time>2019-04-07T13:14:15Z</time>
      </trkpt>
      <trkpt lat="44.146579345688224" lon="9.697902705520392">
        <ele>392.27999999999997</ele>
        <time>2019-04-07T13:14:25Z</time>
      </trkpt>
      <trkpt lat="44.146572556346655" lon="9.6979109197855">
        <ele>393.42000000000002</ele>
        <time>2019-04-07T13:14:35Z</time>
      </trkpt>
      <trkpt lat="44.146594433113933" lon="9.697883343324065">
        <ele>393.36000000000001</ele>
        <time>2019-04-07T13:14:48Z</time>
      </trkpt>
      <trkpt lat="44.146625949069858" lon="9.69789482653141">
        <ele>393.69</ele>
        <time>2019-04-07T13:14:59Z</time>
      </trkpt>
      <trkpt lat="44.146629720926285" lon="9.697874207049608">
        <ele>393.41000000000003</ele>
        <time>2019-04-07T13:15:15Z</time>
      </trkpt>
      <trkpt lat="44.146613040938973" lon="9.697869010269642">
        <ele>393.22000000000003</ele>
        <time>2019-04-07T13:15:25Z</time>
      </trkpt>
      <trkpt lat="44.146606167778373" lon="9.69787722453475">
        <ele>392.94999999999999</ele>
        <time>2019-04-07T13:15:45Z</time>
      </trkpt>
      <trkpt lat="44.146596360951662" lon="9.697795836254954">
        <ele>392.05000000000001</ele>
        <time>2019-04-07T13:15:55Z</time>
      </trkpt>
      <trkpt lat="44.146609101444483" lon="9.697758788242936">
        <ele>391.61000000000001</ele>
        <time>2019-04-07T13:15:59Z</time>
      </trkpt>
      <trkpt lat="44.14661924354732" lon="9.697695085778832">
        <ele>391.26999999999998</ele>
        <time>2019-04-07T13:16:03Z</time>
      </trkpt>
      <trkpt lat="44.146744888275862" lon="9.697484951466322">
        <ele>390.57999999999998</ele>
        <time>2019-04-07T13:16:20Z</time>
      </trkpt>
      <trkpt lat="44.146817727014422" lon="9.697309266775847">
        <ele>390.81999999999999</ele>
        <time>2019-04-07T13:16:32Z</time>
      </trkpt>
      <trkpt lat="44.146859049797058" lon="9.697068706154823">
        <ele>390.70999999999998</ele>
        <time>2019-04-07T13:16:46Z</time>
      </trkpt>
      <trkpt lat="44.146837927401066" lon="9.696773244068027">
        <ele>390.51999999999998</ele>
        <time>2019-04-07T13:17:03Z</time>
      </trkpt>
      <trkpt lat="44.146785121411085" lon="9.69668984413147">
        <ele>390.17000000000002</ele>
        <time>2019-04-07T13:17:09Z</time>
      </trkpt>
      <trkpt lat="44.146604742854834" lon="9.696551039814949">
        <ele>388.62</ele>
        <time>2019-04-07T13:17:25Z</time>
      </trkpt>
      <trkpt lat="44.146432913839817" lon="9.696413408964872">
        <ele>387.10000000000002</ele>
        <time>2019-04-07T13:17:40Z</time>
      </trkpt>
      <trkpt lat="44.146214984357357" lon="9.696323974058032">
        <ele>384.89999999999998</ele>
        <time>2019-04-07T13:17:56Z</time>
      </trkpt>
      <trkpt lat="44.146094201132655" lon="9.696287345141172">
        <ele>383.62</ele>
        <time>2019-04-07T13:18:05Z</time>
      </trkpt>
      <trkpt lat="44.146030582487583" lon="9.696206040680409">
        <ele>385.51999999999998</ele>
        <time>2019-04-07T13:18:14Z</time>
      </trkpt>
      <trkpt lat="44.146106438711286" lon="9.696117443963885">
        <ele>389.24000000000001</ele>
        <time>2019-04-07T13:18:26Z</time>
      </trkpt>
      <trkpt lat="44.146217415109277" lon="9.696001773700118">
        <ele>391.18000000000001</ele>
        <time>2019-04-07T13:18:40Z</time>
      </trkpt>
      <trkpt lat="44.14623660966754" lon="9.695989536121488">
        <ele>391.29000000000002</ele>
        <time>2019-04-07T13:18:42Z</time>
      </trkpt>
      <trkpt lat="44.146359572187066" lon="9.695887947455049">
        <ele>392.67000000000002</ele>
        <time>2019-04-07T13:18:57Z</time>
      </trkpt>
      <trkpt lat="44.146493682637811" lon="9.695696253329516">
        <ele>391.23000000000002</ele>
        <time>2019-04-07T13:19:14Z</time>
      </trkpt>
      <trkpt lat="44.146597366780043" lon="9.6955088339746">
        <ele>390.10000000000002</ele>
        <time>2019-04-07T13:19:29Z</time>
      </trkpt>
      <trkpt lat="44.146672384813428" lon="9.695280594751239">
        <ele>390.20999999999998</ele>
        <time>2019-04-07T13:19:44Z</time>
      </trkpt>
      <trkpt lat="44.146784702315927" lon="9.69508127309382">
        <ele>391.31</ele>
        <time>2019-04-07T13:20:01Z</time>
      </trkpt>
      <trkpt lat="44.146899953484535" lon="9.694871054962277">
        <ele>392.69999999999999</ele>
        <time>2019-04-07T13:20:18Z</time>
      </trkpt>
      <trkpt lat="44.146940857172012" lon="9.69481598585844">
        <ele>393.08999999999997</ele>
        <time>2019-04-07T13:20:30Z</time>
      </trkpt>
      <trkpt lat="44.146962817758322" lon="9.694790923967958">
        <ele>393.06</ele>
        <time>2019-04-07T13:20:37Z</time>
      </trkpt>
      <trkpt lat="44.14699056185782" lon="9.69476125203073">
        <ele>393.17000000000002</ele>
        <time>2019-04-07T13:20:42Z</time>
      </trkpt>
      <trkpt lat="44.147045966237783" lon="9.694711212068796">
        <ele>391.39999999999998</ele>
        <time>2019-04-07T13:20:49Z</time>
      </trkpt>
      <trkpt lat="44.147216873243451" lon="9.694586573168635">
        <ele>389.43000000000001</ele>
        <time>2019-04-07T13:21:05Z</time>
      </trkpt>
      <trkpt lat="44.14737612940371" lon="9.694494875147939">
        <ele>387.26999999999998</ele>
        <time>2019-04-07T13:21:21Z</time>
      </trkpt>
      <trkpt lat="44.1474215593189" lon="9.694452378898859">
        <ele>387.58999999999997</ele>
        <time>2019-04-07T13:21:30Z</time>
      </trkpt>
      <trkpt lat="44.147428600117564" lon="9.694447014480829">
        <ele>387.69</ele>
        <time>2019-04-07T13:21:31Z</time>
      </trkpt>
      <trkpt lat="44.147447124123573" lon="9.69443142414093">
        <ele>387.56</ele>
        <time>2019-04-07T13:21:33Z</time>
      </trkpt>
      <trkpt lat="44.147673770785332" lon="9.694216931238771">
        <ele>386.19999999999999</ele>
        <time>2019-04-07T13:21:55Z</time>
      </trkpt>
      <trkpt lat="44.147779634222388" lon="9.694072594866157">
        <ele>385.81</ele>
        <time>2019-04-07T13:22:07Z</time>
      </trkpt>
      <trkpt lat="44.147816514596343" lon="9.694038731977344">
        <ele>385.62</ele>
        <time>2019-04-07T13:22:17Z</time>
      </trkpt>
      <trkpt lat="44.147827494889498" lon="9.694013083353639">
        <ele>385.26999999999998</ele>
        <time>2019-04-07T13:22:19Z</time>
      </trkpt>
      <trkpt lat="44.147832188755274" lon="9.693925408646464">
        <ele>387.61000000000001</ele>
        <time>2019-04-07T13:22:31Z</time>
      </trkpt>
      <trkpt lat="44.147807126864791" lon="9.693914009258151">
        <ele>387.64999999999998</ele>
        <time>2019-04-07T13:22:35Z</time>
      </trkpt>
      <trkpt lat="44.147706544026732" lon="9.693836811929941">
        <ele>388.79000000000002</ele>
        <time>2019-04-07T13:22:48Z</time>
      </trkpt>
      <trkpt lat="44.147632196545601" lon="9.693627683445811">
        <ele>389.24000000000001</ele>
        <time>2019-04-07T13:23:06Z</time>
      </trkpt>
      <trkpt lat="44.1476184502244" lon="9.693563226610422">
        <ele>388.85000000000002</ele>
        <time>2019-04-07T13:23:17Z</time>
      </trkpt>
      <trkpt lat="44.147617612034082" lon="9.693513689562678">
        <ele>388.44999999999999</ele>
        <time>2019-04-07T13:23:20Z</time>
      </trkpt>
      <trkpt lat="44.147678967565298" lon="9.693198865279555">
        <ele>387.69999999999999</ele>
        <time>2019-04-07T13:23:39Z</time>
      </trkpt>
      <trkpt lat="44.147715847939253" lon="9.692986719310284">
        <ele>387.05000000000001</ele>
        <time>2019-04-07T13:23:52Z</time>
      </trkpt>
      <trkpt lat="44.147710232064128" lon="9.692937349900603">
        <ele>386.79000000000002</ele>
        <time>2019-04-07T13:23:55Z</time>
      </trkpt>
      <trkpt lat="44.147647535428405" lon="9.692889740690589">
        <ele>387.02999999999997</ele>
        <time>2019-04-07T13:24:07Z</time>
      </trkpt>
      <trkpt lat="44.14763018488884" lon="9.692878006026149">
        <ele>386.79000000000002</ele>
        <time>2019-04-07T13:24:09Z</time>
      </trkpt>
      <trkpt lat="44.147549215704203" lon="9.692808771505952">
        <ele>386.75</ele>
        <time>2019-04-07T13:24:22Z</time>
      </trkpt>
      <trkpt lat="44.14753396064043" lon="9.692796617746353">
        <ele>387</ele>
        <time>2019-04-07T13:24:24Z</time>
      </trkpt>
      <trkpt lat="44.147476544603705" lon="9.692770047113299">
        <ele>387.20999999999998</ele>
        <time>2019-04-07T13:24:29Z</time>
      </trkpt>
      <trkpt lat="44.147404627874494" lon="9.692755965515971">
        <ele>387.00999999999999</ele>
        <time>2019-04-07T13:24:36Z</time>
      </trkpt>
      <trkpt lat="44.147325754165649" lon="9.692775495350361">
        <ele>385.06999999999999</ele>
        <time>2019-04-07T13:24:43Z</time>
      </trkpt>
      <trkpt lat="44.147257609292865" lon="9.69279351644218">
        <ele>382.88999999999999</ele>
        <time>2019-04-07T13:24:48Z</time>
      </trkpt>
      <trkpt lat="44.147244365885854" lon="9.692796869203448">
        <ele>382.49000000000001</ele>
        <time>2019-04-07T13:24:49Z</time>
      </trkpt>
      <trkpt lat="44.147162977606058" lon="9.692819500342012">
        <ele>380.13999999999999</ele>
        <time>2019-04-07T13:24:55Z</time>
      </trkpt>
      <trkpt lat="44.147040266543627" lon="9.692808436229825">
        <ele>380.39999999999998</ele>
        <time>2019-04-07T13:25:06Z</time>
      </trkpt>
      <trkpt lat="44.146890733391047" lon="9.692710787057877">
        <ele>382.13</ele>
        <time>2019-04-07T13:25:20Z</time>
      </trkpt>
      <trkpt lat="44.146856451407075" lon="9.692669799551368">
        <ele>382.95999999999998</ele>
        <time>2019-04-07T13:25:24Z</time>
      </trkpt>
      <trkpt lat="44.146810686215758" lon="9.69264549203217">
        <ele>383.37</ele>
        <time>2019-04-07T13:25:28Z</time>
      </trkpt>
      <trkpt lat="44.146661404520273" lon="9.692634176462889">
        <ele>382.68000000000001</ele>
        <time>2019-04-07T13:25:40Z</time>
      </trkpt>
      <trkpt lat="44.146621255204082" lon="9.692623447626829">
        <ele>381.88999999999999</ele>
        <time>2019-04-07T13:25:44Z</time>
      </trkpt>
      <trkpt lat="44.146500639617443" lon="9.692610371857882">
        <ele>379.19999999999999</ele>
        <time>2019-04-07T13:25:54Z</time>
      </trkpt>
      <trkpt lat="44.146459568291903" lon="9.692516326904297">
        <ele>377.26999999999998</ele>
        <time>2019-04-07T13:26:04Z</time>
      </trkpt>
      <trkpt lat="44.146464932709932" lon="9.692442230880261">
        <ele>377.54000000000002</ele>
        <time>2019-04-07T13:26:09Z</time>
      </trkpt>
      <trkpt lat="44.14646090939641" lon="9.692364195361733">
        <ele>377.31</ele>
        <time>2019-04-07T13:26:13Z</time>
      </trkpt>
      <trkpt lat="44.146456634625793" lon="9.692076193168759">
        <ele>377.11000000000001</ele>
        <time>2019-04-07T13:26:27Z</time>
      </trkpt>
      <trkpt lat="44.14649024605751" lon="9.691772181540728">
        <ele>374.58999999999997</ele>
        <time>2019-04-07T13:26:44Z</time>
      </trkpt>
      <trkpt lat="44.146470297127962" lon="9.691702611744404">
        <ele>373.48000000000002</ele>
        <time>2019-04-07T13:26:50Z</time>
      </trkpt>
      <trkpt lat="44.1464838758111" lon="9.691515527665615">
        <ele>373.79000000000002</ele>
        <time>2019-04-07T13:27:01Z</time>
      </trkpt>
      <trkpt lat="44.14648337289691" lon="9.691337160766125">
        <ele>370.45999999999998</ele>
        <time>2019-04-07T13:27:14Z</time>
      </trkpt>
      <trkpt lat="44.146427130326629" lon="9.69132668338716">
        <ele>368.14999999999998</ele>
        <time>2019-04-07T13:27:21Z</time>
      </trkpt>
      <trkpt lat="44.146418329328299" lon="9.691329365596175">
        <ele>367.81</ele>
        <time>2019-04-07T13:27:22Z</time>
      </trkpt>
      <trkpt lat="44.146344987675548" lon="9.691316457465291">
        <ele>364.25999999999999</ele>
        <time>2019-04-07T13:27:31Z</time>
      </trkpt>
      <trkpt lat="44.146266113966703" lon="9.691320732235909">
        <ele>361.19999999999999</ele>
        <time>2019-04-07T13:27:39Z</time>
      </trkpt>
      <trkpt lat="44.146173493936658" lon="9.691327940672636">
        <ele>358.04000000000002</ele>
        <time>2019-04-07T13:27:50Z</time>
      </trkpt>
      <trkpt lat="44.14612278342247" lon="9.691325761377811">
        <ele>355.66000000000003</ele>
        <time>2019-04-07T13:27:56Z</time>
      </trkpt>
      <trkpt lat="44.146032258868217" lon="9.691377561539412">
        <ele>352.33999999999997</ele>
        <time>2019-04-07T13:28:07Z</time>
      </trkpt>
      <trkpt lat="44.146023625507951" lon="9.691379657015204">
        <ele>352.01999999999998</ele>
        <time>2019-04-07T13:28:08Z</time>
      </trkpt>
      <trkpt lat="44.145988170057535" lon="9.691386362537742">
        <ele>350.66000000000003</ele>
        <time>2019-04-07T13:28:12Z</time>
      </trkpt>
      <trkpt lat="44.145969310775399" lon="9.691343363374472">
        <ele>349.41000000000003</ele>
        <time>2019-04-07T13:28:16Z</time>
      </trkpt>
      <trkpt lat="44.145964616909623" lon="9.691281085833907">
        <ele>348.66000000000003</ele>
        <time>2019-04-07T13:28:21Z</time>
      </trkpt>
      <trkpt lat="44.145966796204448" lon="9.691192992031574">
        <ele>346.86000000000001</ele>
        <time>2019-04-07T13:28:29Z</time>
      </trkpt>
      <trkpt lat="44.145970651879907" lon="9.691166421398521">
        <ele>346.17000000000002</ele>
        <time>2019-04-07T13:28:31Z</time>
      </trkpt>
      <trkpt lat="44.146118424832821" lon="9.691045889630914">
        <ele>344.16000000000003</ele>
        <time>2019-04-07T13:28:45Z</time>
      </trkpt>
      <trkpt lat="44.146235436201096" lon="9.690944217145443">
        <ele>343.19999999999999</ele>
        <time>2019-04-07T13:28:57Z</time>
      </trkpt>
      <trkpt lat="44.146317914128304" lon="9.690836928784847">
        <ele>340.13999999999999</ele>
        <time>2019-04-07T13:29:08Z</time>
      </trkpt>
      <trkpt lat="44.146350268274546" lon="9.690663423389196">
        <ele>337.02999999999997</ele>
        <time>2019-04-07T13:29:20Z</time>
      </trkpt>
      <trkpt lat="44.146367451176047" lon="9.69062159769237">
        <ele>335.83999999999997</ele>
        <time>2019-04-07T13:29:29Z</time>
      </trkpt>
      <trkpt lat="44.146356638520956" lon="9.690587315708399">
        <ele>335.75</ele>
        <time>2019-04-07T13:29:32Z</time>
      </trkpt>
      <trkpt lat="44.14625714533031" lon="9.690581532195211">
        <ele>333.38</ele>
        <time>2019-04-07T13:29:47Z</time>
      </trkpt>
      <trkpt lat="44.14624054916203" lon="9.690576251596212">
        <ele>332.48000000000002</ele>
        <time>2019-04-07T13:29:50Z</time>
      </trkpt>
      <trkpt lat="44.146178523078561" lon="9.690420096740127">
        <ele>329.00999999999999</ele>
        <time>2019-04-07T13:30:03Z</time>
      </trkpt>
      <trkpt lat="44.146162262186408" lon="9.690382713451982">
        <ele>327.67000000000002</ele>
        <time>2019-04-07T13:30:06Z</time>
      </trkpt>
      <trkpt lat="44.146161759272218" lon="9.690370308235288">
        <ele>327.41000000000003</ele>
        <time>2019-04-07T13:30:07Z</time>
      </trkpt>
      <trkpt lat="44.146156227216125" lon="9.690221529453993">
        <ele>324.41000000000003</ele>
        <time>2019-04-07T13:30:16Z</time>
      </trkpt>
      <trkpt lat="44.146189838647842" lon="9.689998822286725">
        <ele>321.25999999999999</ele>
        <time>2019-04-07T13:30:31Z</time>
      </trkpt>
      <trkpt lat="44.146212721243501" lon="9.689875105395913">
        <ele>318.81999999999999</ele>
        <time>2019-04-07T13:30:41Z</time>
      </trkpt>
      <trkpt lat="44.146207692101598" lon="9.689751891419292">
        <ele>317.52999999999997</ele>
        <time>2019-04-07T13:30:48Z</time>
      </trkpt>
      <trkpt lat="44.146208195015788" lon="9.689502194523811">
        <ele>314.49000000000001</ele>
        <time>2019-04-07T13:31:02Z</time>
      </trkpt>
      <trkpt lat="44.14618045091629" lon="9.689306141808629">
        <ele>311.55000000000001</ele>
        <time>2019-04-07T13:31:17Z</time>
      </trkpt>
      <trkpt lat="44.146177936345339" lon="9.689282923936844">
        <ele>310.19999999999999</ele>
        <time>2019-04-07T13:31:19Z</time>
      </trkpt>
      <trkpt lat="44.14617458358407" lon="9.689252246171236">
        <ele>309.39999999999998</ele>
        <time>2019-04-07T13:31:21Z</time>
      </trkpt>
      <trkpt lat="44.146178439259529" lon="9.689212013036013">
        <ele>309.75999999999999</ele>
        <time>2019-04-07T13:31:32Z</time>
      </trkpt>
      <trkpt lat="44.146163519471884" lon="9.689202709123492">
        <ele>309.75999999999999</ele>
        <time>2019-04-07T13:31:45Z</time>
      </trkpt>
      <trkpt lat="44.146220264956355" lon="9.689076812937856">
        <ele>310.18000000000001</ele>
        <time>2019-04-07T13:32:01Z</time>
      </trkpt>
      <trkpt lat="44.146212972700596" lon="9.688962064683437">
        <ele>311.18000000000001</ele>
        <time>2019-04-07T13:32:08Z</time>
      </trkpt>
      <trkpt lat="44.146138960495591" lon="9.68887472525239">
        <ele>313.45999999999998</ele>
        <time>2019-04-07T13:32:23Z</time>
      </trkpt>
      <trkpt lat="44.146027062088251" lon="9.688859051093459">
        <ele>314.76999999999998</ele>
        <time>2019-04-07T13:32:36Z</time>
      </trkpt>
      <trkpt lat="44.145891861990094" lon="9.688845975324512">
        <ele>315.74000000000001</ele>
        <time>2019-04-07T13:32:51Z</time>
      </trkpt>
      <trkpt lat="44.145880546420813" lon="9.688826110213995">
        <ele>315.95999999999998</ele>
        <time>2019-04-07T13:33:00Z</time>
      </trkpt>
      <trkpt lat="44.145858082920313" lon="9.688888303935528">
        <ele>315.32999999999998</ele>
        <time>2019-04-07T13:33:11Z</time>
      </trkpt>
      <trkpt lat="44.145885491743684" lon="9.688816219568253">
        <ele>315.87</ele>
        <time>2019-04-07T13:33:22Z</time>
      </trkpt>
      <trkpt lat="44.145895969122648" lon="9.688727036118507">
        <ele>315.57999999999998</ele>
        <time>2019-04-07T13:33:28Z</time>
      </trkpt>
      <trkpt lat="44.145888760685921" lon="9.68864606693387">
        <ele>315.89999999999998</ele>
        <time>2019-04-07T13:33:33Z</time>
      </trkpt>
      <trkpt lat="44.1459243837744" lon="9.688414139673114">
        <ele>317.13999999999999</ele>
        <time>2019-04-07T13:33:49Z</time>
      </trkpt>
      <trkpt lat="44.14596981368959" lon="9.688161425292492">
        <ele>318.04000000000002</ele>
        <time>2019-04-07T13:34:05Z</time>
      </trkpt>
      <trkpt lat="44.145915331318974" lon="9.687969228252769">
        <ele>319.31</ele>
        <time>2019-04-07T13:34:19Z</time>
      </trkpt>
      <trkpt lat="44.145890101790428" lon="9.687948524951935">
        <ele>319.52999999999997</ele>
        <time>2019-04-07T13:34:22Z</time>
      </trkpt>
      <trkpt lat="44.14573336020112" lon="9.687917847186327">
        <ele>321.18000000000001</ele>
        <time>2019-04-07T13:34:37Z</time>
      </trkpt>
      <trkpt lat="44.145563375204802" lon="9.687860012054443">
        <ele>321.67000000000002</ele>
        <time>2019-04-07T13:34:53Z</time>
      </trkpt>
      <trkpt lat="44.145410154014826" lon="9.687758674845099">
        <ele>318.66000000000003</ele>
        <time>2019-04-07T13:35:07Z</time>
      </trkpt>
      <trkpt lat="44.145290208980441" lon="9.687669826671481">
        <ele>315.55000000000001</ele>
        <time>2019-04-07T13:35:18Z</time>
      </trkpt>
      <trkpt lat="44.145175879821181" lon="9.687641579657793">
        <ele>312.44999999999999</ele>
        <time>2019-04-07T13:35:27Z</time>
      </trkpt>
      <trkpt lat="44.145059874281287" lon="9.687618026509881">
        <ele>309.42000000000002</ele>
        <time>2019-04-07T13:35:37Z</time>
      </trkpt>
      <trkpt lat="44.144906233996153" lon="9.687635963782668">
        <ele>306.16000000000003</ele>
        <time>2019-04-07T13:35:49Z</time>
      </trkpt>
      <trkpt lat="44.144731555134058" lon="9.687610315158963">
        <ele>302.73000000000002</ele>
        <time>2019-04-07T13:36:03Z</time>
      </trkpt>
      <trkpt lat="44.144621584564447" lon="9.687662785872817">
        <ele>300.80000000000001</ele>
        <time>2019-04-07T13:36:09Z</time>
      </trkpt>
      <trkpt lat="44.144563833251595" lon="9.687713664025068">
        <ele>301.69999999999999</ele>
        <time>2019-04-07T13:36:14Z</time>
      </trkpt>
      <trkpt lat="44.144470877945423" lon="9.687738139182329">
        <ele>301.94</ele>
        <time>2019-04-07T13:36:25Z</time>
      </trkpt>
      <trkpt lat="44.144425531849265" lon="9.687824891880155">
        <ele>302.06999999999999</ele>
        <time>2019-04-07T13:36:31Z</time>
      </trkpt>
      <trkpt lat="44.14439057931304" lon="9.687811816111207">
        <ele>301.97000000000003</ele>
        <time>2019-04-07T13:36:37Z</time>
      </trkpt>
      <trkpt lat="44.144268371164799" lon="9.687788262963295">
        <ele>303.64999999999998</ele>
        <time>2019-04-07T13:36:50Z</time>
      </trkpt>
      <trkpt lat="44.14414674974978" lon="9.687743755057454">
        <ele>305.64999999999998</ele>
        <time>2019-04-07T13:37:04Z</time>
      </trkpt>
      <trkpt lat="44.144092351198196" lon="9.687694972380996">
        <ele>305.85000000000002</ele>
        <time>2019-04-07T13:37:10Z</time>
      </trkpt>
      <trkpt lat="44.143965616822243" lon="9.687577374279499">
        <ele>306.49000000000001</ele>
        <time>2019-04-07T13:37:23Z</time>
      </trkpt>
      <trkpt lat="44.143886743113399" lon="9.687500176951289">
        <ele>306.77999999999997</ele>
        <time>2019-04-07T13:37:33Z</time>
      </trkpt>
      <trkpt lat="44.143848521634936" lon="9.687493219971657">
        <ele>306.64999999999998</ele>
        <time>2019-04-07T13:37:37Z</time>
      </trkpt>
      <trkpt lat="44.143679877743125" lon="9.687502104789019">
        <ele>306.97000000000003</ele>
        <time>2019-04-07T13:37:49Z</time>
      </trkpt>
      <trkpt lat="44.143589269369841" lon="9.687511660158634">
        <ele>307.37</ele>
        <time>2019-04-07T13:37:55Z</time>
      </trkpt>
      <trkpt lat="44.14343973621726" lon="9.687540996819735">
        <ele>307.67000000000002</ele>
        <time>2019-04-07T13:38:08Z</time>
      </trkpt>
      <trkpt lat="44.143310487270355" lon="9.687567232176662">
        <ele>308</ele>
        <time>2019-04-07T13:38:19Z</time>
      </trkpt>
      <trkpt lat="44.143256172537804" lon="9.68756421469152">
        <ele>307.91000000000003</ele>
        <time>2019-04-07T13:38:25Z</time>
      </trkpt>
      <trkpt lat="44.143225913867354" lon="9.687597826123238">
        <ele>307.10000000000002</ele>
        <time>2019-04-07T13:38:38Z</time>
      </trkpt>
      <trkpt lat="44.14322323165834" lon="9.687651554122567">
        <ele>307.24000000000001</ele>
        <time>2019-04-07T13:39:02Z</time>
      </trkpt>
      <trkpt lat="44.143240414559841" lon="9.687642334029079">
        <ele>307.33999999999997</ele>
        <time>2019-04-07T13:39:25Z</time>
      </trkpt>
      <trkpt lat="44.14325256831944" lon="9.68763311393559">
        <ele>307.58999999999997</ele>
        <time>2019-04-07T13:40:26Z</time>
      </trkpt>
      <trkpt lat="44.143235217779875" lon="9.687608554959297">
        <ele>308.04000000000002</ele>
        <time>2019-04-07T13:41:27Z</time>
      </trkpt>
      <trkpt lat="44.143216274678707" lon="9.687588354572654">
        <ele>308.10000000000002</ele>
        <time>2019-04-07T13:42:24Z</time>
      </trkpt>
      <trkpt lat="44.143220046535134" lon="9.687593802809715">
        <ele>308.12</ele>
        <time>2019-04-07T13:43:13Z</time>
      </trkpt>
      <trkpt lat="44.143247790634632" lon="9.6876101475209">
        <ele>308.11000000000001</ele>
        <time>2019-04-07T13:43:59Z</time>
      </trkpt>
      <trkpt lat="44.143228344619274" lon="9.687604447826743">
        <ele>308.18000000000001</ele>
        <time>2019-04-07T13:44:38Z</time>
      </trkpt>
      <trkpt lat="44.143222980201244" lon="9.687598580494523">
        <ele>308.12</ele>
        <time>2019-04-07T13:45:13Z</time>
      </trkpt>
      <trkpt lat="44.143204623833299" lon="9.687592210248113">
        <ele>308.25999999999999</ele>
        <time>2019-04-07T13:45:38Z</time>
      </trkpt>
      <trkpt lat="44.143218286335468" lon="9.68759011477232">
        <ele>308.45999999999998</ele>
        <time>2019-04-07T13:46:25Z</time>
      </trkpt>
      <trkpt lat="44.143242090940475" lon="9.687599921599031">
        <ele>308.95999999999998</ele>
        <time>2019-04-07T13:47:25Z</time>
      </trkpt>
      <trkpt lat="44.143248461186886" lon="9.687600843608379">
        <ele>309.11000000000001</ele>
        <time>2019-04-07T13:48:28Z</time>
      </trkpt>
      <trkpt lat="44.1432667337358" lon="9.687612745910883">
        <ele>309.26999999999998</ele>
        <time>2019-04-07T13:49:11Z</time>
      </trkpt>
      <trkpt lat="44.143258100375533" lon="9.687614422291517">
        <ele>309.22000000000003</ele>
        <time>2019-04-07T13:49:55Z</time>
      </trkpt>
      <trkpt lat="44.143256675451994" lon="9.687636299058795">
        <ele>309.44</ele>
        <time>2019-04-07T13:50:49Z</time>
      </trkpt>
      <trkpt lat="44.143289448693395" lon="9.687599921599031">
        <ele>309.39999999999998</ele>
        <time>2019-04-07T13:51:51Z</time>
      </trkpt>
      <trkpt lat="44.143247622996569" lon="9.687620457261801">
        <ele>309.14999999999998</ele>
        <time>2019-04-07T13:52:54Z</time>
      </trkpt>
      <trkpt lat="44.143266649916768" lon="9.687618026509881">
        <ele>309.18000000000001</ele>
        <time>2019-04-07T13:53:54Z</time>
      </trkpt>
      <trkpt lat="44.143262291327119" lon="9.687628839164972">
        <ele>308.85000000000002</ele>
        <time>2019-04-07T13:54:42Z</time>
      </trkpt>
      <trkpt lat="44.143254747614264" lon="9.687627581879497">
        <ele>308.66000000000003</ele>
        <time>2019-04-07T13:55:40Z</time>
      </trkpt>
      <trkpt lat="44.143255418166518" lon="9.687620038166642">
        <ele>308.50999999999999</ele>
        <time>2019-04-07T13:56:16Z</time>
      </trkpt>
      <trkpt lat="44.143311576917768" lon="9.687647530809045">
        <ele>309.17000000000002</ele>
        <time>2019-04-07T13:56:38Z</time>
      </trkpt>
      <trkpt lat="44.143408471718431" lon="9.687608638778329">
        <ele>308.80000000000001</ele>
        <time>2019-04-07T13:56:50Z</time>
      </trkpt>
      <trkpt lat="44.143495392054319" lon="9.687595060095191">
        <ele>308.44999999999999</ele>
        <time>2019-04-07T13:57:02Z</time>
      </trkpt>
      <trkpt lat="44.143572673201561" lon="9.687569327652454">
        <ele>307.85000000000002</ele>
        <time>2019-04-07T13:57:13Z</time>
      </trkpt>
      <trkpt lat="44.143627909943461" lon="9.687557006254792">
        <ele>307.74000000000001</ele>
        <time>2019-04-07T13:57:17Z</time>
      </trkpt>
      <trkpt lat="44.143762355670333" lon="9.687632527202368">
        <ele>305.92000000000002</ele>
        <time>2019-04-07T13:57:31Z</time>
      </trkpt>
      <trkpt lat="44.143818682059646" lon="9.687689356505871">
        <ele>307.06</ele>
        <time>2019-04-07T13:57:37Z</time>
      </trkpt>
      <trkpt lat="44.143969975411892" lon="9.687799662351608">
        <ele>306.55000000000001</ele>
        <time>2019-04-07T13:57:49Z</time>
      </trkpt>
      <trkpt lat="44.144045831635594" lon="9.68781684525311">
        <ele>306.31</ele>
        <time>2019-04-07T13:57:56Z</time>
      </trkpt>
      <trkpt lat="44.144122609868646" lon="9.68781097792089">
        <ele>305.37</ele>
        <time>2019-04-07T13:58:06Z</time>
      </trkpt>
      <trkpt lat="44.144249428063631" lon="9.687782814726234">
        <ele>303.33999999999997</ele>
        <time>2019-04-07T13:58:19Z</time>
      </trkpt>
      <trkpt lat="44.144275998696685" lon="9.687769571319223">
        <ele>302.80000000000001</ele>
        <time>2019-04-07T13:58:22Z</time>
      </trkpt>
      <trkpt lat="44.144338695332408" lon="9.687862107530236">
        <ele>301.32999999999998</ele>
        <time>2019-04-07T13:58:31Z</time>
      </trkpt>
      <trkpt lat="44.14435395039618" lon="9.687874848023057">
        <ele>302.61000000000001</ele>
        <time>2019-04-07T13:58:33Z</time>
      </trkpt>
      <trkpt lat="44.144389154389501" lon="9.687959924340248">
        <ele>299.48000000000002</ele>
        <time>2019-04-07T13:58:41Z</time>
      </trkpt>
      <trkpt lat="44.144376581534743" lon="9.688096214085817">
        <ele>296.67000000000002</ele>
        <time>2019-04-07T13:58:55Z</time>
      </trkpt>
      <trkpt lat="44.144373647868633" lon="9.688107026740909">
        <ele>296.33999999999997</ele>
        <time>2019-04-07T13:58:56Z</time>
      </trkpt>
      <trkpt lat="44.144302569329739" lon="9.688232922926545">
        <ele>294.25999999999999</ele>
        <time>2019-04-07T13:59:04Z</time>
      </trkpt>
      <trkpt lat="44.144197376444936" lon="9.688274748623371">
        <ele>293.25999999999999</ele>
        <time>2019-04-07T13:59:12Z</time>
      </trkpt>
      <trkpt lat="44.144016159698367" lon="9.688214398920536">
        <ele>294.25999999999999</ele>
        <time>2019-04-07T13:59:28Z</time>
      </trkpt>
      <trkpt lat="44.143953043967485" lon="9.688214901834726">
        <ele>290.95999999999998</ele>
        <time>2019-04-07T13:59:33Z</time>
      </trkpt>
      <trkpt lat="44.143943823873997" lon="9.688207441940904">
        <ele>291.06999999999999</ele>
        <time>2019-04-07T13:59:34Z</time>
      </trkpt>
      <trkpt lat="44.143901914358139" lon="9.688183385878801">
        <ele>290.94</ele>
        <time>2019-04-07T13:59:38Z</time>
      </trkpt>
      <trkpt lat="44.143775431439281" lon="9.688173159956932">
        <ele>287.54000000000002</ele>
        <time>2019-04-07T13:59:49Z</time>
      </trkpt>
      <trkpt lat="44.143744669854641" lon="9.688178189098835">
        <ele>287.07999999999998</ele>
        <time>2019-04-07T13:59:57Z</time>
      </trkpt>
      <trkpt lat="44.143709214404225" lon="9.688165616244078">
        <ele>286.31</ele>
        <time>2019-04-07T14:00:00Z</time>
      </trkpt>
      <trkpt lat="44.143596226349473" lon="9.688166873529553">
        <ele>284.42000000000002</ele>
        <time>2019-04-07T14:00:09Z</time>
      </trkpt>
      <trkpt lat="44.143438227474689" lon="9.688244992867112">
        <ele>280.82999999999998</ele>
        <time>2019-04-07T14:00:22Z</time>
      </trkpt>
      <trkpt lat="44.143275115638971" lon="9.688324369490147">
        <ele>277.73000000000002</ele>
        <time>2019-04-07T14:00:35Z</time>
      </trkpt>
      <trkpt lat="44.143088785931468" lon="9.688437692821026">
        <ele>274.72000000000003</ele>
        <time>2019-04-07T14:00:50Z</time>
      </trkpt>
      <trkpt lat="44.142884686589241" lon="9.688557637855411">
        <ele>271.70999999999998</ele>
        <time>2019-04-07T14:01:07Z</time>
      </trkpt>
      <trkpt lat="44.142711432650685" lon="9.688644725829363">
        <ele>268.94999999999999</ele>
        <time>2019-04-07T14:01:22Z</time>
      </trkpt>
      <trkpt lat="44.142525102943182" lon="9.68865972943604">
        <ele>267.99000000000001</ele>
        <time>2019-04-07T14:01:37Z</time>
      </trkpt>
      <trkpt lat="44.142317650839686" lon="9.688691915944219">
        <ele>266.50999999999999</ele>
        <time>2019-04-07T14:01:53Z</time>
      </trkpt>
      <trkpt lat="44.142142217606306" lon="9.688740195706487">
        <ele>265.67000000000002</ele>
        <time>2019-04-07T14:02:08Z</time>
      </trkpt>
      <trkpt lat="44.141967622563243" lon="9.688725527375937">
        <ele>264.44</ele>
        <time>2019-04-07T14:02:23Z</time>
      </trkpt>
      <trkpt lat="44.141869219020009" lon="9.688637601211667">
        <ele>262.17000000000002</ele>
        <time>2019-04-07T14:02:36Z</time>
      </trkpt>
      <trkpt lat="44.141836697235703" lon="9.688670206815004">
        <ele>260.86000000000001</ele>
        <time>2019-04-07T14:02:41Z</time>
      </trkpt>
      <trkpt lat="44.141805600374937" lon="9.688665932044387">
        <ele>259.80000000000001</ele>
        <time>2019-04-07T14:02:46Z</time>
      </trkpt>
      <trkpt lat="44.141862178221345" lon="9.6884442307055">
        <ele>257.25999999999999</ele>
        <time>2019-04-07T14:03:02Z</time>
      </trkpt>
      <trkpt lat="44.141878439113498" lon="9.688389245420694">
        <ele>256.69</ele>
        <time>2019-04-07T14:03:06Z</time>
      </trkpt>
      <trkpt lat="44.14191666059196" lon="9.68820140697062">
        <ele>254.05000000000001</ele>
        <time>2019-04-07T14:03:21Z</time>
      </trkpt>
      <trkpt lat="44.141918253153563" lon="9.688158826902509">
        <ele>253.34</ele>
        <time>2019-04-07T14:03:24Z</time>
      </trkpt>
      <trkpt lat="44.141853712499142" lon="9.68790234066546">
        <ele>250.53</ele>
        <time>2019-04-07T14:03:41Z</time>
      </trkpt>
      <trkpt lat="44.141818676143885" lon="9.687780132517219">
        <ele>248.12</ele>
        <time>2019-04-07T14:03:50Z</time>
      </trkpt>
      <trkpt lat="44.14178280159831" lon="9.687707293778658">
        <ele>247.28</ele>
        <time>2019-04-07T14:03:55Z</time>
      </trkpt>
      <trkpt lat="44.141729744151235" lon="9.687610398977995">
        <ele>246.13999999999999</ele>
        <time>2019-04-07T14:04:02Z</time>
      </trkpt>
      <trkpt lat="44.141664700582623" lon="9.687430607154965">
        <ele>244.16999999999999</ele>
        <time>2019-04-07T14:04:14Z</time>
      </trkpt>
      <trkpt lat="44.141609631478786" lon="9.687262466177344">
        <ele>242.69999999999999</ele>
        <time>2019-04-07T14:04:25Z</time>
      </trkpt>
      <trkpt lat="44.141573840752244" lon="9.687232542783022">
        <ele>241.53999999999999</ele>
        <time>2019-04-07T14:04:29Z</time>
      </trkpt>
      <trkpt lat="44.141443334519863" lon="9.687224999070168">
        <ele>241.18000000000001</ele>
        <time>2019-04-07T14:04:41Z</time>
      </trkpt>
      <trkpt lat="44.141363119706511" lon="9.687226256355643">
        <ele>239.25</ele>
        <time>2019-04-07T14:04:48Z</time>
      </trkpt>
      <trkpt lat="44.141177544370294" lon="9.68720706179738">
        <ele>236.97</ele>
        <time>2019-04-07T14:05:04Z</time>
      </trkpt>
      <trkpt lat="44.141062209382653" lon="9.687112178653479">
        <ele>235.00999999999999</ele>
        <time>2019-04-07T14:05:17Z</time>
      </trkpt>
      <trkpt lat="44.140928937122226" lon="9.687029449269176">
        <ele>233.34</ele>
        <time>2019-04-07T14:05:30Z</time>
      </trkpt>
      <trkpt lat="44.140744619071484" lon="9.686951329931617">
        <ele>230.75</ele>
        <time>2019-04-07T14:05:46Z</time>
      </trkpt>
      <trkpt lat="44.140543788671494" lon="9.686948228627443">
        <ele>228.61000000000001</ele>
        <time>2019-04-07T14:06:03Z</time>
      </trkpt>
      <trkpt lat="44.14040339179337" lon="9.686903301626444">
        <ele>226.81</ele>
        <time>2019-04-07T14:06:16Z</time>
      </trkpt>
      <trkpt lat="44.140281267464161" lon="9.686794253066182">
        <ele>224.66</ele>
        <time>2019-04-07T14:06:29Z</time>
      </trkpt>
      <trkpt lat="44.140175068750978" lon="9.686654275283217">
        <ele>222.43000000000001</ele>
        <time>2019-04-07T14:06:43Z</time>
      </trkpt>
      <trkpt lat="44.140152437612414" lon="9.686396364122629">
        <ele>220.31999999999999</ele>
        <time>2019-04-07T14:06:59Z</time>
      </trkpt>
      <trkpt lat="44.140148665755987" lon="9.686095705255866">
        <ele>219.18000000000001</ele>
        <time>2019-04-07T14:07:17Z</time>
      </trkpt>
      <trkpt lat="44.140175404027104" lon="9.685878278687596">
        <ele>217.77000000000001</ele>
        <time>2019-04-07T14:07:31Z</time>
      </trkpt>
      <trkpt lat="44.140214798972011" lon="9.685764871537685">
        <ele>215.28999999999999</ele>
        <time>2019-04-07T14:07:40Z</time>
      </trkpt>
      <trkpt lat="44.140297444537282" lon="9.685576446354389">
        <ele>213.84</ele>
        <time>2019-04-07T14:07:55Z</time>
      </trkpt>
      <trkpt lat="44.140350837260485" lon="9.685391038656235">
        <ele>211.96000000000001</ele>
        <time>2019-04-07T14:08:08Z</time>
      </trkpt>
      <trkpt lat="44.140215888619423" lon="9.685226250439882">
        <ele>210.75999999999999</ele>
        <time>2019-04-07T14:08:24Z</time>
      </trkpt>
      <trkpt lat="44.140128968283534" lon="9.685148969292641">
        <ele>208.46000000000001</ele>
        <time>2019-04-07T14:08:39Z</time>
      </trkpt>
      <trkpt lat="44.140175571665168" lon="9.685243349522352">
        <ele>206.47999999999999</ele>
        <time>2019-04-07T14:08:50Z</time>
      </trkpt>
      <trkpt lat="44.140216307714581" lon="9.685329850763083">
        <ele>204.59999999999999</ele>
        <time>2019-04-07T14:09:00Z</time>
      </trkpt>
      <trkpt lat="44.14021429605782" lon="9.68533362261951">
        <ele>204.47999999999999</ele>
        <time>2019-04-07T14:09:01Z</time>
      </trkpt>
      <trkpt lat="44.140131901949644" lon="9.685285091400147">
        <ele>201.21000000000001</ele>
        <time>2019-04-07T14:09:14Z</time>
      </trkpt>
      <trkpt lat="44.140035007148981" lon="9.685234213247895">
        <ele>197.97</ele>
        <time>2019-04-07T14:09:26Z</time>
      </trkpt>
      <trkpt lat="44.139947080984712" lon="9.685196746140719">
        <ele>195.84</ele>
        <time>2019-04-07T14:09:36Z</time>
      </trkpt>
      <trkpt lat="44.139832500368357" lon="9.685166487470269">
        <ele>192.22999999999999</ele>
        <time>2019-04-07T14:09:49Z</time>
      </trkpt>
      <trkpt lat="44.139707442373037" lon="9.685118207708001">
        <ele>189.19</ele>
        <time>2019-04-07T14:10:03Z</time>
      </trkpt>
      <trkpt lat="44.139541061595082" lon="9.68504779972136">
        <ele>186.12</ele>
        <time>2019-04-07T14:10:19Z</time>
      </trkpt>
      <trkpt lat="44.139376189559698" lon="9.684998849406838">
        <ele>183.06</ele>
        <time>2019-04-07T14:10:35Z</time>
      </trkpt>
      <trkpt lat="44.139197738841176" lon="9.684921568259597">
        <ele>180.28999999999999</ele>
        <time>2019-04-07T14:10:52Z</time>
      </trkpt>
      <trkpt lat="44.139050468802452" lon="9.684865744784474">
        <ele>178.16999999999999</ele>
        <time>2019-04-07T14:11:06Z</time>
      </trkpt>
      <trkpt lat="44.138933792710304" lon="9.684791229665279">
        <ele>176.28</ele>
        <time>2019-04-07T14:11:18Z</time>
      </trkpt>
      <trkpt lat="44.138816446065903" lon="9.684718390926719">
        <ele>173.86000000000001</ele>
        <time>2019-04-07T14:11:31Z</time>
      </trkpt>
      <trkpt lat="44.138743272051215" lon="9.684603894129396">
        <ele>171.09999999999999</ele>
        <time>2019-04-07T14:11:44Z</time>
      </trkpt>
      <trkpt lat="44.138757102191448" lon="9.684412116184831">
        <ele>167.71000000000001</ele>
        <time>2019-04-07T14:11:58Z</time>
      </trkpt>
      <trkpt lat="44.13882264867425" lon="9.684251938015223">
        <ele>164.59999999999999</ele>
        <time>2019-04-07T14:12:12Z</time>
      </trkpt>
      <trkpt lat="44.138908982276917" lon="9.684073403477669">
        <ele>161.56</ele>
        <time>2019-04-07T14:12:27Z</time>
      </trkpt>
      <trkpt lat="44.138895403593779" lon="9.684023531153798">
        <ele>159.18000000000001</ele>
        <time>2019-04-07T14:12:38Z</time>
      </trkpt>
      <trkpt lat="44.138865061104298" lon="9.684040546417236">
        <ele>158.5</ele>
        <time>2019-04-07T14:12:42Z</time>
      </trkpt>
      <trkpt lat="44.138744445517659" lon="9.68411548063159">
        <ele>155.31999999999999</ele>
        <time>2019-04-07T14:12:56Z</time>
      </trkpt>
      <trkpt lat="44.138652496039867" lon="9.684167532250285">
        <ele>153.61000000000001</ele>
        <time>2019-04-07T14:13:06Z</time>
      </trkpt>
      <trkpt lat="44.138515200465918" lon="9.684205837547779">
        <ele>150.50999999999999</ele>
        <time>2019-04-07T14:13:20Z</time>
      </trkpt>
      <trkpt lat="44.138391064479947" lon="9.684239868074656">
        <ele>148.02000000000001</ele>
        <time>2019-04-07T14:13:33Z</time>
      </trkpt>
      <trkpt lat="44.138269862160087" lon="9.684332236647606">
        <ele>145.27000000000001</ele>
        <time>2019-04-07T14:13:47Z</time>
      </trkpt>
      <trkpt lat="44.138190317898989" lon="9.684400297701359">
        <ele>142.78999999999999</ele>
        <time>2019-04-07T14:13:57Z</time>
      </trkpt>
      <trkpt lat="44.138167267665267" lon="9.684369536116719">
        <ele>142.15000000000001</ele>
        <time>2019-04-07T14:14:01Z</time>
      </trkpt>
      <trkpt lat="44.138167016208172" lon="9.684279849752784">
        <ele>140.88999999999999</ele>
        <time>2019-04-07T14:14:07Z</time>
      </trkpt>
      <trkpt lat="44.138264833018184" lon="9.684117492288351">
        <ele>138.16</ele>
        <time>2019-04-07T14:14:22Z</time>
      </trkpt>
      <trkpt lat="44.138250583782792" lon="9.684081198647618">
        <ele>136.15000000000001</ele>
        <time>2019-04-07T14:14:33Z</time>
      </trkpt>
      <trkpt lat="44.138187635689974" lon="9.684082875028253">
        <ele>135.03</ele>
        <time>2019-04-07T14:14:41Z</time>
      </trkpt>
      <trkpt lat="44.138019075617194" lon="9.684135178104043">
        <ele>131.75999999999999</ele>
        <time>2019-04-07T14:14:57Z</time>
      </trkpt>
      <trkpt lat="44.137994768097997" lon="9.684146326035261">
        <ele>131.30000000000001</ele>
        <time>2019-04-07T14:15:00Z</time>
      </trkpt>
      <trkpt lat="44.137951852753758" lon="9.684127382934094">
        <ele>130.22</ele>
        <time>2019-04-07T14:15:05Z</time>
      </trkpt>
      <trkpt lat="44.138059057295322" lon="9.684007102623582">
        <ele>127.42</ele>
        <time>2019-04-07T14:15:20Z</time>
      </trkpt>
      <trkpt lat="44.13817330263555" lon="9.683911800384522">
        <ele>124.39</ele>
        <time>2019-04-07T14:15:35Z</time>
      </trkpt>
      <trkpt lat="44.138293918222189" lon="9.683812642470002">
        <ele>121.36</ele>
        <time>2019-04-07T14:15:50Z</time>
      </trkpt>
      <trkpt lat="44.138332391157746" lon="9.683743994683027">
        <ele>118.37</ele>
        <time>2019-04-07T14:16:04Z</time>
      </trkpt>
      <trkpt lat="44.138271287083626" lon="9.683755729347467">
        <ele>116.81</ele>
        <time>2019-04-07T14:16:11Z</time>
      </trkpt>
      <trkpt lat="44.138152012601495" lon="9.683789424598217">
        <ele>114.59999999999999</ele>
        <time>2019-04-07T14:16:24Z</time>
      </trkpt>
      <trkpt lat="44.138126112520695" lon="9.683787664398551">
        <ele>113.90000000000001</ele>
        <time>2019-04-07T14:16:27Z</time>
      </trkpt>
      <trkpt lat="44.13795973174274" lon="9.683767296373844">
        <ele>110.68000000000001</ele>
        <time>2019-04-07T14:16:44Z</time>
      </trkpt>
      <trkpt lat="44.137837020680308" lon="9.683716166764498">
        <ele>108.5</ele>
        <time>2019-04-07T14:16:56Z</time>
      </trkpt>
      <trkpt lat="44.137818831950426" lon="9.68370845541358">
        <ele>108.03</ele>
        <time>2019-04-07T14:16:58Z</time>
      </trkpt>
      <trkpt lat="44.137672064825892" lon="9.683627150952816">
        <ele>105.14</ele>
        <time>2019-04-07T14:17:12Z</time>
      </trkpt>
      <trkpt lat="44.137500235810876" lon="9.683544589206576">
        <ele>102.09</ele>
        <time>2019-04-07T14:17:28Z</time>
      </trkpt>
      <trkpt lat="44.137358414009213" lon="9.683472756296396">
        <ele>98.900000000000006</ele>
        <time>2019-04-07T14:17:42Z</time>
      </trkpt>
      <trkpt lat="44.137239223346114" lon="9.68344115652144">
        <ele>95.840000000000003</ele>
        <time>2019-04-07T14:17:54Z</time>
      </trkpt>
      <trkpt lat="44.137113830074668" lon="9.683405114337802">
        <ele>92.659999999999997</ele>
        <time>2019-04-07T14:18:07Z</time>
      </trkpt>
      <trkpt lat="44.136987095698714" lon="9.683377370238304">
        <ele>90.109999999999999</ele>
        <time>2019-04-07T14:18:20Z</time>
      </trkpt>
      <trkpt lat="44.136987011879683" lon="9.683376867324114">
        <ele>89.879999999999995</ele>
        <time>2019-04-07T14:18:30Z</time>
      </trkpt>
      <trkpt lat="44.136981312185526" lon="9.683391451835632">
        <ele>89.799999999999997</ele>
        <time>2019-04-07T14:18:41Z</time>
      </trkpt>
      <trkpt lat="44.136943006888032" lon="9.683388434350491">
        <ele>89.120000000000005</ele>
        <time>2019-04-07T14:18:45Z</time>
      </trkpt>
      <trkpt lat="44.136815769597888" lon="9.683423386886716">
        <ele>85.879999999999995</ele>
        <time>2019-04-07T14:18:59Z</time>
      </trkpt>
      <trkpt lat="44.136782493442297" lon="9.683534782379866">
        <ele>84.209999999999994</ele>
        <time>2019-04-07T14:19:08Z</time>
      </trkpt>
      <trkpt lat="44.136779895052314" lon="9.683580379933119">
        <ele>83.609999999999999</ele>
        <time>2019-04-07T14:19:11Z</time>
      </trkpt>
      <trkpt lat="44.136805292218924" lon="9.683718178421259">
        <ele>80.579999999999998</ele>
        <time>2019-04-07T14:19:22Z</time>
      </trkpt>
      <trkpt lat="44.136778973042965" lon="9.683739384636283">
        <ele>79.450000000000003</ele>
        <time>2019-04-07T14:19:26Z</time>
      </trkpt>
      <trkpt lat="44.136621812358499" lon="9.683696385473013">
        <ele>76.049999999999997</ele>
        <time>2019-04-07T14:19:39Z</time>
      </trkpt>
      <trkpt lat="44.13650169968605" lon="9.683684902265668">
        <ele>73.810000000000002</ele>
        <time>2019-04-07T14:19:50Z</time>
      </trkpt>
      <trkpt lat="44.136410923674703" lon="9.683656236156821">
        <ele>73.920000000000002</ele>
        <time>2019-04-07T14:19:58Z</time>
      </trkpt>
      <trkpt lat="44.136336492374539" lon="9.683617595583201">
        <ele>70.700000000000003</ele>
        <time>2019-04-07T14:20:05Z</time>
      </trkpt>
      <trkpt lat="44.136315286159515" lon="9.683603765442967">
        <ele>70.170000000000002</ele>
        <time>2019-04-07T14:20:07Z</time>
      </trkpt>
      <trkpt lat="44.136187462136149" lon="9.683545343577862">
        <ele>67.810000000000002</ele>
        <time>2019-04-07T14:20:20Z</time>
      </trkpt>
      <trkpt lat="44.136181846261024" lon="9.683532435446978">
        <ele>67.930000000000007</ele>
        <time>2019-04-07T14:20:35Z</time>
      </trkpt>
      <trkpt lat="44.136182349175215" lon="9.683539727702737">
        <ele>67.969999999999999</ele>
        <time>2019-04-07T14:20:53Z</time>
      </trkpt>
      <trkpt lat="44.136190814897418" lon="9.683544840663672">
        <ele>67.890000000000001</ele>
        <time>2019-04-07T14:21:17Z</time>
      </trkpt>
      <trkpt lat="44.136155275627971" lon="9.683596808463335">
        <ele>67</ele>
        <time>2019-04-07T14:21:29Z</time>
      </trkpt>
      <trkpt lat="44.136147648096085" lon="9.68358582817018">
        <ele>66.980000000000004</ele>
        <time>2019-04-07T14:21:41Z</time>
      </trkpt>
      <trkpt lat="44.136146390810609" lon="9.683581469580531">
        <ele>67.019999999999996</ele>
        <time>2019-04-07T14:21:56Z</time>
      </trkpt>
      <trkpt lat="44.13614840246737" lon="9.683577278628945">
        <ele>66.670000000000002</ele>
        <time>2019-04-07T14:22:16Z</time>
      </trkpt>
      <trkpt lat="44.13614253513515" lon="9.683591024950147">
        <ele>66.780000000000001</ele>
        <time>2019-04-07T14:22:30Z</time>
      </trkpt>
      <trkpt lat="44.136141864582896" lon="9.683611392974854">
        <ele>66.540000000000006</ele>
        <time>2019-04-07T14:22:53Z</time>
      </trkpt>
      <trkpt lat="44.136163489893079" lon="9.683703761547804">
        <ele>64.959999999999994</ele>
        <time>2019-04-07T14:23:07Z</time>
      </trkpt>
      <trkpt lat="44.136214954778552" lon="9.683774588629603">
        <ele>63.439999999999998</ele>
        <time>2019-04-07T14:23:17Z</time>
      </trkpt>
      <trkpt lat="44.13628083653748" lon="9.683831417933106">
        <ele>61.280000000000001</ele>
        <time>2019-04-07T14:23:25Z</time>
      </trkpt>
      <trkpt lat="44.136313525959849" lon="9.683839967474341">
        <ele>60.579999999999998</ele>
        <time>2019-04-07T14:23:28Z</time>
      </trkpt>
      <trkpt lat="44.136423328891397" lon="9.683898389339447">
        <ele>57.229999999999997</ele>
        <time>2019-04-07T14:23:40Z</time>
      </trkpt>
      <trkpt lat="44.136478397995234" lon="9.683944489806891">
        <ele>55.289999999999999</ele>
        <time>2019-04-07T14:23:46Z</time>
      </trkpt>
      <trkpt lat="44.136610832065344" lon="9.684073571115732">
        <ele>51.909999999999997</ele>
        <time>2019-04-07T14:24:00Z</time>
      </trkpt>
      <trkpt lat="44.136682245880365" lon="9.684153031557798">
        <ele>49.630000000000003</ele>
        <time>2019-04-07T14:24:08Z</time>
      </trkpt>
      <trkpt lat="44.136747121810913" lon="9.684207933023572">
        <ele>48.159999999999997</ele>
        <time>2019-04-07T14:24:15Z</time>
      </trkpt>
      <trkpt lat="44.136719293892384" lon="9.684266606345773">
        <ele>46.670000000000002</ele>
        <time>2019-04-07T14:24:21Z</time>
      </trkpt>
      <trkpt lat="44.136583339422941" lon="9.684235090389848">
        <ele>43.259999999999998</ele>
        <time>2019-04-07T14:24:35Z</time>
      </trkpt>
      <trkpt lat="44.136425256729126" lon="9.684229223057628">
        <ele>40.259999999999998</ele>
        <time>2019-04-07T14:24:49Z</time>
      </trkpt>
      <trkpt lat="44.136252673342824" lon="9.684204496443272">
        <ele>37</ele>
        <time>2019-04-07T14:25:04Z</time>
      </trkpt>
      <trkpt lat="44.13604480214417" lon="9.684230228886008">
        <ele>33.530000000000001</ele>
        <time>2019-04-07T14:25:21Z</time>
      </trkpt>
      <trkpt lat="44.135885378345847" lon="9.684244310483336">
        <ele>31.510000000000002</ele>
        <time>2019-04-07T14:25:34Z</time>
      </trkpt>
      <trkpt lat="44.135710448026657" lon="9.684255206957459">
        <ele>28.649999999999999</ele>
        <time>2019-04-07T14:25:50Z</time>
      </trkpt>
      <trkpt lat="44.135518670082092" lon="9.684253865852952">
        <ele>26.010000000000002</ele>
        <time>2019-04-07T14:26:07Z</time>
      </trkpt>
      <trkpt lat="44.135418925434351" lon="9.684293596073985">
        <ele>24.59</ele>
        <time>2019-04-07T14:26:16Z</time>
      </trkpt>
      <trkpt lat="44.135345919057727" lon="9.684311114251614">
        <ele>21.390000000000001</ele>
        <time>2019-04-07T14:26:25Z</time>
      </trkpt>
      <trkpt lat="44.13528012111783" lon="9.684262834489346">
        <ele>22.620000000000001</ele>
        <time>2019-04-07T14:26:30Z</time>
      </trkpt>
      <trkpt lat="44.135251957923174" lon="9.684298038482666">
        <ele>22.66</ele>
        <time>2019-04-07T14:26:42Z</time>
      </trkpt>
      <trkpt lat="44.135255394503474" lon="9.684312371537089">
        <ele>22.640000000000001</ele>
        <time>2019-04-07T14:26:56Z</time>
      </trkpt>
      <trkpt lat="44.135288754478097" lon="9.684324692934752">
        <ele>22.27</ele>
        <time>2019-04-07T14:27:09Z</time>
      </trkpt>
      <trkpt lat="44.135291101410985" lon="9.684319831430912">
        <ele>21.870000000000001</ele>
        <time>2019-04-07T14:27:22Z</time>
      </trkpt>
      <trkpt lat="44.135294537991285" lon="9.684317819774151">
        <ele>22.140000000000001</ele>
        <time>2019-04-07T14:27:38Z</time>
      </trkpt>
      <trkpt lat="44.135328736156225" lon="9.684305163100362">
        <ele>21.73</ele>
        <time>2019-04-07T14:28:03Z</time>
      </trkpt>
      <trkpt lat="44.135365365073085" lon="9.684310527518392">
        <ele>21.16</ele>
        <time>2019-04-07T14:28:07Z</time>
      </trkpt>
      <trkpt lat="44.135367544367909" lon="9.684342462569475">
        <ele>19.82</ele>
        <time>2019-04-07T14:28:15Z</time>
      </trkpt>
      <trkpt lat="44.135349942371249" lon="9.684408428147435">
        <ele>16.699999999999999</ele>
        <time>2019-04-07T14:28:25Z</time>
      </trkpt>
      <trkpt lat="44.135336447507143" lon="9.684439692646265">
        <ele>14.289999999999999</ele>
        <time>2019-04-07T14:28:37Z</time>
      </trkpt>
      <trkpt lat="44.135275511071086" lon="9.684449667111039">
        <ele>10.93</ele>
        <time>2019-04-07T14:28:47Z</time>
      </trkpt>
      <trkpt lat="44.135249610990286" lon="9.684481266885996">
        <ele>8.560000000000001</ele>
        <time>2019-04-07T14:28:56Z</time>
      </trkpt>
      <trkpt lat="44.135206444188952" lon="9.684480763971806">
        <ele>5.33</ele>
        <time>2019-04-07T14:29:10Z</time>
      </trkpt>
      <trkpt lat="44.13516721688211" lon="9.684532815590501">
        <ele>2.2</ele>
        <time>2019-04-07T14:29:22Z</time>
      </trkpt>
      <trkpt lat="44.135112566873431" lon="9.684575814753771">
        <ele>-1.02</ele>
        <time>2019-04-07T14:29:32Z</time>
      </trkpt>
      <trkpt lat="44.135126816108823" lon="9.684680420905352">
        <ele>-3.14</ele>
        <time>2019-04-07T14:29:45Z</time>
      </trkpt>
      <trkpt lat="44.135087840259075" lon="9.68468084000051">
        <ele>-4.1</ele>
        <time>2019-04-07T14:29:54Z</time>
      </trkpt>
      <trkpt lat="44.135057749226689" lon="9.684638511389494">
        <ele>-4.94</ele>
        <time>2019-04-07T14:30:05Z</time>
      </trkpt>
      <trkpt lat="44.135006619617343" lon="9.684600122272968">
        <ele>-4.25</ele>
        <time>2019-04-07T14:30:24Z</time>
      </trkpt>
      <trkpt lat="44.134995639324188" lon="9.684626022353768">
        <ele>-3.8</ele>
        <time>2019-04-07T14:30:30Z</time>
      </trkpt>
      <trkpt lat="44.135011062026024" lon="9.684628704562783">
        <ele>-1.43</ele>
        <time>2019-04-07T14:30:41Z</time>
      </trkpt>
      <trkpt lat="44.135022964328527" lon="9.684640690684319">
        <ele>-0.67</ele>
        <time>2019-04-07T14:30:43Z</time>
      </trkpt>
      <trkpt lat="44.135052720084786" lon="9.68460850417614">
        <ele>-0.46</ele>
        <time>2019-04-07T14:30:57Z</time>
      </trkpt>
      <trkpt lat="44.135040817782283" lon="9.684620909392834">
        <ele>-0.61</ele>
        <time>2019-04-07T14:31:09Z</time>
      </trkpt>
      <trkpt lat="44.135037465021014" lon="9.684641612693667">
        <ele>-0.53</ele>
        <time>2019-04-07T14:31:27Z</time>
      </trkpt>
      <trkpt lat="44.13502992130816" lon="9.684652844443917">
        <ele>-0.61</ele>
        <time>2019-04-07T14:31:28Z</time>
      </trkpt>
      <trkpt lat="44.134982228279114" lon="9.684680420905352">
        <ele>-0.55</ele>
        <time>2019-04-07T14:31:38Z</time>
      </trkpt>
      <trkpt lat="44.134983653202653" lon="9.684686455875635">
        <ele>-0.52</ele>
        <time>2019-04-07T14:31:45Z</time>
      </trkpt>
      <trkpt lat="44.134999411180615" lon="9.684711936861277">
        <ele>-0.68</ele>
        <time>2019-04-07T14:31:59Z</time>
      </trkpt>
      <trkpt lat="44.135021707043052" lon="9.684678325429559">
        <ele>-0.61</ele>
        <time>2019-04-07T14:32:02Z</time>
      </trkpt>
      <trkpt lat="44.135066047310829" lon="9.684652676805854">
        <ele>-0.99</ele>
        <time>2019-04-07T14:32:14Z</time>
      </trkpt>
      <trkpt lat="44.135108543559909" lon="9.684681342914701">
        <ele>-1.1</ele>
        <time>2019-04-07T14:32:34Z</time>
      </trkpt>
      <trkpt lat="44.135155146941543" lon="9.684748817235231">
        <ele>-1.18</ele>
        <time>2019-04-07T14:33:00Z</time>
      </trkpt>
      <trkpt lat="44.135151039808989" lon="9.684753343462944">
        <ele>-1.37</ele>
        <time>2019-04-07T14:33:22Z</time>
      </trkpt>
      <trkpt lat="44.135135784745216" lon="9.684703638777137">
        <ele>-1.38</ele>
        <time>2019-04-07T14:33:36Z</time>
      </trkpt>
      <trkpt lat="44.135085912421346" lon="9.684691485017538">
        <ele>-1.58</ele>
        <time>2019-04-07T14:33:56Z</time>
      </trkpt>
      <trkpt lat="44.135139724239707" lon="9.684719312936068">
        <ele>-1.62</ele>
        <time>2019-04-07T14:34:17Z</time>
      </trkpt>
      <trkpt lat="44.135121703147888" lon="9.684737166389823">
        <ele>-0.92</ele>
        <time>2019-04-07T14:34:25Z</time>
      </trkpt>
      <trkpt lat="44.135074932128191" lon="9.684710847213864">
        <ele>-1.24</ele>
        <time>2019-04-07T14:34:40Z</time>
      </trkpt>
      <trkpt lat="44.135046517476439" lon="9.684645468369126">
        <ele>-0.01</ele>
        <time>2019-04-07T14:34:52Z</time>
      </trkpt>
      <trkpt lat="44.135026233270764" lon="9.684622082859278">
        <ele>-1.06</ele>
        <time>2019-04-07T14:35:09Z</time>
      </trkpt>
      <trkpt lat="44.135022712871432" lon="9.684609761461616">
        <ele>-1.47</ele>
        <time>2019-04-07T14:35:17Z</time>
      </trkpt>
      <trkpt lat="44.135024221614003" lon="9.684603223577142">
        <ele>1.33</ele>
        <time>2019-04-07T14:35:37Z</time>
      </trkpt>
      <trkpt lat="44.135024305433035" lon="9.684609845280647">
        <ele>-1.67</ele>
        <time>2019-04-07T14:35:41Z</time>
      </trkpt>
      <trkpt lat="44.135030508041382" lon="9.684605821967125">
        <ele>-1.1</ele>
        <time>2019-04-07T14:35:50Z</time>
      </trkpt>
      <trkpt lat="44.135030088946223" lon="9.684667848050594">
        <ele>-0.74</ele>
        <time>2019-04-07T14:36:08Z</time>
      </trkpt>
      <trkpt lat="44.135023048147559" lon="9.684692323207855">
        <ele>-0.85</ele>
        <time>2019-04-07T14:36:30Z</time>
      </trkpt>
      <trkpt lat="44.135037213563919" lon="9.68469986692071">
        <ele>-0.98</ele>
        <time>2019-04-07T14:36:53Z</time>
      </trkpt>
      <trkpt lat="44.135028580203652" lon="9.684697184711695">
        <ele>-0.94</ele>
        <time>2019-04-07T14:37:10Z</time>
      </trkpt>
      <trkpt lat="44.135039057582617" lon="9.684702716767788">
        <ele>-1.7</ele>
        <time>2019-04-07T14:37:28Z</time>
      </trkpt>
      <trkpt lat="44.135020785033703" lon="9.684718642383814">
        <ele>-1.14</ele>
        <time>2019-04-07T14:37:50Z</time>
      </trkpt>
      <trkpt lat="44.13503285497427" lon="9.684707494452596">
        <ele>-0.73</ele>
        <time>2019-04-07T14:38:09Z</time>
      </trkpt>
      <trkpt lat="44.135041739791632" lon="9.684733897447586">
        <ele>-1.08</ele>
        <time>2019-04-07T14:38:28Z</time>
      </trkpt>
      <trkpt lat="44.135025478899479" lon="9.684706572443247">
        <ele>-1.29</ele>
        <time>2019-04-07T14:38:44Z</time>
      </trkpt>
      <trkpt lat="44.135043919086456" lon="9.684671787545085">
        <ele>-1.38</ele>
        <time>2019-04-07T14:38:58Z</time>
      </trkpt>
      <trkpt lat="44.135047439485788" lon="9.684663573279977">
        <ele>-1.39</ele>
        <time>2019-04-07T14:39:18Z</time>
      </trkpt>
      <trkpt lat="44.135048948228359" lon="9.68463733792305">
        <ele>-1.32</ele>
        <time>2019-04-07T14:39:37Z</time>
      </trkpt>
      <trkpt lat="44.135048948228359" lon="9.68463733792305">
        <ele>-1.38</ele>
        <time>2019-04-07T14:39:38Z</time>
      </trkpt>
      <trkpt lat="44.135067220777273" lon="9.684618730098009">
        <ele>-1.47</ele>
        <time>2019-04-07T14:39:46Z</time>
      </trkpt>
      <trkpt lat="44.135020952671766" lon="9.68461730517447">
        <ele>-1.43</ele>
        <time>2019-04-07T14:40:04Z</time>
      </trkpt>
      <trkpt lat="44.134996980428696" lon="9.684639601036906">
        <ele>-1.46</ele>
        <time>2019-04-07T14:40:23Z</time>
      </trkpt>
      <trkpt lat="44.135012570768595" lon="9.684659969061613">
        <ele>-1.16</ele>
        <time>2019-04-07T14:40:30Z</time>
      </trkpt>
      <trkpt lat="44.135026736184955" lon="9.684673296287656">
        <ele>-1.03</ele>
        <time>2019-04-07T14:40:47Z</time>
      </trkpt>
      <trkpt lat="44.135035704821348" lon="9.684630213305354">
        <ele>-1.37</ele>
        <time>2019-04-07T14:41:07Z</time>
      </trkpt>
      <trkpt lat="44.135031849145889" lon="9.684613114222884">
        <ele>-1.36</ele>
        <time>2019-04-07T14:41:28Z</time>
      </trkpt>
      <trkpt lat="44.135037884116173" lon="9.684600876644254">
        <ele>-1.54</ele>
        <time>2019-04-07T14:41:47Z</time>
      </trkpt>
      <trkpt lat="44.13505095988512" lon="9.684618478640914">
        <ele>-1.02</ele>
        <time>2019-04-07T14:42:05Z</time>
      </trkpt>
      <trkpt lat="44.135047439485788" lon="9.684633482247591">
        <ele>-1.37</ele>
        <time>2019-04-07T14:42:27Z</time>
      </trkpt>
      <trkpt lat="44.135034447535872" lon="9.684627112001181">
        <ele>-1.34</ele>
        <time>2019-04-07T14:42:49Z</time>
      </trkpt>
      <trkpt lat="44.135043583810329" lon="9.684631135314703">
        <ele>-2.12</ele>
        <time>2019-04-07T14:43:06Z</time>
      </trkpt>
      <trkpt lat="44.135019527748227" lon="9.684630129486322">
        <ele>-1.46</ele>
        <time>2019-04-07T14:43:21Z</time>
      </trkpt>
      <trkpt lat="44.1350416559726" lon="9.684621663764119">
        <ele>-1.48</ele>
        <time>2019-04-07T14:43:36Z</time>
      </trkpt>
      <trkpt lat="44.135037213563919" lon="9.684632224962115">
        <ele>-1.3</ele>
        <time>2019-04-07T14:43:48Z</time>
      </trkpt>
      <trkpt lat="44.135034531354904" lon="9.684656783938408">
        <ele>-4.74</ele>
        <time>2019-04-07T14:43:56Z</time>
      </trkpt>
      <trkpt lat="44.135030005127192" lon="9.684666339308024">
        <ele>-0.39</ele>
        <time>2019-04-07T14:43:57Z</time>
      </trkpt>
      <trkpt lat="44.134988347068429" lon="9.684619652107358">
        <ele>-1.34</ele>
        <time>2019-04-07T14:44:14Z</time>
      </trkpt>
      <trkpt lat="44.134998489171267" lon="9.68457137234509">
        <ele>-1.39</ele>
        <time>2019-04-07T14:44:29Z</time>
      </trkpt>
      <trkpt lat="44.135006703436375" lon="9.684549914672971">
        <ele>-0.88</ele>
        <time>2019-04-07T14:44:45Z</time>
      </trkpt>
      <trkpt lat="44.13501039147377" lon="9.684544131159782">
        <ele>-1.01</ele>
        <time>2019-04-07T14:45:02Z</time>
      </trkpt>
      <trkpt lat="44.135012906044722" lon="9.684516806155443">
        <ele>-1.21</ele>
        <time>2019-04-07T14:45:18Z</time>
      </trkpt>
      <trkpt lat="44.135037045925856" lon="9.684477830305696">
        <ele>-1.33</ele>
        <time>2019-04-07T14:45:22Z</time>
      </trkpt>
      <trkpt lat="44.135054899379611" lon="9.684465760365129">
        <ele>-1.05</ele>
        <time>2019-04-07T14:45:24Z</time>
      </trkpt>
      <trkpt lat="44.135074932128191" lon="9.684435166418552">
        <ele>-1.24</ele>
        <time>2019-04-07T14:45:27Z</time>
      </trkpt>
      <trkpt lat="44.13510812446475" lon="9.684400381520391">
        <ele>-0.92</ele>
        <time>2019-04-07T14:45:30Z</time>
      </trkpt>
    </trkseg>
  </trk>

</gpx>